<?xml version="1.0" encoding="UTF-8"?>
<gpx version="1.0" creator="Trackator" xmlns:xsi="http://www.w3.org/2001/XMLSchema-instance" xmlns="http://www.topografix.com/GPX/1/0" xmlns:topografix="http://www.topografix.com/GPX/Private/TopoGrafix/0/1" xsi:schemaLocation="http://www.topografix.com/GPX/1/0 http://www.topografix.com/GPX/1/0/gpx.xsd http://www.topografix.com/GPX/Private/TopoGrafix/0/1 http://www.topografix.com/GPX/Private/TopoGrafix/0/1/topografix.xsd">
<metadata>
<link href="http://www.trackator.com">
<text>Trackator</text>
</link>
</metadata>
<time>2017-03-03T:32:15Z</time>
<trk>
<name>Track: </name>
<desc>Hiking</desc>
<trkseg>
<trkpt lat="40.63272666666667" lon="-3.1714333333333333">
<ele>693</ele>
<time>2017-03-03T:32:15Z</time>
</trkpt>
<trkpt lat="40.63276666666666" lon="-3.1713549999999997">
<ele>685</ele>
<time>2017-03-03T09:32:19Z</time>
</trkpt>
<trkpt lat="40.632844999999996" lon="-3.1712499999999997">
<ele>663</ele>
<time>2017-03-03T09:32:23Z</time>
</trkpt>
<trkpt lat="40.632855" lon="-3.171298333333333">
<ele>665</ele>
<time>2017-03-03T09:32:28Z</time>
</trkpt>
<trkpt lat="40.632843333333334" lon="-3.1713533333333337">
<ele>664</ele>
<time>2017-03-03T09:32:32Z</time>
</trkpt>
<trkpt lat="40.632805" lon="-3.171423333333333">
<ele>666</ele>
<time>2017-03-03T09:32:36Z</time>
</trkpt>
<trkpt lat="40.63278666666667" lon="-3.1714949999999997">
<ele>666</ele>
<time>2017-03-03T09:32:40Z</time>
</trkpt>
<trkpt lat="40.63277666666667" lon="-3.1714783333333334">
<ele>667</ele>
<time>2017-03-03T09:32:44Z</time>
</trkpt>
<trkpt lat="40.632783333333336" lon="-3.1713333333333327">
<ele>667</ele>
<time>2017-03-03T09:32:48Z</time>
</trkpt>
<trkpt lat="40.632785" lon="-3.1711833333333335">
<ele>667</ele>
<time>2017-03-03T09:32:52Z</time>
</trkpt>
<trkpt lat="40.63278833333333" lon="-3.17104">
<ele>668</ele>
<time>2017-03-03T09:32:56Z</time>
</trkpt>
<trkpt lat="40.632781666666666" lon="-3.1709150000000004">
<ele>670</ele>
<time>2017-03-03T09:33:00Z</time>
</trkpt>
<trkpt lat="40.632785" lon="-3.1707883333333333">
<ele>670</ele>
<time>2017-03-03T09:33:04Z</time>
</trkpt>
<trkpt lat="40.632756666666666" lon="-3.1706966666666667">
<ele>673</ele>
<time>2017-03-03T09:33:08Z</time>
</trkpt>
<trkpt lat="40.63275" lon="-3.170668333333333">
<ele>674</ele>
<time>2017-03-03T09:33:12Z</time>
</trkpt>
<trkpt lat="40.632711666666665" lon="-3.170578333333333">
<ele>675</ele>
<time>2017-03-03T09:33:16Z</time>
</trkpt>
<trkpt lat="40.63267" lon="-3.1705">
<ele>675</ele>
<time>2017-03-03T09:33:20Z</time>
</trkpt>
<trkpt lat="40.63262666666667" lon="-3.170438333333333">
<ele>674</ele>
<time>2017-03-03T09:33:24Z</time>
</trkpt>
<trkpt lat="40.63261" lon="-3.1703533333333334">
<ele>674</ele>
<time>2017-03-03T09:33:28Z</time>
</trkpt>
<trkpt lat="40.63258" lon="-3.1702866666666667">
<ele>675</ele>
<time>2017-03-03T09:33:32Z</time>
</trkpt>
<trkpt lat="40.63254333333334" lon="-3.1702199999999996">
<ele>675</ele>
<time>2017-03-03T09:33:36Z</time>
</trkpt>
<trkpt lat="40.63250666666667" lon="-3.1701566666666667">
<ele>675</ele>
<time>2017-03-03T09:33:40Z</time>
</trkpt>
<trkpt lat="40.632466666666666" lon="-3.1700866666666667">
<ele>675</ele>
<time>2017-03-03T09:33:44Z</time>
</trkpt>
<trkpt lat="40.63244666666667" lon="-3.170016666666667">
<ele>675</ele>
<time>2017-03-03T09:33:48Z</time>
</trkpt>
<trkpt lat="40.63243" lon="-3.1699433333333333">
<ele>676</ele>
<time>2017-03-03T09:33:52Z</time>
</trkpt>
<trkpt lat="40.632418333333334" lon="-3.169876666666667">
<ele>676</ele>
<time>2017-03-03T09:33:56Z</time>
</trkpt>
<trkpt lat="40.63243166666667" lon="-3.1698">
<ele>675</ele>
<time>2017-03-03T09:34:00Z</time>
</trkpt>
<trkpt lat="40.63245166666666" lon="-3.1697450000000003">
<ele>676</ele>
<time>2017-03-03T09:34:04Z</time>
</trkpt>
<trkpt lat="40.63245333333334" lon="-3.169705">
<ele>677</ele>
<time>2017-03-03T09:34:08Z</time>
</trkpt>
<trkpt lat="40.63245833333334" lon="-3.169636666666667">
<ele>676</ele>
<time>2017-03-03T09:34:12Z</time>
</trkpt>
<trkpt lat="40.63245833333334" lon="-3.1695849999999997">
<ele>676</ele>
<time>2017-03-03T09:34:16Z</time>
</trkpt>
<trkpt lat="40.63235666666667" lon="-3.169655">
<ele>679</ele>
<time>2017-03-03T09:34:20Z</time>
</trkpt>
<trkpt lat="40.632255" lon="-3.169755">
<ele>684</ele>
<time>2017-03-03T09:34:24Z</time>
</trkpt>
<trkpt lat="40.632218333333334" lon="-3.169793333333333">
<ele>683</ele>
<time>2017-03-03T09:34:28Z</time>
</trkpt>
<trkpt lat="40.63220333333334" lon="-3.169793333333333">
<ele>683</ele>
<time>2017-03-03T09:34:32Z</time>
</trkpt>
<trkpt lat="40.63220166666667" lon="-3.1697666666666664">
<ele>683</ele>
<time>2017-03-03T09:34:36Z</time>
</trkpt>
<trkpt lat="40.632185" lon="-3.169795">
<ele>683</ele>
<time>2017-03-03T09:34:40Z</time>
</trkpt>
<trkpt lat="40.63216166666667" lon="-3.16995">
<ele>681</ele>
<time>2017-03-03T09:34:44Z</time>
</trkpt>
<trkpt lat="40.63220333333334" lon="-3.1701750000000004">
<ele>678</ele>
<time>2017-03-03T09:34:48Z</time>
</trkpt>
<trkpt lat="40.63225333333333" lon="-3.1704733333333337">
<ele>676</ele>
<time>2017-03-03T09:34:52Z</time>
</trkpt>
<trkpt lat="40.63243166666667" lon="-3.171075">
<ele>670</ele>
<time>2017-03-03T09:34:56Z</time>
</trkpt>
<trkpt lat="40.632488333333335" lon="-3.171285">
<ele>668</ele>
<time>2017-03-03T09:35:00Z</time>
</trkpt>
<trkpt lat="40.63250166666667" lon="-3.17138">
<ele>668</ele>
<time>2017-03-03T09:35:04Z</time>
</trkpt>
<trkpt lat="40.63256166666667" lon="-3.17146">
<ele>669</ele>
<time>2017-03-03T09:35:08Z</time>
</trkpt>
<trkpt lat="40.63260833333333" lon="-3.171533333333333">
<ele>670</ele>
<time>2017-03-03T09:35:12Z</time>
</trkpt>
<trkpt lat="40.63261166666667" lon="-3.171541666666667">
<ele>670</ele>
<time>2017-03-03T09:35:16Z</time>
</trkpt>
<trkpt lat="40.632574999999996" lon="-3.1715549999999997">
<ele>671</ele>
<time>2017-03-03T09:35:20Z</time>
</trkpt>
<trkpt lat="40.63257333333333" lon="-3.171563333333333">
<ele>671</ele>
<time>2017-03-03T09:35:24Z</time>
</trkpt>
<trkpt lat="40.63257333333333" lon="-3.171563333333333">
<ele>671</ele>
<time>2017-03-03T09:35:28Z</time>
</trkpt>
<trkpt lat="40.632553333333334" lon="-3.1715883333333332">
<ele>672</ele>
<time>2017-03-03T09:35:32Z</time>
</trkpt>
<trkpt lat="40.63252166666667" lon="-3.171646666666667">
<ele>672</ele>
<time>2017-03-03T09:35:36Z</time>
</trkpt>
<trkpt lat="40.632495" lon="-3.1716583333333337">
<ele>672</ele>
<time>2017-03-03T09:35:40Z</time>
</trkpt>
<trkpt lat="40.632796666666664" lon="-3.1718049999999995">
<ele>671</ele>
<time>2017-03-03T09:35:54Z</time>
</trkpt>
<trkpt lat="40.63262833333333" lon="-3.1720116666666667">
<ele>670</ele>
<time>2017-03-03T09:35:58Z</time>
</trkpt>
<trkpt lat="40.632553333333334" lon="-3.171925">
<ele>670</ele>
<time>2017-03-03T09:36:02Z</time>
</trkpt>
<trkpt lat="40.63251" lon="-3.1718499999999996">
<ele>670</ele>
<time>2017-03-03T09:36:06Z</time>
</trkpt>
<trkpt lat="40.63247666666667" lon="-3.171761666666667">
<ele>670</ele>
<time>2017-03-03T09:36:10Z</time>
</trkpt>
<trkpt lat="40.632965" lon="-3.171415">
<ele>670</ele>
<time>2017-03-03T09:36:58Z</time>
</trkpt>
<trkpt lat="40.63285" lon="-3.1716283333333335">
<ele>682</ele>
<time>2017-03-03T09:37:02Z</time>
</trkpt>
<trkpt lat="40.632865" lon="-3.1717166666666667">
<ele>690</ele>
<time>2017-03-03T09:37:06Z</time>
</trkpt>
<trkpt lat="40.63292666666667" lon="-3.1717683333333335">
<ele>701</ele>
<time>2017-03-03T09:37:10Z</time>
</trkpt>
<trkpt lat="40.63295" lon="-3.171793333333333">
<ele>709</ele>
<time>2017-03-03T09:37:14Z</time>
</trkpt>
<trkpt lat="40.632981666666666" lon="-3.1717916666666666">
<ele>714</ele>
<time>2017-03-03T09:37:18Z</time>
</trkpt>
<trkpt lat="40.632934999999996" lon="-3.1717516666666663">
<ele>748</ele>
<time>2017-03-03T09:37:24Z</time>
</trkpt>
<trkpt lat="40.63292666666667" lon="-3.17177">
<ele>745</ele>
<time>2017-03-03T09:37:28Z</time>
</trkpt>
<trkpt lat="40.63285666666666" lon="-3.1719316666666666">
<ele>751</ele>
<time>2017-03-03T09:37:32Z</time>
</trkpt>
<trkpt lat="40.63284" lon="-3.1720133333333336">
<ele>748</ele>
<time>2017-03-03T09:37:36Z</time>
</trkpt>
<trkpt lat="40.632801666666666" lon="-3.17206">
<ele>747</ele>
<time>2017-03-03T09:37:40Z</time>
</trkpt>
<trkpt lat="40.63281833333333" lon="-3.172106666666666">
<ele>746</ele>
<time>2017-03-03T09:37:44Z</time>
</trkpt>
<trkpt lat="40.632775" lon="-3.172088333333334">
<ele>742</ele>
<time>2017-03-03T09:37:48Z</time>
</trkpt>
<trkpt lat="40.63279166666667" lon="-3.1721666666666666">
<ele>737</ele>
<time>2017-03-03T09:37:52Z</time>
</trkpt>
<trkpt lat="40.63278833333333" lon="-3.1720333333333333">
<ele>725</ele>
<time>2017-03-03T09:37:56Z</time>
</trkpt>
<trkpt lat="40.63276833333334" lon="-3.1719916666666665">
<ele>723</ele>
<time>2017-03-03T09:38:00Z</time>
</trkpt>
<trkpt lat="40.63275333333333" lon="-3.1720316666666672">
<ele>728</ele>
<time>2017-03-03T09:38:04Z</time>
</trkpt>
<trkpt lat="40.63272833333333" lon="-3.1719466666666665">
<ele>725</ele>
<time>2017-03-03T09:38:08Z</time>
</trkpt>
<trkpt lat="40.632565" lon="-3.171906666666666">
<ele>714</ele>
<time>2017-03-03T09:38:12Z</time>
</trkpt>
<trkpt lat="40.6325" lon="-3.1718683333333333">
<ele>700</ele>
<time>2017-03-03T09:38:16Z</time>
</trkpt>
<trkpt lat="40.632486666666665" lon="-3.1717450000000005">
<ele>699</ele>
<time>2017-03-03T09:38:20Z</time>
</trkpt>
<trkpt lat="40.632645000000004" lon="-3.1716499999999996">
<ele>708</ele>
<time>2017-03-03T09:38:24Z</time>
</trkpt>
<trkpt lat="40.63267166666667" lon="-3.1715916666666666">
<ele>709</ele>
<time>2017-03-03T09:38:28Z</time>
</trkpt>
<trkpt lat="40.63267166666667" lon="-3.1715916666666666">
<ele>709</ele>
<time>2017-03-03T09:38:32Z</time>
</trkpt>
<trkpt lat="40.63267166666667" lon="-3.1715916666666666">
<ele>709</ele>
<time>2017-03-03T09:38:36Z</time>
</trkpt>
<trkpt lat="40.632706666666664" lon="-3.1715733333333334">
<ele>721</ele>
<time>2017-03-03T09:38:40Z</time>
</trkpt>
<trkpt lat="40.63268666666667" lon="-3.1715450000000005">
<ele>722</ele>
<time>2017-03-03T09:38:44Z</time>
</trkpt>
<trkpt lat="40.632621666666665" lon="-3.1714783333333334">
<ele>720</ele>
<time>2017-03-03T09:38:48Z</time>
</trkpt>
<trkpt lat="40.63256833333333" lon="-3.1714633333333335">
<ele>717</ele>
<time>2017-03-03T09:38:52Z</time>
</trkpt>
<trkpt lat="40.63251833333334" lon="-3.1715083333333336">
<ele>717</ele>
<time>2017-03-03T09:38:56Z</time>
</trkpt>
<trkpt lat="40.63247666666667" lon="-3.1715283333333333">
<ele>718</ele>
<time>2017-03-03T09:39:00Z</time>
</trkpt>
<trkpt lat="40.63248166666666" lon="-3.17152">
<ele>718</ele>
<time>2017-03-03T09:39:04Z</time>
</trkpt>
<trkpt lat="40.63248166666666" lon="-3.17152">
<ele>718</ele>
<time>2017-03-03T09:39:08Z</time>
</trkpt>
<trkpt lat="40.63248166666666" lon="-3.17152">
<ele>718</ele>
<time>2017-03-03T09:39:12Z</time>
</trkpt>
<trkpt lat="40.632574999999996" lon="-3.1716499999999996">
<ele>719</ele>
<time>2017-03-03T09:39:16Z</time>
</trkpt>
<trkpt lat="40.632558333333336" lon="-3.1717016666666664">
<ele>719</ele>
<time>2017-03-03T09:39:20Z</time>
</trkpt>
<trkpt lat="40.63253833333333" lon="-3.1717316666666666">
<ele>719</ele>
<time>2017-03-03T09:39:24Z</time>
</trkpt>
<trkpt lat="40.63245" lon="-3.1716550000000003">
<ele>719</ele>
<time>2017-03-03T09:39:44Z</time>
</trkpt>
<trkpt lat="40.632601666666666" lon="-3.171638333333333">
<ele>736</ele>
<time>2017-03-03T09:39:48Z</time>
</trkpt>
<trkpt lat="40.632645000000004" lon="-3.171548333333333">
<ele>735</ele>
<time>2017-03-03T09:39:52Z</time>
</trkpt>
<trkpt lat="40.63258333333333" lon="-3.1714916666666664">
<ele>731</ele>
<time>2017-03-03T09:39:56Z</time>
</trkpt>
<trkpt lat="40.632535" lon="-3.1713966666666664">
<ele>717</ele>
<time>2017-03-03T09:40:00Z</time>
</trkpt>
<trkpt lat="40.632475" lon="-3.17135">
<ele>711</ele>
<time>2017-03-03T09:40:04Z</time>
</trkpt>
<trkpt lat="40.63239" lon="-3.1713066666666663">
<ele>707</ele>
<time>2017-03-03T09:40:08Z</time>
</trkpt>
<trkpt lat="40.63232" lon="-3.1712649999999996">
<ele>706</ele>
<time>2017-03-03T09:40:12Z</time>
</trkpt>
<trkpt lat="40.63223" lon="-3.1712916666666664">
<ele>708</ele>
<time>2017-03-03T09:40:16Z</time>
</trkpt>
<trkpt lat="40.632195" lon="-3.171341666666667">
<ele>708</ele>
<time>2017-03-03T09:40:20Z</time>
</trkpt>
<trkpt lat="40.63216166666667" lon="-3.171451666666667">
<ele>705</ele>
<time>2017-03-03T09:40:24Z</time>
</trkpt>
<trkpt lat="40.632018333333335" lon="-3.171615">
<ele>699</ele>
<time>2017-03-03T09:40:28Z</time>
</trkpt>
<trkpt lat="40.63193833333333" lon="-3.1715500000000003">
<ele>693</ele>
<time>2017-03-03T09:40:32Z</time>
</trkpt>
<trkpt lat="40.63185333333333" lon="-3.1714550000000004">
<ele>690</ele>
<time>2017-03-03T09:40:36Z</time>
</trkpt>
<trkpt lat="40.63186833333334" lon="-3.1712949999999998">
<ele>689</ele>
<time>2017-03-03T09:40:40Z</time>
</trkpt>
<trkpt lat="40.631949999999996" lon="-3.171341666666667">
<ele>689</ele>
<time>2017-03-03T09:40:44Z</time>
</trkpt>
<trkpt lat="40.63202833333333" lon="-3.1712366666666667">
<ele>690</ele>
<time>2017-03-03T09:40:48Z</time>
</trkpt>
<trkpt lat="40.63204666666666" lon="-3.1713150000000003">
<ele>690</ele>
<time>2017-03-03T09:40:52Z</time>
</trkpt>
<trkpt lat="40.63203166666666" lon="-3.1712833333333332">
<ele>688</ele>
<time>2017-03-03T09:40:56Z</time>
</trkpt>
<trkpt lat="40.63212333333333" lon="-3.17135">
<ele>685</ele>
<time>2017-03-03T09:41:00Z</time>
</trkpt>
<trkpt lat="40.632176666666666" lon="-3.1713766666666667">
<ele>682</ele>
<time>2017-03-03T09:41:04Z</time>
</trkpt>
<trkpt lat="40.63222" lon="-3.171403333333333">
<ele>679</ele>
<time>2017-03-03T09:41:08Z</time>
</trkpt>
<trkpt lat="40.632286666666666" lon="-3.1713899999999997">
<ele>678</ele>
<time>2017-03-03T09:41:12Z</time>
</trkpt>
<trkpt lat="40.632325" lon="-3.1714049999999996">
<ele>678</ele>
<time>2017-03-03T09:41:16Z</time>
</trkpt>
<trkpt lat="40.63236833333334" lon="-3.1713366666666665">
<ele>678</ele>
<time>2017-03-03T09:41:20Z</time>
</trkpt>
<trkpt lat="40.632466666666666" lon="-3.171276666666666">
<ele>679</ele>
<time>2017-03-03T09:41:24Z</time>
</trkpt>
<trkpt lat="40.63247833333333" lon="-3.171268333333333">
<ele>680</ele>
<time>2017-03-03T09:41:28Z</time>
</trkpt>
<trkpt lat="40.63247833333333" lon="-3.171268333333333">
<ele>680</ele>
<time>2017-03-03T09:41:32Z</time>
</trkpt>
<trkpt lat="40.632425" lon="-3.17112">
<ele>685</ele>
<time>2017-03-03T09:41:36Z</time>
</trkpt>
<trkpt lat="40.63240166666667" lon="-3.170913333333333">
<ele>686</ele>
<time>2017-03-03T09:41:40Z</time>
</trkpt>
<trkpt lat="40.632468333333335" lon="-3.1713549999999997">
<ele>688</ele>
<time>2017-03-03T09:41:44Z</time>
</trkpt>
<trkpt lat="40.63247666666667" lon="-3.1714566666666664">
<ele>690</ele>
<time>2017-03-03T09:41:48Z</time>
</trkpt>
<trkpt lat="40.632463333333334" lon="-3.1714866666666666">
<ele>692</ele>
<time>2017-03-03T09:41:52Z</time>
</trkpt>
<trkpt lat="40.63241" lon="-3.17163">
<ele>695</ele>
<time>2017-03-03T09:41:56Z</time>
</trkpt>
<trkpt lat="40.632375" lon="-3.171675">
<ele>697</ele>
<time>2017-03-03T09:42:00Z</time>
</trkpt>
<trkpt lat="40.63231" lon="-3.171756666666667">
<ele>699</ele>
<time>2017-03-03T09:42:04Z</time>
</trkpt>
<trkpt lat="40.63232166666667" lon="-3.17177">
<ele>700</ele>
<time>2017-03-03T09:42:08Z</time>
</trkpt>
<trkpt lat="40.63232166666667" lon="-3.17177">
<ele>700</ele>
<time>2017-03-03T09:42:12Z</time>
</trkpt>
<trkpt lat="40.63232166666667" lon="-3.17177">
<ele>700</ele>
<time>2017-03-03T09:42:16Z</time>
</trkpt>
<trkpt lat="40.63232166666667" lon="-3.17177">
<ele>700</ele>
<time>2017-03-03T09:42:20Z</time>
</trkpt>
<trkpt lat="40.63232166666667" lon="-3.17177">
<ele>700</ele>
<time>2017-03-03T09:42:24Z</time>
</trkpt>
<trkpt lat="40.63232166666667" lon="-3.17177">
<ele>700</ele>
<time>2017-03-03T09:42:28Z</time>
</trkpt>
<trkpt lat="40.63232166666667" lon="-3.17177">
<ele>700</ele>
<time>2017-03-03T09:42:32Z</time>
</trkpt>
<trkpt lat="40.63232166666667" lon="-3.17177">
<ele>700</ele>
<time>2017-03-03T09:42:36Z</time>
</trkpt>
<trkpt lat="40.632214999999995" lon="-3.171725">
<ele>707</ele>
<time>2017-03-03T09:42:40Z</time>
</trkpt>
<trkpt lat="40.632221666666666" lon="-3.1717166666666667">
<ele>707</ele>
<time>2017-03-03T09:42:44Z</time>
</trkpt>
<trkpt lat="40.63228" lon="-3.1717999999999997">
<ele>708</ele>
<time>2017-03-03T09:42:48Z</time>
</trkpt>
<trkpt lat="40.63225" lon="-3.1718566666666663">
<ele>708</ele>
<time>2017-03-03T09:42:52Z</time>
</trkpt>
<trkpt lat="40.63222333333333" lon="-3.17187">
<ele>709</ele>
<time>2017-03-03T09:42:56Z</time>
</trkpt>
<trkpt lat="40.63222333333333" lon="-3.17187">
<ele>709</ele>
<time>2017-03-03T09:43:00Z</time>
</trkpt>
<trkpt lat="40.63222333333333" lon="-3.17187">
<ele>709</ele>
<time>2017-03-03T09:43:04Z</time>
</trkpt>
<trkpt lat="40.63222333333333" lon="-3.17187">
<ele>709</ele>
<time>2017-03-03T09:43:08Z</time>
</trkpt>
<trkpt lat="40.63222333333333" lon="-3.17187">
<ele>709</ele>
<time>2017-03-03T09:43:12Z</time>
</trkpt>
<trkpt lat="40.63232" lon="-3.1718283333333335">
<ele>709</ele>
<time>2017-03-03T09:43:16Z</time>
</trkpt>
<trkpt lat="40.6322" lon="-3.1718916666666663">
<ele>709</ele>
<time>2017-03-03T09:43:22Z</time>
</trkpt>
<trkpt lat="40.63209833333334" lon="-3.1719666666666666">
<ele>709</ele>
<time>2017-03-03T09:43:26Z</time>
</trkpt>
<trkpt lat="40.632241666666665" lon="-3.1720400000000004">
<ele>709</ele>
<time>2017-03-03T09:43:30Z</time>
</trkpt>
<trkpt lat="40.63225166666667" lon="-3.1720216666666667">
<ele>709</ele>
<time>2017-03-03T09:43:34Z</time>
</trkpt>
<trkpt lat="40.63225166666667" lon="-3.1720216666666667">
<ele>709</ele>
<time>2017-03-03T09:43:38Z</time>
</trkpt>
<trkpt lat="40.63225166666667" lon="-3.1720216666666667">
<ele>709</ele>
<time>2017-03-03T09:43:42Z</time>
</trkpt>
<trkpt lat="40.63225166666667" lon="-3.1720216666666667">
<ele>709</ele>
<time>2017-03-03T09:43:46Z</time>
</trkpt>
<trkpt lat="40.632196666666665" lon="-3.1719600000000003">
<ele>709</ele>
<time>2017-03-03T09:43:50Z</time>
</trkpt>
<trkpt lat="40.63209333333334" lon="-3.172061666666666">
<ele>709</ele>
<time>2017-03-03T09:43:54Z</time>
</trkpt>
<trkpt lat="40.63211833333333" lon="-3.1721316666666666">
<ele>709</ele>
<time>2017-03-03T09:43:58Z</time>
</trkpt>
<trkpt lat="40.63211666666667" lon="-3.1721733333333333">
<ele>709</ele>
<time>2017-03-03T09:44:02Z</time>
</trkpt>
<trkpt lat="40.63211666666667" lon="-3.1721733333333333">
<ele>709</ele>
<time>2017-03-03T09:44:06Z</time>
</trkpt>
<trkpt lat="40.63211666666667" lon="-3.1721733333333333">
<ele>709</ele>
<time>2017-03-03T09:44:10Z</time>
</trkpt>
<trkpt lat="40.63211666666667" lon="-3.1721733333333333">
<ele>709</ele>
<time>2017-03-03T09:44:14Z</time>
</trkpt>
<trkpt lat="40.63211666666667" lon="-3.1721733333333333">
<ele>709</ele>
<time>2017-03-03T09:44:18Z</time>
</trkpt>
<trkpt lat="40.63211666666667" lon="-3.1721733333333333">
<ele>709</ele>
<time>2017-03-03T09:44:22Z</time>
</trkpt>
<trkpt lat="40.632025" lon="-3.172165">
<ele>709</ele>
<time>2017-03-03T09:44:26Z</time>
</trkpt>
<trkpt lat="40.63203166666666" lon="-3.1721616666666668">
<ele>709</ele>
<time>2017-03-03T09:44:30Z</time>
</trkpt>
<trkpt lat="40.632075" lon="-3.1721266666666668">
<ele>709</ele>
<time>2017-03-03T09:44:34Z</time>
</trkpt>
<trkpt lat="40.63206666666667" lon="-3.172103333333333">
<ele>709</ele>
<time>2017-03-03T09:44:38Z</time>
</trkpt>
<trkpt lat="40.63206666666667" lon="-3.172103333333333">
<ele>709</ele>
<time>2017-03-03T09:44:42Z</time>
</trkpt>
<trkpt lat="40.63206666666667" lon="-3.172103333333333">
<ele>709</ele>
<time>2017-03-03T09:44:46Z</time>
</trkpt>
<trkpt lat="40.63206666666667" lon="-3.172103333333333">
<ele>709</ele>
<time>2017-03-03T09:44:50Z</time>
</trkpt>
<trkpt lat="40.63206" lon="-3.1722266666666665">
<ele>710</ele>
<time>2017-03-03T09:44:54Z</time>
</trkpt>
<trkpt lat="40.632065" lon="-3.1722316666666672">
<ele>710</ele>
<time>2017-03-03T09:44:58Z</time>
</trkpt>
<trkpt lat="40.632065" lon="-3.1722316666666672">
<ele>710</ele>
<time>2017-03-03T09:45:02Z</time>
</trkpt>
<trkpt lat="40.632065" lon="-3.1722316666666672">
<ele>710</ele>
<time>2017-03-03T09:45:06Z</time>
</trkpt>
<trkpt lat="40.632065" lon="-3.1722316666666672">
<ele>710</ele>
<time>2017-03-03T09:45:10Z</time>
</trkpt>
<trkpt lat="40.632065" lon="-3.1722316666666672">
<ele>710</ele>
<time>2017-03-03T09:45:14Z</time>
</trkpt>
<trkpt lat="40.632065" lon="-3.1722316666666672">
<ele>710</ele>
<time>2017-03-03T09:45:18Z</time>
</trkpt>
<trkpt lat="40.632173333333334" lon="-3.1722766666666664">
<ele>710</ele>
<time>2017-03-03T09:45:22Z</time>
</trkpt>
<trkpt lat="40.632173333333334" lon="-3.1722766666666664">
<ele>710</ele>
<time>2017-03-03T09:45:26Z</time>
</trkpt>
<trkpt lat="40.632173333333334" lon="-3.1722766666666664">
<ele>710</ele>
<time>2017-03-03T09:45:30Z</time>
</trkpt>
<trkpt lat="40.632173333333334" lon="-3.1722766666666664">
<ele>710</ele>
<time>2017-03-03T09:45:34Z</time>
</trkpt>
<trkpt lat="40.632173333333334" lon="-3.1722766666666664">
<ele>710</ele>
<time>2017-03-03T09:45:38Z</time>
</trkpt>
<trkpt lat="40.632065" lon="-3.1722216666666667">
<ele>710</ele>
<time>2017-03-03T09:45:42Z</time>
</trkpt>
<trkpt lat="40.63211666666667" lon="-3.172208333333333">
<ele>710</ele>
<time>2017-03-03T09:45:46Z</time>
</trkpt>
<trkpt lat="40.63211666666667" lon="-3.172208333333333">
<ele>710</ele>
<time>2017-03-03T09:45:50Z</time>
</trkpt>
<trkpt lat="40.63211666666667" lon="-3.172208333333333">
<ele>710</ele>
<time>2017-03-03T09:45:54Z</time>
</trkpt>
<trkpt lat="40.63211666666667" lon="-3.172208333333333">
<ele>710</ele>
<time>2017-03-03T09:45:58Z</time>
</trkpt>
<trkpt lat="40.63211666666667" lon="-3.172208333333333">
<ele>710</ele>
<time>2017-03-03T09:46:02Z</time>
</trkpt>
<trkpt lat="40.63211666666667" lon="-3.172208333333333">
<ele>710</ele>
<time>2017-03-03T09:46:06Z</time>
</trkpt>
<trkpt lat="40.63217833333333" lon="-3.1723083333333335">
<ele>709</ele>
<time>2017-03-03T09:46:10Z</time>
</trkpt>
<trkpt lat="40.632214999999995" lon="-3.1723383333333337">
<ele>709</ele>
<time>2017-03-03T09:46:14Z</time>
</trkpt>
<trkpt lat="40.632214999999995" lon="-3.1723383333333337">
<ele>709</ele>
<time>2017-03-03T09:46:18Z</time>
</trkpt>
<trkpt lat="40.632214999999995" lon="-3.1723383333333337">
<ele>709</ele>
<time>2017-03-03T09:46:22Z</time>
</trkpt>
<trkpt lat="40.632068333333336" lon="-3.17237">
<ele>709</ele>
<time>2017-03-03T09:46:26Z</time>
</trkpt>
<trkpt lat="40.632068333333336" lon="-3.17237">
<ele>709</ele>
<time>2017-03-03T09:46:30Z</time>
</trkpt>
<trkpt lat="40.632068333333336" lon="-3.17237">
<ele>709</ele>
<time>2017-03-03T09:46:34Z</time>
</trkpt>
<trkpt lat="40.632068333333336" lon="-3.17237">
<ele>709</ele>
<time>2017-03-03T09:46:38Z</time>
</trkpt>
<trkpt lat="40.632068333333336" lon="-3.17237">
<ele>709</ele>
<time>2017-03-03T09:46:42Z</time>
</trkpt>
<trkpt lat="40.632068333333336" lon="-3.17237">
<ele>709</ele>
<time>2017-03-03T09:46:46Z</time>
</trkpt>
<trkpt lat="40.632041666666666" lon="-3.172236666666667">
<ele>700</ele>
<time>2017-03-03T09:46:50Z</time>
</trkpt>
<trkpt lat="40.63194333333333" lon="-3.1722783333333333">
<ele>697</ele>
<time>2017-03-03T09:46:54Z</time>
</trkpt>
<trkpt lat="40.631904999999996" lon="-3.172311666666667">
<ele>697</ele>
<time>2017-03-03T09:46:58Z</time>
</trkpt>
<trkpt lat="40.63186833333334" lon="-3.1723600000000003">
<ele>698</ele>
<time>2017-03-03T09:47:02Z</time>
</trkpt>
<trkpt lat="40.63187166666667" lon="-3.1723733333333333">
<ele>698</ele>
<time>2017-03-03T09:47:06Z</time>
</trkpt>
<trkpt lat="40.63186666666666" lon="-3.172393333333333">
<ele>698</ele>
<time>2017-03-03T09:47:10Z</time>
</trkpt>
<trkpt lat="40.63186666666666" lon="-3.172393333333333">
<ele>698</ele>
<time>2017-03-03T09:47:14Z</time>
</trkpt>
<trkpt lat="40.63186666666666" lon="-3.172393333333333">
<ele>698</ele>
<time>2017-03-03T09:47:18Z</time>
</trkpt>
<trkpt lat="40.63186666666666" lon="-3.172393333333333">
<ele>698</ele>
<time>2017-03-03T09:47:22Z</time>
</trkpt>
<trkpt lat="40.63186666666666" lon="-3.172393333333333">
<ele>698</ele>
<time>2017-03-03T09:47:26Z</time>
</trkpt>
<trkpt lat="40.63186666666666" lon="-3.172393333333333">
<ele>698</ele>
<time>2017-03-03T09:47:30Z</time>
</trkpt>
<trkpt lat="40.63186666666666" lon="-3.172393333333333">
<ele>698</ele>
<time>2017-03-03T09:47:34Z</time>
</trkpt>
<trkpt lat="40.631838333333334" lon="-3.1722550000000003">
<ele>699</ele>
<time>2017-03-03T09:47:38Z</time>
</trkpt>
<trkpt lat="40.631766666666664" lon="-3.172283333333333">
<ele>699</ele>
<time>2017-03-03T09:47:42Z</time>
</trkpt>
<trkpt lat="40.63177333333333" lon="-3.1723600000000003">
<ele>699</ele>
<time>2017-03-03T09:47:46Z</time>
</trkpt>
<trkpt lat="40.63188" lon="-3.1724416666666664">
<ele>699</ele>
<time>2017-03-03T09:47:50Z</time>
</trkpt>
<trkpt lat="40.63187333333334" lon="-3.1724683333333332">
<ele>699</ele>
<time>2017-03-03T09:47:54Z</time>
</trkpt>
<trkpt lat="40.631965" lon="-3.1725583333333334">
<ele>700</ele>
<time>2017-03-03T09:47:58Z</time>
</trkpt>
<trkpt lat="40.631996666666666" lon="-3.1726316666666663">
<ele>695</ele>
<time>2017-03-03T09:48:02Z</time>
</trkpt>
<trkpt lat="40.631996666666666" lon="-3.1726316666666663">
<ele>695</ele>
<time>2017-03-03T09:48:06Z</time>
</trkpt>
<trkpt lat="40.631996666666666" lon="-3.1726316666666663">
<ele>695</ele>
<time>2017-03-03T09:48:10Z</time>
</trkpt>
<trkpt lat="40.63189166666667" lon="-3.1725683333333334">
<ele>687</ele>
<time>2017-03-03T09:48:14Z</time>
</trkpt>
<trkpt lat="40.63188" lon="-3.1725816666666664">
<ele>686</ele>
<time>2017-03-03T09:48:18Z</time>
</trkpt>
<trkpt lat="40.631750000000004" lon="-3.1725966666666663">
<ele>687</ele>
<time>2017-03-03T09:48:22Z</time>
</trkpt>
<trkpt lat="40.63163833333333" lon="-3.1725966666666663">
<ele>688</ele>
<time>2017-03-03T09:48:26Z</time>
</trkpt>
<trkpt lat="40.63154833333333" lon="-3.172551666666666">
<ele>689</ele>
<time>2017-03-03T09:48:30Z</time>
</trkpt>
<trkpt lat="40.631515" lon="-3.1725733333333332">
<ele>690</ele>
<time>2017-03-03T09:48:34Z</time>
</trkpt>
<trkpt lat="40.63155666666667" lon="-3.1726983333333334">
<ele>691</ele>
<time>2017-03-03T09:48:38Z</time>
</trkpt>
<trkpt lat="40.631565" lon="-3.1727749999999997">
<ele>692</ele>
<time>2017-03-03T09:48:44Z</time>
</trkpt>
<trkpt lat="40.631526666666666" lon="-3.1727216666666664">
<ele>692</ele>
<time>2017-03-03T09:48:50Z</time>
</trkpt>
<trkpt lat="40.63153166666667" lon="-3.172705">
<ele>692</ele>
<time>2017-03-03T09:48:54Z</time>
</trkpt>
<trkpt lat="40.631665" lon="-3.172748333333333">
<ele>693</ele>
<time>2017-03-03T09:48:58Z</time>
</trkpt>
<trkpt lat="40.63173333333334" lon="-3.17277">
<ele>693</ele>
<time>2017-03-03T09:49:02Z</time>
</trkpt>
<trkpt lat="40.63173333333334" lon="-3.17277">
<ele>693</ele>
<time>2017-03-03T09:49:06Z</time>
</trkpt>
<trkpt lat="40.63173333333334" lon="-3.17277">
<ele>693</ele>
<time>2017-03-03T09:49:10Z</time>
</trkpt>
<trkpt lat="40.63173333333334" lon="-3.17277">
<ele>693</ele>
<time>2017-03-03T09:49:14Z</time>
</trkpt>
<trkpt lat="40.63173333333334" lon="-3.17277">
<ele>693</ele>
<time>2017-03-03T09:49:18Z</time>
</trkpt>
<trkpt lat="40.63173333333334" lon="-3.17277">
<ele>693</ele>
<time>2017-03-03T09:49:22Z</time>
</trkpt>
<trkpt lat="40.63173333333334" lon="-3.17277">
<ele>693</ele>
<time>2017-03-03T09:49:26Z</time>
</trkpt>
<trkpt lat="40.63173333333334" lon="-3.17277">
<ele>693</ele>
<time>2017-03-03T09:49:30Z</time>
</trkpt>
<trkpt lat="40.63173333333334" lon="-3.17277">
<ele>693</ele>
<time>2017-03-03T09:49:34Z</time>
</trkpt>
<trkpt lat="40.63173333333334" lon="-3.17277">
<ele>693</ele>
<time>2017-03-03T09:49:38Z</time>
</trkpt>
<trkpt lat="40.63173333333334" lon="-3.17277">
<ele>693</ele>
<time>2017-03-03T09:49:42Z</time>
</trkpt>
<trkpt lat="40.63173333333334" lon="-3.17277">
<ele>693</ele>
<time>2017-03-03T09:49:46Z</time>
</trkpt>
<trkpt lat="40.63173333333334" lon="-3.17277">
<ele>693</ele>
<time>2017-03-03T09:49:50Z</time>
</trkpt>
<trkpt lat="40.63173333333334" lon="-3.17277">
<ele>693</ele>
<time>2017-03-03T09:49:54Z</time>
</trkpt>
<trkpt lat="40.631798333333336" lon="-3.172865">
<ele>701</ele>
<time>2017-03-03T09:49:58Z</time>
</trkpt>
<trkpt lat="40.63183" lon="-3.1728766666666663">
<ele>701</ele>
<time>2017-03-03T09:50:02Z</time>
</trkpt>
<trkpt lat="40.63183" lon="-3.1728766666666663">
<ele>701</ele>
<time>2017-03-03T09:50:06Z</time>
</trkpt>
<trkpt lat="40.63183" lon="-3.1728766666666663">
<ele>701</ele>
<time>2017-03-03T09:50:10Z</time>
</trkpt>
<trkpt lat="40.63183" lon="-3.1728766666666663">
<ele>701</ele>
<time>2017-03-03T09:50:14Z</time>
</trkpt>
<trkpt lat="40.63171" lon="-3.172875">
<ele>701</ele>
<time>2017-03-03T09:50:18Z</time>
</trkpt>
<trkpt lat="40.63171" lon="-3.172875">
<ele>701</ele>
<time>2017-03-03T09:50:22Z</time>
</trkpt>
<trkpt lat="40.63171" lon="-3.172875">
<ele>701</ele>
<time>2017-03-03T09:50:26Z</time>
</trkpt>
<trkpt lat="40.63171" lon="-3.172875">
<ele>701</ele>
<time>2017-03-03T09:50:30Z</time>
</trkpt>
<trkpt lat="40.63171" lon="-3.172875">
<ele>701</ele>
<time>2017-03-03T09:50:34Z</time>
</trkpt>
<trkpt lat="40.63171" lon="-3.172875">
<ele>701</ele>
<time>2017-03-03T09:50:38Z</time>
</trkpt>
<trkpt lat="40.63176166666666" lon="-3.1729766666666666">
<ele>701</ele>
<time>2017-03-03T09:50:42Z</time>
</trkpt>
<trkpt lat="40.63172833333333" lon="-3.1729666666666665">
<ele>701</ele>
<time>2017-03-03T09:50:46Z</time>
</trkpt>
<trkpt lat="40.63172833333333" lon="-3.1729666666666665">
<ele>701</ele>
<time>2017-03-03T09:50:50Z</time>
</trkpt>
<trkpt lat="40.63172833333333" lon="-3.1729666666666665">
<ele>701</ele>
<time>2017-03-03T09:50:54Z</time>
</trkpt>
<trkpt lat="40.63172833333333" lon="-3.1729666666666665">
<ele>701</ele>
<time>2017-03-03T09:50:58Z</time>
</trkpt>
<trkpt lat="40.63172833333333" lon="-3.1729666666666665">
<ele>701</ele>
<time>2017-03-03T09:51:02Z</time>
</trkpt>
<trkpt lat="40.63172833333333" lon="-3.1729666666666665">
<ele>701</ele>
<time>2017-03-03T09:51:06Z</time>
</trkpt>
<trkpt lat="40.631665" lon="-3.173055">
<ele>703</ele>
<time>2017-03-03T09:51:10Z</time>
</trkpt>
<trkpt lat="40.631705000000004" lon="-3.173023333333333">
<ele>705</ele>
<time>2017-03-03T09:51:14Z</time>
</trkpt>
<trkpt lat="40.63162333333333" lon="-3.1730116666666666">
<ele>703</ele>
<time>2017-03-03T09:51:18Z</time>
</trkpt>
<trkpt lat="40.631605" lon="-3.17301">
<ele>703</ele>
<time>2017-03-03T09:51:22Z</time>
</trkpt>
<trkpt lat="40.631618333333336" lon="-3.1729766666666666">
<ele>704</ele>
<time>2017-03-03T09:51:26Z</time>
</trkpt>
<trkpt lat="40.631634999999996" lon="-3.1730266666666664">
<ele>705</ele>
<time>2017-03-03T09:51:30Z</time>
</trkpt>
<trkpt lat="40.63160333333334" lon="-3.173058333333334">
<ele>708</ele>
<time>2017-03-03T09:51:34Z</time>
</trkpt>
<trkpt lat="40.631595" lon="-3.1730566666666666">
<ele>708</ele>
<time>2017-03-03T09:51:38Z</time>
</trkpt>
<trkpt lat="40.631595" lon="-3.1730566666666666">
<ele>708</ele>
<time>2017-03-03T09:51:42Z</time>
</trkpt>
<trkpt lat="40.631595" lon="-3.1730566666666666">
<ele>708</ele>
<time>2017-03-03T09:51:46Z</time>
</trkpt>
<trkpt lat="40.631595" lon="-3.1730566666666666">
<ele>708</ele>
<time>2017-03-03T09:51:50Z</time>
</trkpt>
<trkpt lat="40.631595" lon="-3.1730566666666666">
<ele>708</ele>
<time>2017-03-03T09:51:54Z</time>
</trkpt>
<trkpt lat="40.631595" lon="-3.1730566666666666">
<ele>708</ele>
<time>2017-03-03T09:51:58Z</time>
</trkpt>
<trkpt lat="40.631595" lon="-3.1730566666666666">
<ele>708</ele>
<time>2017-03-03T09:52:02Z</time>
</trkpt>
<trkpt lat="40.631595" lon="-3.1730566666666666">
<ele>708</ele>
<time>2017-03-03T09:52:06Z</time>
</trkpt>
<trkpt lat="40.63168333333333" lon="-3.1730949999999996">
<ele>712</ele>
<time>2017-03-03T09:52:10Z</time>
</trkpt>
<trkpt lat="40.631655" lon="-3.1732850000000004">
<ele>712</ele>
<time>2017-03-03T09:52:14Z</time>
</trkpt>
<trkpt lat="40.631625" lon="-3.1737933333333332">
<ele>713</ele>
<time>2017-03-03T09:52:18Z</time>
</trkpt>
<trkpt lat="40.631565" lon="-3.1743150000000004">
<ele>713</ele>
<time>2017-03-03T09:52:22Z</time>
</trkpt>
<trkpt lat="40.631571666666666" lon="-3.1729833333333337">
<ele>710</ele>
<time>2017-03-03T09:52:40Z</time>
</trkpt>
<trkpt lat="40.631571666666666" lon="-3.1729833333333337">
<ele>710</ele>
<time>2017-03-03T09:52:44Z</time>
</trkpt>
<trkpt lat="40.631508333333336" lon="-3.172928333333333">
<ele>707</ele>
<time>2017-03-03T09:52:48Z</time>
</trkpt>
<trkpt lat="40.63149666666666" lon="-3.172891666666666">
<ele>698</ele>
<time>2017-03-03T09:52:52Z</time>
</trkpt>
<trkpt lat="40.63145333333333" lon="-3.1728416666666663">
<ele>698</ele>
<time>2017-03-03T09:52:56Z</time>
</trkpt>
<trkpt lat="40.63140666666666" lon="-3.1728400000000003">
<ele>698</ele>
<time>2017-03-03T09:53:00Z</time>
</trkpt>
<trkpt lat="40.631325" lon="-3.1728700000000005">
<ele>698</ele>
<time>2017-03-03T09:53:04Z</time>
</trkpt>
<trkpt lat="40.63131833333333" lon="-3.1729766666666666">
<ele>698</ele>
<time>2017-03-03T09:53:08Z</time>
</trkpt>
<trkpt lat="40.631415" lon="-3.17315">
<ele>698</ele>
<time>2017-03-03T09:53:12Z</time>
</trkpt>
<trkpt lat="40.631508333333336" lon="-3.1732616666666664">
<ele>698</ele>
<time>2017-03-03T09:53:16Z</time>
</trkpt>
<trkpt lat="40.63153" lon="-3.173305">
<ele>699</ele>
<time>2017-03-03T09:53:20Z</time>
</trkpt>
<trkpt lat="40.631525" lon="-3.173296666666667">
<ele>698</ele>
<time>2017-03-03T09:53:24Z</time>
</trkpt>
<trkpt lat="40.631525" lon="-3.173296666666667">
<ele>698</ele>
<time>2017-03-03T09:53:28Z</time>
</trkpt>
<trkpt lat="40.631525" lon="-3.173296666666667">
<ele>698</ele>
<time>2017-03-03T09:53:32Z</time>
</trkpt>
<trkpt lat="40.63153166666667" lon="-3.173215">
<ele>699</ele>
<time>2017-03-03T09:53:36Z</time>
</trkpt>
<trkpt lat="40.63154" lon="-3.1732716666666665">
<ele>700</ele>
<time>2017-03-03T09:53:40Z</time>
</trkpt>
<trkpt lat="40.63155" lon="-3.1733366666666663">
<ele>701</ele>
<time>2017-03-03T09:53:44Z</time>
</trkpt>
<trkpt lat="40.63156333333333" lon="-3.1733566666666673">
<ele>702</ele>
<time>2017-03-03T09:53:48Z</time>
</trkpt>
<trkpt lat="40.631541666666664" lon="-3.173355">
<ele>703</ele>
<time>2017-03-03T09:53:52Z</time>
</trkpt>
<trkpt lat="40.63155166666666" lon="-3.1733566666666673">
<ele>704</ele>
<time>2017-03-03T09:53:56Z</time>
</trkpt>
<trkpt lat="40.63155166666666" lon="-3.1733566666666673">
<ele>704</ele>
<time>2017-03-03T09:54:00Z</time>
</trkpt>
<trkpt lat="40.63155166666666" lon="-3.1733566666666673">
<ele>704</ele>
<time>2017-03-03T09:54:04Z</time>
</trkpt>
<trkpt lat="40.63155166666666" lon="-3.1733566666666673">
<ele>704</ele>
<time>2017-03-03T09:54:08Z</time>
</trkpt>
<trkpt lat="40.63155166666666" lon="-3.1733566666666673">
<ele>704</ele>
<time>2017-03-03T09:54:12Z</time>
</trkpt>
<trkpt lat="40.63155166666666" lon="-3.1733566666666673">
<ele>704</ele>
<time>2017-03-03T09:54:16Z</time>
</trkpt>
<trkpt lat="40.63155166666666" lon="-3.1733566666666673">
<ele>704</ele>
<time>2017-03-03T09:54:20Z</time>
</trkpt>
<trkpt lat="40.63158833333333" lon="-3.173236666666667">
<ele>707</ele>
<time>2017-03-03T09:54:24Z</time>
</trkpt>
<trkpt lat="40.63158833333333" lon="-3.173236666666667">
<ele>707</ele>
<time>2017-03-03T09:54:28Z</time>
</trkpt>
<trkpt lat="40.63158833333333" lon="-3.173236666666667">
<ele>707</ele>
<time>2017-03-03T09:54:32Z</time>
</trkpt>
<trkpt lat="40.631478333333334" lon="-3.1731800000000003">
<ele>706</ele>
<time>2017-03-03T09:54:36Z</time>
</trkpt>
<trkpt lat="40.631478333333334" lon="-3.1731800000000003">
<ele>706</ele>
<time>2017-03-03T09:54:40Z</time>
</trkpt>
<trkpt lat="40.631478333333334" lon="-3.1731800000000003">
<ele>706</ele>
<time>2017-03-03T09:54:44Z</time>
</trkpt>
<trkpt lat="40.631478333333334" lon="-3.1731800000000003">
<ele>706</ele>
<time>2017-03-03T09:54:48Z</time>
</trkpt>
<trkpt lat="40.63122166666667" lon="-3.1729816666666664">
<ele>705</ele>
<time>2017-03-03T09:54:52Z</time>
</trkpt>
<trkpt lat="40.63173" lon="-3.1729883333333335">
<ele>708</ele>
<time>2017-03-03T09:55:16Z</time>
</trkpt>
<trkpt lat="40.63171333333333" lon="-3.1731150000000006">
<ele>717</ele>
<time>2017-03-03T09:55:20Z</time>
</trkpt>
<trkpt lat="40.63171333333333" lon="-3.1731150000000006">
<ele>717</ele>
<time>2017-03-03T09:55:24Z</time>
</trkpt>
<trkpt lat="40.631695" lon="-3.1731166666666666">
<ele>702</ele>
<time>2017-03-03T09:55:28Z</time>
</trkpt>
<trkpt lat="40.631715" lon="-3.173141666666667">
<ele>701</ele>
<time>2017-03-03T09:55:32Z</time>
</trkpt>
<trkpt lat="40.631746666666665" lon="-3.1731366666666663">
<ele>701</ele>
<time>2017-03-03T09:55:36Z</time>
</trkpt>
<trkpt lat="40.63176333333333" lon="-3.17312">
<ele>701</ele>
<time>2017-03-03T09:55:40Z</time>
</trkpt>
<trkpt lat="40.63188" lon="-3.173081666666667">
<ele>700</ele>
<time>2017-03-03T09:55:44Z</time>
</trkpt>
<trkpt lat="40.63188" lon="-3.173081666666667">
<ele>700</ele>
<time>2017-03-03T09:55:48Z</time>
</trkpt>
<trkpt lat="40.63185" lon="-3.1728866666666664">
<ele>700</ele>
<time>2017-03-03T09:55:52Z</time>
</trkpt>
<trkpt lat="40.63177666666666" lon="-3.172365">
<ele>699</ele>
<time>2017-03-03T09:55:56Z</time>
</trkpt>
<trkpt lat="40.63185" lon="-3.1715883333333332">
<ele>699</ele>
<time>2017-03-03T09:56:00Z</time>
</trkpt>
<trkpt lat="40.63168833333334" lon="-3.172296666666667">
<ele>699</ele>
<time>2017-03-03T09:56:04Z</time>
</trkpt>
<trkpt lat="40.63171666666666" lon="-3.172328333333333">
<ele>707</ele>
<time>2017-03-03T09:56:08Z</time>
</trkpt>
<trkpt lat="40.631575" lon="-3.171965">
<ele>699</ele>
<time>2017-03-03T09:56:14Z</time>
</trkpt>
<trkpt lat="40.631555000000006" lon="-3.1720433333333338">
<ele>693</ele>
<time>2017-03-03T09:56:18Z</time>
</trkpt>
<trkpt lat="40.63162333333333" lon="-3.1722333333333332">
<ele>690</ele>
<time>2017-03-03T09:56:22Z</time>
</trkpt>
<trkpt lat="40.63167166666666" lon="-3.1723666666666666">
<ele>688</ele>
<time>2017-03-03T09:56:26Z</time>
</trkpt>
<trkpt lat="40.63180666666666" lon="-3.1727966666666663">
<ele>687</ele>
<time>2017-03-03T09:56:30Z</time>
</trkpt>
<trkpt lat="40.63180666666666" lon="-3.1727966666666663">
<ele>687</ele>
<time>2017-03-03T09:56:34Z</time>
</trkpt>
<trkpt lat="40.63185" lon="-3.1729066666666665">
<ele>687</ele>
<time>2017-03-03T09:56:38Z</time>
</trkpt>
<trkpt lat="40.63185333333333" lon="-3.172911666666667">
<ele>688</ele>
<time>2017-03-03T09:56:42Z</time>
</trkpt>
<trkpt lat="40.63185333333333" lon="-3.172911666666667">
<ele>688</ele>
<time>2017-03-03T09:56:46Z</time>
</trkpt>
<trkpt lat="40.63185333333333" lon="-3.172911666666667">
<ele>688</ele>
<time>2017-03-03T09:56:50Z</time>
</trkpt>
<trkpt lat="40.63185333333333" lon="-3.172911666666667">
<ele>688</ele>
<time>2017-03-03T09:56:54Z</time>
</trkpt>
<trkpt lat="40.63185333333333" lon="-3.172911666666667">
<ele>688</ele>
<time>2017-03-03T09:56:58Z</time>
</trkpt>
<trkpt lat="40.63185333333333" lon="-3.172911666666667">
<ele>688</ele>
<time>2017-03-03T09:57:02Z</time>
</trkpt>
<trkpt lat="40.63185333333333" lon="-3.172911666666667">
<ele>688</ele>
<time>2017-03-03T09:57:06Z</time>
</trkpt>
<trkpt lat="40.63184833333333" lon="-3.1730033333333334">
<ele>689</ele>
<time>2017-03-03T09:57:10Z</time>
</trkpt>
<trkpt lat="40.631945" lon="-3.1731083333333334">
<ele>690</ele>
<time>2017-03-03T09:57:14Z</time>
</trkpt>
<trkpt lat="40.63196000000001" lon="-3.173086666666667">
<ele>692</ele>
<time>2017-03-03T09:57:18Z</time>
</trkpt>
<trkpt lat="40.63202166666667" lon="-3.173126666666667">
<ele>692</ele>
<time>2017-03-03T09:57:22Z</time>
</trkpt>
<trkpt lat="40.631978333333336" lon="-3.1731166666666666">
<ele>693</ele>
<time>2017-03-03T09:57:26Z</time>
</trkpt>
<trkpt lat="40.63207666666666" lon="-3.173281666666667">
<ele>693</ele>
<time>2017-03-03T09:57:30Z</time>
</trkpt>
<trkpt lat="40.631996666666666" lon="-3.1733800000000003">
<ele>694</ele>
<time>2017-03-03T09:57:34Z</time>
</trkpt>
<trkpt lat="40.63188666666667" lon="-3.1735083333333334">
<ele>695</ele>
<time>2017-03-03T09:57:38Z</time>
</trkpt>
<trkpt lat="40.631838333333334" lon="-3.17331">
<ele>695</ele>
<time>2017-03-03T09:57:42Z</time>
</trkpt>
<trkpt lat="40.63185333333333" lon="-3.173286666666667">
<ele>696</ele>
<time>2017-03-03T09:57:46Z</time>
</trkpt>
<trkpt lat="40.63185333333333" lon="-3.173286666666667">
<ele>696</ele>
<time>2017-03-03T09:57:50Z</time>
</trkpt>
<trkpt lat="40.631745" lon="-3.173251666666667">
<ele>697</ele>
<time>2017-03-03T09:57:54Z</time>
</trkpt>
<trkpt lat="40.631478333333334" lon="-3.1727983333333336">
<ele>698</ele>
<time>2017-03-03T09:57:58Z</time>
</trkpt>
<trkpt lat="40.63126333333333" lon="-3.1724633333333334">
<ele>699</ele>
<time>2017-03-03T09:58:02Z</time>
</trkpt>
<trkpt lat="40.631411666666665" lon="-3.1727683333333334">
<ele>700</ele>
<time>2017-03-03T09:58:06Z</time>
</trkpt>
<trkpt lat="40.631433333333334" lon="-3.172755">
<ele>700</ele>
<time>2017-03-03T09:58:10Z</time>
</trkpt>
<trkpt lat="40.63168666666666" lon="-3.173073333333334">
<ele>701</ele>
<time>2017-03-03T09:58:14Z</time>
</trkpt>
<trkpt lat="40.631705000000004" lon="-3.173131666666667">
<ele>703</ele>
<time>2017-03-03T09:58:18Z</time>
</trkpt>
<trkpt lat="40.63176" lon="-3.1731533333333335">
<ele>705</ele>
<time>2017-03-03T09:58:22Z</time>
</trkpt>
<trkpt lat="40.63181833333333" lon="-3.173081666666667">
<ele>707</ele>
<time>2017-03-03T09:58:26Z</time>
</trkpt>
<trkpt lat="40.63182166666666" lon="-3.1730533333333333">
<ele>708</ele>
<time>2017-03-03T09:58:30Z</time>
</trkpt>
<trkpt lat="40.631793333333334" lon="-3.173046666666666">
<ele>709</ele>
<time>2017-03-03T09:58:34Z</time>
</trkpt>
<trkpt lat="40.63174" lon="-3.1729133333333333">
<ele>709</ele>
<time>2017-03-03T09:58:38Z</time>
</trkpt>
<trkpt lat="40.631771666666666" lon="-3.1728183333333333">
<ele>709</ele>
<time>2017-03-03T09:58:42Z</time>
</trkpt>
<trkpt lat="40.631746666666665" lon="-3.17283">
<ele>707</ele>
<time>2017-03-03T09:58:46Z</time>
</trkpt>
<trkpt lat="40.63173166666666" lon="-3.1728166666666673">
<ele>706</ele>
<time>2017-03-03T09:58:50Z</time>
</trkpt>
<trkpt lat="40.63173166666666" lon="-3.172946666666667">
<ele>705</ele>
<time>2017-03-03T09:58:54Z</time>
</trkpt>
<trkpt lat="40.63179" lon="-3.17297">
<ele>705</ele>
<time>2017-03-03T09:58:58Z</time>
</trkpt>
<trkpt lat="40.63187833333333" lon="-3.172891666666666">
<ele>704</ele>
<time>2017-03-03T09:59:02Z</time>
</trkpt>
<trkpt lat="40.63192166666667" lon="-3.1728616666666665">
<ele>704</ele>
<time>2017-03-03T09:59:06Z</time>
</trkpt>
<trkpt lat="40.63199" lon="-3.172838333333333">
<ele>704</ele>
<time>2017-03-03T09:59:10Z</time>
</trkpt>
<trkpt lat="40.632023333333336" lon="-3.1729016666666667">
<ele>704</ele>
<time>2017-03-03T09:59:14Z</time>
</trkpt>
<trkpt lat="40.63205166666667" lon="-3.1729950000000002">
<ele>704</ele>
<time>2017-03-03T09:59:18Z</time>
</trkpt>
<trkpt lat="40.63205333333334" lon="-3.1730566666666666">
<ele>704</ele>
<time>2017-03-03T09:59:22Z</time>
</trkpt>
<trkpt lat="40.63202666666667" lon="-3.173088333333333">
<ele>704</ele>
<time>2017-03-03T09:59:26Z</time>
</trkpt>
<trkpt lat="40.632" lon="-3.17301">
<ele>703</ele>
<time>2017-03-03T09:59:30Z</time>
</trkpt>
<trkpt lat="40.63198833333333" lon="-3.1728250000000005">
<ele>703</ele>
<time>2017-03-03T09:59:34Z</time>
</trkpt>
<trkpt lat="40.63204833333334" lon="-3.1727133333333333">
<ele>703</ele>
<time>2017-03-03T09:59:38Z</time>
</trkpt>
<trkpt lat="40.632205" lon="-3.172496666666667">
<ele>703</ele>
<time>2017-03-03T09:59:42Z</time>
</trkpt>
<trkpt lat="40.632235" lon="-3.1720583333333336">
<ele>703</ele>
<time>2017-03-03T09:59:46Z</time>
</trkpt>
<trkpt lat="40.63207166666667" lon="-3.1723183333333327">
<ele>703</ele>
<time>2017-03-03T09:59:50Z</time>
</trkpt>
<trkpt lat="40.63198333333333" lon="-3.172408333333333">
<ele>703</ele>
<time>2017-03-03T09:59:54Z</time>
</trkpt>
<trkpt lat="40.63186833333334" lon="-3.1722716666666666">
<ele>703</ele>
<time>2017-03-03T09:59:58Z</time>
</trkpt>
<trkpt lat="40.631825000000006" lon="-3.1722183333333334">
<ele>703</ele>
<time>2017-03-03T10:00:02Z</time>
</trkpt>
<trkpt lat="40.631631666666664" lon="-3.1722683333333332">
<ele>702</ele>
<time>2017-03-03T10:00:06Z</time>
</trkpt>
<trkpt lat="40.63160666666667" lon="-3.1723633333333328">
<ele>701</ele>
<time>2017-03-03T10:00:10Z</time>
</trkpt>
<trkpt lat="40.63169166666667" lon="-3.1721749999999997">
<ele>701</ele>
<time>2017-03-03T10:00:14Z</time>
</trkpt>
<trkpt lat="40.63182" lon="-3.172281666666667">
<ele>702</ele>
<time>2017-03-03T10:00:18Z</time>
</trkpt>
<trkpt lat="40.631855" lon="-3.172265">
<ele>703</ele>
<time>2017-03-03T10:00:22Z</time>
</trkpt>
<trkpt lat="40.63184666666667" lon="-3.1723500000000002">
<ele>704</ele>
<time>2017-03-03T10:00:26Z</time>
</trkpt>
<trkpt lat="40.63191333333334" lon="-3.17231">
<ele>705</ele>
<time>2017-03-03T10:00:30Z</time>
</trkpt>
<trkpt lat="40.63200666666667" lon="-3.1723366666666664">
<ele>707</ele>
<time>2017-03-03T10:00:34Z</time>
</trkpt>
<trkpt lat="40.632034999999995" lon="-3.172461666666666">
<ele>708</ele>
<time>2017-03-03T10:00:38Z</time>
</trkpt>
<trkpt lat="40.63205" lon="-3.17246">
<ele>710</ele>
<time>2017-03-03T10:00:42Z</time>
</trkpt>
<trkpt lat="40.63205" lon="-3.17246">
<ele>710</ele>
<time>2017-03-03T10:00:46Z</time>
</trkpt>
<trkpt lat="40.63215833333334" lon="-3.172408333333333">
<ele>713</ele>
<time>2017-03-03T10:00:50Z</time>
</trkpt>
<trkpt lat="40.63215833333334" lon="-3.17241">
<ele>713</ele>
<time>2017-03-03T10:00:54Z</time>
</trkpt>
<trkpt lat="40.63205666666667" lon="-3.172475">
<ele>713</ele>
<time>2017-03-03T10:00:58Z</time>
</trkpt>
<trkpt lat="40.63220833333333" lon="-3.172718333333333">
<ele>743</ele>
<time>2017-03-03T10:01:14Z</time>
</trkpt>
<trkpt lat="40.63220833333333" lon="-3.172718333333333">
<ele>743</ele>
<time>2017-03-03T10:01:18Z</time>
</trkpt>
<trkpt lat="40.63221166666666" lon="-3.1725899999999996">
<ele>734</ele>
<time>2017-03-03T10:01:22Z</time>
</trkpt>
<trkpt lat="40.632198333333335" lon="-3.1725683333333334">
<ele>733</ele>
<time>2017-03-03T10:01:26Z</time>
</trkpt>
<trkpt lat="40.632153333333335" lon="-3.172488333333334">
<ele>732</ele>
<time>2017-03-03T10:01:30Z</time>
</trkpt>
<trkpt lat="40.63214666666667" lon="-3.1724666666666668">
<ele>716</ele>
<time>2017-03-03T10:01:34Z</time>
</trkpt>
<trkpt lat="40.63214333333334" lon="-3.1724716666666666">
<ele>713</ele>
<time>2017-03-03T10:01:38Z</time>
</trkpt>
<trkpt lat="40.63214333333334" lon="-3.1724716666666666">
<ele>713</ele>
<time>2017-03-03T10:01:42Z</time>
</trkpt>
<trkpt lat="40.63214333333334" lon="-3.1724716666666666">
<ele>713</ele>
<time>2017-03-03T10:01:46Z</time>
</trkpt>
<trkpt lat="40.63214333333334" lon="-3.1724716666666666">
<ele>713</ele>
<time>2017-03-03T10:01:50Z</time>
</trkpt>
<trkpt lat="40.63214333333334" lon="-3.1724716666666666">
<ele>713</ele>
<time>2017-03-03T10:01:54Z</time>
</trkpt>
<trkpt lat="40.632185" lon="-3.1723383333333337">
<ele>704</ele>
<time>2017-03-03T10:02:18Z</time>
</trkpt>
<trkpt lat="40.63218333333334" lon="-3.1724666666666668">
<ele>704</ele>
<time>2017-03-03T10:02:22Z</time>
</trkpt>
<trkpt lat="40.632218333333334" lon="-3.1724633333333334">
<ele>704</ele>
<time>2017-03-03T10:02:26Z</time>
</trkpt>
<trkpt lat="40.63228166666667" lon="-3.1723516666666662">
<ele>704</ele>
<time>2017-03-03T10:02:30Z</time>
</trkpt>
<trkpt lat="40.632285" lon="-3.1723516666666662">
<ele>703</ele>
<time>2017-03-03T10:02:34Z</time>
</trkpt>
<trkpt lat="40.63223" lon="-3.17241">
<ele>703</ele>
<time>2017-03-03T10:02:38Z</time>
</trkpt>
<trkpt lat="40.632275" lon="-3.172408333333333">
<ele>704</ele>
<time>2017-03-03T10:02:42Z</time>
</trkpt>
<trkpt lat="40.632275" lon="-3.172408333333333">
<ele>704</ele>
<time>2017-03-03T10:02:46Z</time>
</trkpt>
<trkpt lat="40.632275" lon="-3.172408333333333">
<ele>704</ele>
<time>2017-03-03T10:02:50Z</time>
</trkpt>
<trkpt lat="40.632275" lon="-3.172408333333333">
<ele>704</ele>
<time>2017-03-03T10:02:54Z</time>
</trkpt>
<trkpt lat="40.632275" lon="-3.172408333333333">
<ele>704</ele>
<time>2017-03-03T10:02:58Z</time>
</trkpt>
<trkpt lat="40.632275" lon="-3.172408333333333">
<ele>704</ele>
<time>2017-03-03T10:03:02Z</time>
</trkpt>
<trkpt lat="40.632275" lon="-3.172408333333333">
<ele>704</ele>
<time>2017-03-03T10:03:06Z</time>
</trkpt>
<trkpt lat="40.632275" lon="-3.172408333333333">
<ele>704</ele>
<time>2017-03-03T10:03:10Z</time>
</trkpt>
<trkpt lat="40.632275" lon="-3.172408333333333">
<ele>704</ele>
<time>2017-03-03T10:03:14Z</time>
</trkpt>
<trkpt lat="40.632275" lon="-3.172408333333333">
<ele>704</ele>
<time>2017-03-03T10:03:18Z</time>
</trkpt>
<trkpt lat="40.63218833333334" lon="-3.1724483333333335">
<ele>704</ele>
<time>2017-03-03T10:03:22Z</time>
</trkpt>
<trkpt lat="40.632196666666665" lon="-3.172446666666666">
<ele>704</ele>
<time>2017-03-03T10:03:26Z</time>
</trkpt>
<trkpt lat="40.632196666666665" lon="-3.172446666666666">
<ele>704</ele>
<time>2017-03-03T10:03:30Z</time>
</trkpt>
<trkpt lat="40.632295" lon="-3.1723183333333327">
<ele>704</ele>
<time>2017-03-03T10:03:34Z</time>
</trkpt>
<trkpt lat="40.632286666666666" lon="-3.1722183333333334">
<ele>704</ele>
<time>2017-03-03T10:03:38Z</time>
</trkpt>
<trkpt lat="40.632311666666666" lon="-3.172188333333333">
<ele>704</ele>
<time>2017-03-03T10:03:42Z</time>
</trkpt>
<trkpt lat="40.632535" lon="-3.1721366666666664">
<ele>704</ele>
<time>2017-03-03T10:03:46Z</time>
</trkpt>
<trkpt lat="40.63272" lon="-3.172163333333333">
<ele>703</ele>
<time>2017-03-03T10:03:50Z</time>
</trkpt>
<trkpt lat="40.63274833333333" lon="-3.1720416666666664">
<ele>702</ele>
<time>2017-03-03T10:03:54Z</time>
</trkpt>
<trkpt lat="40.632725" lon="-3.171898333333333">
<ele>702</ele>
<time>2017-03-03T10:03:58Z</time>
</trkpt>
<trkpt lat="40.63263333333334" lon="-3.171785">
<ele>701</ele>
<time>2017-03-03T10:04:02Z</time>
</trkpt>
<trkpt lat="40.632585" lon="-3.17187">
<ele>700</ele>
<time>2017-03-03T10:04:06Z</time>
</trkpt>
<trkpt lat="40.63257333333333" lon="-3.1717366666666664">
<ele>699</ele>
<time>2017-03-03T10:04:10Z</time>
</trkpt>
<trkpt lat="40.63279333333333" lon="-3.1712583333333337">
<ele>699</ele>
<time>2017-03-03T10:04:14Z</time>
</trkpt>
<trkpt lat="40.632775" lon="-3.1712866666666666">
<ele>698</ele>
<time>2017-03-03T10:04:18Z</time>
</trkpt>
<trkpt lat="40.63276833333334" lon="-3.1713183333333337">
<ele>697</ele>
<time>2017-03-03T10:04:22Z</time>
</trkpt>
<trkpt lat="40.632398333333335" lon="-3.172425">
<ele>702</ele>
<time>2017-03-03T10:04:46Z</time>
</trkpt>
<trkpt lat="40.63231833333334" lon="-3.172528333333333">
<ele>702</ele>
<time>2017-03-03T10:04:50Z</time>
</trkpt>
<trkpt lat="40.63222833333334" lon="-3.1726583333333336">
<ele>703</ele>
<time>2017-03-03T10:04:54Z</time>
</trkpt>
<trkpt lat="40.63222666666666" lon="-3.1727016666666668">
<ele>703</ele>
<time>2017-03-03T10:04:58Z</time>
</trkpt>
<trkpt lat="40.63225333333333" lon="-3.172801666666667">
<ele>703</ele>
<time>2017-03-03T10:05:02Z</time>
</trkpt>
<trkpt lat="40.632255" lon="-3.172763333333333">
<ele>703</ele>
<time>2017-03-03T10:05:06Z</time>
</trkpt>
<trkpt lat="40.63222833333334" lon="-3.1727366666666663">
<ele>704</ele>
<time>2017-03-03T10:05:10Z</time>
</trkpt>
<trkpt lat="40.632218333333334" lon="-3.172651666666667">
<ele>704</ele>
<time>2017-03-03T10:05:14Z</time>
</trkpt>
<trkpt lat="40.632266666666666" lon="-3.1723950000000003">
<ele>704</ele>
<time>2017-03-03T10:05:18Z</time>
</trkpt>
<trkpt lat="40.63236333333334" lon="-3.1720766666666664">
<ele>704</ele>
<time>2017-03-03T10:05:22Z</time>
</trkpt>
<trkpt lat="40.632378333333335" lon="-3.1719600000000003">
<ele>705</ele>
<time>2017-03-03T10:05:26Z</time>
</trkpt>
<trkpt lat="40.632385" lon="-3.1719683333333335">
<ele>705</ele>
<time>2017-03-03T10:05:30Z</time>
</trkpt>
<trkpt lat="40.632435" lon="-3.171843333333334">
<ele>705</ele>
<time>2017-03-03T10:05:34Z</time>
</trkpt>
<trkpt lat="40.63240833333334" lon="-3.171765">
<ele>695</ele>
<time>2017-03-03T10:06:08Z</time>
</trkpt>
<trkpt lat="40.63240833333334" lon="-3.171765">
<ele>695</ele>
<time>2017-03-03T10:06:12Z</time>
</trkpt>
<trkpt lat="40.63240833333334" lon="-3.171765">
<ele>695</ele>
<time>2017-03-03T10:06:16Z</time>
</trkpt>
<trkpt lat="40.63250166666667" lon="-3.1718583333333337">
<ele>704</ele>
<time>2017-03-03T10:06:20Z</time>
</trkpt>
<trkpt lat="40.63250166666667" lon="-3.1718583333333337">
<ele>704</ele>
<time>2017-03-03T10:06:24Z</time>
</trkpt>
<trkpt lat="40.63250166666667" lon="-3.1718583333333337">
<ele>704</ele>
<time>2017-03-03T10:06:28Z</time>
</trkpt>
<trkpt lat="40.63250166666667" lon="-3.1718583333333337">
<ele>704</ele>
<time>2017-03-03T10:06:32Z</time>
</trkpt>
<trkpt lat="40.63250166666667" lon="-3.1718583333333337">
<ele>704</ele>
<time>2017-03-03T10:06:36Z</time>
</trkpt>
<trkpt lat="40.63248166666666" lon="-3.1719316666666666">
<ele>704</ele>
<time>2017-03-03T10:06:40Z</time>
</trkpt>
<trkpt lat="40.63240666666666" lon="-3.1718866666666665">
<ele>704</ele>
<time>2017-03-03T10:06:46Z</time>
</trkpt>
<trkpt lat="40.63236833333334" lon="-3.1719283333333332">
<ele>703</ele>
<time>2017-03-03T10:06:50Z</time>
</trkpt>
<trkpt lat="40.63260666666667" lon="-3.1722183333333334">
<ele>704</ele>
<time>2017-03-03T10:08:32Z</time>
</trkpt>
<trkpt lat="40.63260666666667" lon="-3.1722183333333334">
<ele>704</ele>
<time>2017-03-03T10:08:36Z</time>
</trkpt>
<trkpt lat="40.63260666666667" lon="-3.1722183333333334">
<ele>704</ele>
<time>2017-03-03T10:08:40Z</time>
</trkpt>
<trkpt lat="40.63260666666667" lon="-3.1722183333333334">
<ele>704</ele>
<time>2017-03-03T10:08:44Z</time>
</trkpt>
<trkpt lat="40.632643333333334" lon="-3.1721816666666665">
<ele>703</ele>
<time>2017-03-03T10:08:48Z</time>
</trkpt>
<trkpt lat="40.63267666666666" lon="-3.1722183333333334">
<ele>703</ele>
<time>2017-03-03T10:08:52Z</time>
</trkpt>
<trkpt lat="40.63268" lon="-3.17222">
<ele>703</ele>
<time>2017-03-03T10:08:56Z</time>
</trkpt>
<trkpt lat="40.63268" lon="-3.17222">
<ele>703</ele>
<time>2017-03-03T10:09:00Z</time>
</trkpt>
<trkpt lat="40.632690000000004" lon="-3.1722033333333335">
<ele>695</ele>
<time>2017-03-03T10:09:04Z</time>
</trkpt>
<trkpt lat="40.632646666666666" lon="-3.17223">
<ele>692</ele>
<time>2017-03-03T10:09:08Z</time>
</trkpt>
<trkpt lat="40.63261166666667" lon="-3.172288333333334">
<ele>692</ele>
<time>2017-03-03T10:09:12Z</time>
</trkpt>
<trkpt lat="40.632585" lon="-3.172315">
<ele>692</ele>
<time>2017-03-03T10:09:16Z</time>
</trkpt>
<trkpt lat="40.632585" lon="-3.172315">
<ele>692</ele>
<time>2017-03-03T10:09:20Z</time>
</trkpt>
<trkpt lat="40.63254166666666" lon="-3.1724266666666665">
<ele>694</ele>
<time>2017-03-03T10:09:24Z</time>
</trkpt>
<trkpt lat="40.63252833333333" lon="-3.172425">
<ele>694</ele>
<time>2017-03-03T10:09:28Z</time>
</trkpt>
<trkpt lat="40.63252833333333" lon="-3.172425">
<ele>694</ele>
<time>2017-03-03T10:09:32Z</time>
</trkpt>
<trkpt lat="40.63244666666667" lon="-3.172333333333333">
<ele>696</ele>
<time>2017-03-03T10:09:36Z</time>
</trkpt>
<trkpt lat="40.63240666666666" lon="-3.172298333333333">
<ele>697</ele>
<time>2017-03-03T10:09:40Z</time>
</trkpt>
<trkpt lat="40.632396666666665" lon="-3.1723899999999996">
<ele>698</ele>
<time>2017-03-03T10:09:44Z</time>
</trkpt>
<trkpt lat="40.63260666666667" lon="-3.1728316666666663">
<ele>698</ele>
<time>2017-03-03T10:09:48Z</time>
</trkpt>
<trkpt lat="40.63276333333333" lon="-3.173171666666667">
<ele>699</ele>
<time>2017-03-03T10:09:52Z</time>
</trkpt>
<trkpt lat="40.632978333333334" lon="-3.17346">
<ele>700</ele>
<time>2017-03-03T10:09:56Z</time>
</trkpt>
<trkpt lat="40.632978333333334" lon="-3.1734799999999996">
<ele>704</ele>
<time>2017-03-03T10:10:00Z</time>
</trkpt>
<trkpt lat="40.63298833333333" lon="-3.1734433333333336">
<ele>706</ele>
<time>2017-03-03T10:10:04Z</time>
</trkpt>
<trkpt lat="40.63299666666667" lon="-3.173445">
<ele>707</ele>
<time>2017-03-03T10:10:08Z</time>
</trkpt>
<trkpt lat="40.63299666666667" lon="-3.173445">
<ele>707</ele>
<time>2017-03-03T10:10:12Z</time>
</trkpt>
<trkpt lat="40.63299666666667" lon="-3.173445">
<ele>707</ele>
<time>2017-03-03T10:10:16Z</time>
</trkpt>
<trkpt lat="40.63299666666667" lon="-3.173445">
<ele>707</ele>
<time>2017-03-03T10:10:20Z</time>
</trkpt>
<trkpt lat="40.63299666666667" lon="-3.173445">
<ele>707</ele>
<time>2017-03-03T10:10:24Z</time>
</trkpt>
<trkpt lat="40.63299666666667" lon="-3.173445">
<ele>707</ele>
<time>2017-03-03T10:10:28Z</time>
</trkpt>
<trkpt lat="40.63299666666667" lon="-3.173445">
<ele>707</ele>
<time>2017-03-03T10:10:32Z</time>
</trkpt>
<trkpt lat="40.63299666666667" lon="-3.173445">
<ele>707</ele>
<time>2017-03-03T10:10:36Z</time>
</trkpt>
<trkpt lat="40.63299666666667" lon="-3.173445">
<ele>707</ele>
<time>2017-03-03T10:10:40Z</time>
</trkpt>
<trkpt lat="40.63296833333333" lon="-3.1734616666666664">
<ele>708</ele>
<time>2017-03-03T10:10:44Z</time>
</trkpt>
<trkpt lat="40.63316666666666" lon="-3.1738550000000005">
<ele>706</ele>
<time>2017-03-03T10:10:48Z</time>
</trkpt>
<trkpt lat="40.633320000000005" lon="-3.1740850000000003">
<ele>707</ele>
<time>2017-03-03T10:10:52Z</time>
</trkpt>
<trkpt lat="40.63337" lon="-3.1741449999999998">
<ele>709</ele>
<time>2017-03-03T10:10:56Z</time>
</trkpt>
<trkpt lat="40.63337333333333" lon="-3.174135">
<ele>710</ele>
<time>2017-03-03T10:11:00Z</time>
</trkpt>
<trkpt lat="40.633381666666665" lon="-3.174113333333333">
<ele>710</ele>
<time>2017-03-03T10:11:04Z</time>
</trkpt>
<trkpt lat="40.63337333333333" lon="-3.1740850000000003">
<ele>711</ele>
<time>2017-03-03T10:11:08Z</time>
</trkpt>
<trkpt lat="40.63337166666667" lon="-3.1740883333333327">
<ele>712</ele>
<time>2017-03-03T10:11:12Z</time>
</trkpt>
<trkpt lat="40.63337166666667" lon="-3.1740883333333327">
<ele>712</ele>
<time>2017-03-03T10:11:16Z</time>
</trkpt>
<trkpt lat="40.63337166666667" lon="-3.1740883333333327">
<ele>712</ele>
<time>2017-03-03T10:11:20Z</time>
</trkpt>
<trkpt lat="40.63337166666667" lon="-3.1740883333333327">
<ele>712</ele>
<time>2017-03-03T10:11:24Z</time>
</trkpt>
<trkpt lat="40.63337166666667" lon="-3.1740883333333327">
<ele>712</ele>
<time>2017-03-03T10:11:28Z</time>
</trkpt>
<trkpt lat="40.63337166666667" lon="-3.1740883333333327">
<ele>712</ele>
<time>2017-03-03T10:11:32Z</time>
</trkpt>
<trkpt lat="40.63331" lon="-3.1739299999999995">
<ele>716</ele>
<time>2017-03-03T10:11:36Z</time>
</trkpt>
<trkpt lat="40.633296666666666" lon="-3.1739283333333335">
<ele>717</ele>
<time>2017-03-03T10:11:40Z</time>
</trkpt>
<trkpt lat="40.63325" lon="-3.173935">
<ele>717</ele>
<time>2017-03-03T10:11:44Z</time>
</trkpt>
<trkpt lat="40.6332" lon="-3.173948333333333">
<ele>717</ele>
<time>2017-03-03T10:11:48Z</time>
</trkpt>
<trkpt lat="40.633155" lon="-3.1739366666666666">
<ele>717</ele>
<time>2017-03-03T10:11:52Z</time>
</trkpt>
<trkpt lat="40.63294" lon="-3.1737200000000003">
<ele>717</ele>
<time>2017-03-03T10:11:56Z</time>
</trkpt>
<trkpt lat="40.63277333333333" lon="-3.1735816666666663">
<ele>717</ele>
<time>2017-03-03T10:12:00Z</time>
</trkpt>
<trkpt lat="40.63269833333333" lon="-3.1735666666666664">
<ele>717</ele>
<time>2017-03-03T10:12:04Z</time>
</trkpt>
<trkpt lat="40.63264166666667" lon="-3.1736266666666664">
<ele>717</ele>
<time>2017-03-03T10:12:08Z</time>
</trkpt>
<trkpt lat="40.63256166666667" lon="-3.17366">
<ele>717</ele>
<time>2017-03-03T10:12:12Z</time>
</trkpt>
<trkpt lat="40.63252" lon="-3.1736866666666668">
<ele>717</ele>
<time>2017-03-03T10:12:16Z</time>
</trkpt>
<trkpt lat="40.63251" lon="-3.1736933333333335">
<ele>716</ele>
<time>2017-03-03T10:12:20Z</time>
</trkpt>
<trkpt lat="40.632525" lon="-3.173681666666667">
<ele>716</ele>
<time>2017-03-03T10:12:24Z</time>
</trkpt>
<trkpt lat="40.63247" lon="-3.1735583333333333">
<ele>715</ele>
<time>2017-03-03T10:12:28Z</time>
</trkpt>
<trkpt lat="40.63241333333334" lon="-3.1734416666666667">
<ele>714</ele>
<time>2017-03-03T10:12:32Z</time>
</trkpt>
<trkpt lat="40.63240666666666" lon="-3.1734333333333336">
<ele>714</ele>
<time>2017-03-03T10:12:36Z</time>
</trkpt>
<trkpt lat="40.63232666666667" lon="-3.173266666666667">
<ele>714</ele>
<time>2017-03-03T10:12:40Z</time>
</trkpt>
<trkpt lat="40.63223666666667" lon="-3.1731066666666665">
<ele>714</ele>
<time>2017-03-03T10:12:44Z</time>
</trkpt>
<trkpt lat="40.63220833333333" lon="-3.1730483333333335">
<ele>714</ele>
<time>2017-03-03T10:12:48Z</time>
</trkpt>
<trkpt lat="40.632153333333335" lon="-3.1729366666666663">
<ele>714</ele>
<time>2017-03-03T10:12:52Z</time>
</trkpt>
<trkpt lat="40.63211833333333" lon="-3.1728766666666663">
<ele>714</ele>
<time>2017-03-03T10:12:56Z</time>
</trkpt>
<trkpt lat="40.63211833333333" lon="-3.1728766666666663">
<ele>714</ele>
<time>2017-03-03T10:13:00Z</time>
</trkpt>
<trkpt lat="40.63211833333333" lon="-3.1728766666666663">
<ele>714</ele>
<time>2017-03-03T10:13:04Z</time>
</trkpt>
<trkpt lat="40.63211833333333" lon="-3.1728766666666663">
<ele>714</ele>
<time>2017-03-03T10:13:08Z</time>
</trkpt>
<trkpt lat="40.63211833333333" lon="-3.1728766666666663">
<ele>714</ele>
<time>2017-03-03T10:13:12Z</time>
</trkpt>
<trkpt lat="40.63211833333333" lon="-3.1728766666666663">
<ele>714</ele>
<time>2017-03-03T10:13:16Z</time>
</trkpt>
<trkpt lat="40.63211833333333" lon="-3.1728766666666663">
<ele>714</ele>
<time>2017-03-03T10:13:20Z</time>
</trkpt>
<trkpt lat="40.63211833333333" lon="-3.1728766666666663">
<ele>714</ele>
<time>2017-03-03T10:13:24Z</time>
</trkpt>
<trkpt lat="40.63211833333333" lon="-3.1728766666666663">
<ele>714</ele>
<time>2017-03-03T10:13:28Z</time>
</trkpt>
<trkpt lat="40.63211833333333" lon="-3.1728766666666663">
<ele>714</ele>
<time>2017-03-03T10:13:32Z</time>
</trkpt>
<trkpt lat="40.63211833333333" lon="-3.1728766666666663">
<ele>714</ele>
<time>2017-03-03T10:13:36Z</time>
</trkpt>
<trkpt lat="40.632079999999995" lon="-3.172763333333333">
<ele>710</ele>
<time>2017-03-03T10:13:40Z</time>
</trkpt>
<trkpt lat="40.632081666666664" lon="-3.1727616666666667">
<ele>710</ele>
<time>2017-03-03T10:13:44Z</time>
</trkpt>
<trkpt lat="40.632081666666664" lon="-3.1727616666666667">
<ele>710</ele>
<time>2017-03-03T10:13:48Z</time>
</trkpt>
<trkpt lat="40.632081666666664" lon="-3.1727616666666667">
<ele>710</ele>
<time>2017-03-03T10:13:52Z</time>
</trkpt>
<trkpt lat="40.632081666666664" lon="-3.1727616666666667">
<ele>710</ele>
<time>2017-03-03T10:13:56Z</time>
</trkpt>
<trkpt lat="40.632081666666664" lon="-3.1727616666666667">
<ele>710</ele>
<time>2017-03-03T10:14:00Z</time>
</trkpt>
<trkpt lat="40.63209666666667" lon="-3.1726583333333336">
<ele>710</ele>
<time>2017-03-03T10:14:04Z</time>
</trkpt>
<trkpt lat="40.63209166666666" lon="-3.172661666666666">
<ele>710</ele>
<time>2017-03-03T10:14:08Z</time>
</trkpt>
<trkpt lat="40.63209166666666" lon="-3.172661666666666">
<ele>710</ele>
<time>2017-03-03T10:14:12Z</time>
</trkpt>
<trkpt lat="40.63209166666666" lon="-3.172661666666666">
<ele>710</ele>
<time>2017-03-03T10:14:16Z</time>
</trkpt>
<trkpt lat="40.63202166666667" lon="-3.1727966666666663">
<ele>709</ele>
<time>2017-03-03T10:14:20Z</time>
</trkpt>
<trkpt lat="40.631996666666666" lon="-3.172888333333333">
<ele>709</ele>
<time>2017-03-03T10:14:24Z</time>
</trkpt>
<trkpt lat="40.63196333333334" lon="-3.17297">
<ele>709</ele>
<time>2017-03-03T10:14:28Z</time>
</trkpt>
<trkpt lat="40.63192" lon="-3.1730633333333333">
<ele>709</ele>
<time>2017-03-03T10:14:32Z</time>
</trkpt>
<trkpt lat="40.631904999999996" lon="-3.1731249999999998">
<ele>708</ele>
<time>2017-03-03T10:14:36Z</time>
</trkpt>
<trkpt lat="40.631904999999996" lon="-3.1731249999999998">
<ele>708</ele>
<time>2017-03-03T10:14:40Z</time>
</trkpt>
<trkpt lat="40.631855" lon="-3.1732433333333336">
<ele>708</ele>
<time>2017-03-03T10:14:44Z</time>
</trkpt>
<trkpt lat="40.63189666666666" lon="-3.173236666666667">
<ele>707</ele>
<time>2017-03-03T10:14:48Z</time>
</trkpt>
<trkpt lat="40.63192333333333" lon="-3.1732266666666664">
<ele>707</ele>
<time>2017-03-03T10:14:52Z</time>
</trkpt>
<trkpt lat="40.631901666666664" lon="-3.1733366666666663">
<ele>708</ele>
<time>2017-03-03T10:14:56Z</time>
</trkpt>
<trkpt lat="40.631845" lon="-3.17334">
<ele>709</ele>
<time>2017-03-03T10:15:00Z</time>
</trkpt>
<trkpt lat="40.631838333333334" lon="-3.173378333333333">
<ele>710</ele>
<time>2017-03-03T10:15:04Z</time>
</trkpt>
<trkpt lat="40.63183166666667" lon="-3.1734250000000004">
<ele>711</ele>
<time>2017-03-03T10:15:08Z</time>
</trkpt>
<trkpt lat="40.631926666666665" lon="-3.173586666666667">
<ele>712</ele>
<time>2017-03-03T10:15:12Z</time>
</trkpt>
<trkpt lat="40.63193666666667" lon="-3.17365">
<ele>713</ele>
<time>2017-03-03T10:15:16Z</time>
</trkpt>
<trkpt lat="40.631946666666664" lon="-3.1737066666666665">
<ele>713</ele>
<time>2017-03-03T10:15:20Z</time>
</trkpt>
<trkpt lat="40.63199833333333" lon="-3.1737650000000004">
<ele>714</ele>
<time>2017-03-03T10:15:24Z</time>
</trkpt>
<trkpt lat="40.63200833333334" lon="-3.173786666666667">
<ele>716</ele>
<time>2017-03-03T10:15:28Z</time>
</trkpt>
<trkpt lat="40.63201" lon="-3.1738116666666665">
<ele>716</ele>
<time>2017-03-03T10:15:32Z</time>
</trkpt>
<trkpt lat="40.63201" lon="-3.1738116666666665">
<ele>716</ele>
<time>2017-03-03T10:15:36Z</time>
</trkpt>
<trkpt lat="40.63201" lon="-3.1738116666666665">
<ele>716</ele>
<time>2017-03-03T10:15:40Z</time>
</trkpt>
<trkpt lat="40.63201" lon="-3.1738116666666665">
<ele>716</ele>
<time>2017-03-03T10:15:44Z</time>
</trkpt>
<trkpt lat="40.631978333333336" lon="-3.1738883333333328">
<ele>720</ele>
<time>2017-03-03T10:15:48Z</time>
</trkpt>
<trkpt lat="40.631978333333336" lon="-3.1738883333333328">
<ele>720</ele>
<time>2017-03-03T10:15:52Z</time>
</trkpt>
<trkpt lat="40.631978333333336" lon="-3.1738883333333328">
<ele>720</ele>
<time>2017-03-03T10:15:56Z</time>
</trkpt>
<trkpt lat="40.631978333333336" lon="-3.1738883333333328">
<ele>720</ele>
<time>2017-03-03T10:16:00Z</time>
</trkpt>
<trkpt lat="40.631978333333336" lon="-3.1738883333333328">
<ele>720</ele>
<time>2017-03-03T10:16:04Z</time>
</trkpt>
<trkpt lat="40.631978333333336" lon="-3.1738883333333328">
<ele>720</ele>
<time>2017-03-03T10:16:08Z</time>
</trkpt>
<trkpt lat="40.631978333333336" lon="-3.1738883333333328">
<ele>720</ele>
<time>2017-03-03T10:16:12Z</time>
</trkpt>
<trkpt lat="40.631978333333336" lon="-3.1738883333333328">
<ele>720</ele>
<time>2017-03-03T10:16:16Z</time>
</trkpt>
<trkpt lat="40.631978333333336" lon="-3.1738883333333328">
<ele>720</ele>
<time>2017-03-03T10:16:20Z</time>
</trkpt>
<trkpt lat="40.631978333333336" lon="-3.1738883333333328">
<ele>720</ele>
<time>2017-03-03T10:16:24Z</time>
</trkpt>
<trkpt lat="40.631978333333336" lon="-3.1738883333333328">
<ele>720</ele>
<time>2017-03-03T10:16:28Z</time>
</trkpt>
<trkpt lat="40.63205666666667" lon="-3.17395">
<ele>717</ele>
<time>2017-03-03T10:16:32Z</time>
</trkpt>
<trkpt lat="40.63205" lon="-3.1739383333333335">
<ele>717</ele>
<time>2017-03-03T10:16:36Z</time>
</trkpt>
<trkpt lat="40.63205" lon="-3.1739383333333335">
<ele>717</ele>
<time>2017-03-03T10:16:40Z</time>
</trkpt>
<trkpt lat="40.63205" lon="-3.1739383333333335">
<ele>717</ele>
<time>2017-03-03T10:16:44Z</time>
</trkpt>
<trkpt lat="40.631991666666664" lon="-3.173963333333333">
<ele>716</ele>
<time>2017-03-03T10:16:48Z</time>
</trkpt>
<trkpt lat="40.632068333333336" lon="-3.1739966666666666">
<ele>715</ele>
<time>2017-03-03T10:16:52Z</time>
</trkpt>
<trkpt lat="40.632068333333336" lon="-3.1739966666666666">
<ele>715</ele>
<time>2017-03-03T10:16:56Z</time>
</trkpt>
<trkpt lat="40.63209" lon="-3.1735933333333333">
<ele>713</ele>
<time>2017-03-03T10:17:00Z</time>
</trkpt>
<trkpt lat="40.63204333333333" lon="-3.1734716666666665">
<ele>717</ele>
<time>2017-03-03T10:17:04Z</time>
</trkpt>
<trkpt lat="40.63202166666667" lon="-3.173213333333334">
<ele>719</ele>
<time>2017-03-03T10:17:08Z</time>
</trkpt>
<trkpt lat="40.632055" lon="-3.1731083333333334">
<ele>719</ele>
<time>2017-03-03T10:17:12Z</time>
</trkpt>
<trkpt lat="40.63207666666666" lon="-3.1730700000000005">
<ele>718</ele>
<time>2017-03-03T10:17:16Z</time>
</trkpt>
<trkpt lat="40.63206" lon="-3.173096666666667">
<ele>717</ele>
<time>2017-03-03T10:17:20Z</time>
</trkpt>
<trkpt lat="40.63205666666667" lon="-3.1732033333333334">
<ele>716</ele>
<time>2017-03-03T10:17:24Z</time>
</trkpt>
<trkpt lat="40.63204833333334" lon="-3.173265">
<ele>716</ele>
<time>2017-03-03T10:17:28Z</time>
</trkpt>
<trkpt lat="40.632039999999996" lon="-3.1732983333333333">
<ele>716</ele>
<time>2017-03-03T10:17:32Z</time>
</trkpt>
<trkpt lat="40.63207166666667" lon="-3.173391666666667">
<ele>716</ele>
<time>2017-03-03T10:17:36Z</time>
</trkpt>
<trkpt lat="40.632106666666665" lon="-3.17345">
<ele>716</ele>
<time>2017-03-03T10:17:40Z</time>
</trkpt>
<trkpt lat="40.63211833333333" lon="-3.173503333333333">
<ele>716</ele>
<time>2017-03-03T10:17:44Z</time>
</trkpt>
<trkpt lat="40.632115" lon="-3.173528333333333">
<ele>717</ele>
<time>2017-03-03T10:17:48Z</time>
</trkpt>
<trkpt lat="40.63211" lon="-3.1737583333333332">
<ele>717</ele>
<time>2017-03-03T10:17:52Z</time>
</trkpt>
<trkpt lat="40.63211" lon="-3.1737583333333332">
<ele>717</ele>
<time>2017-03-03T10:17:56Z</time>
</trkpt>
<trkpt lat="40.63213666666666" lon="-3.1735166666666665">
<ele>718</ele>
<time>2017-03-03T10:18:00Z</time>
</trkpt>
<trkpt lat="40.63216333333333" lon="-3.1735300000000004">
<ele>718</ele>
<time>2017-03-03T10:18:04Z</time>
</trkpt>
<trkpt lat="40.632113333333336" lon="-3.1734333333333336">
<ele>718</ele>
<time>2017-03-03T10:18:08Z</time>
</trkpt>
<trkpt lat="40.632106666666665" lon="-3.173395">
<ele>719</ele>
<time>2017-03-03T10:18:12Z</time>
</trkpt>
<trkpt lat="40.63212333333333" lon="-3.1733233333333337">
<ele>719</ele>
<time>2017-03-03T10:18:16Z</time>
</trkpt>
<trkpt lat="40.632106666666665" lon="-3.17329">
<ele>720</ele>
<time>2017-03-03T10:18:20Z</time>
</trkpt>
<trkpt lat="40.632045" lon="-3.1732483333333334">
<ele>721</ele>
<time>2017-03-03T10:18:24Z</time>
</trkpt>
<trkpt lat="40.63203333333333" lon="-3.1732566666666666">
<ele>721</ele>
<time>2017-03-03T10:18:28Z</time>
</trkpt>
<trkpt lat="40.63198166666667" lon="-3.1733150000000006">
<ele>723</ele>
<time>2017-03-03T10:18:32Z</time>
</trkpt>
<trkpt lat="40.63196333333334" lon="-3.173311666666667">
<ele>723</ele>
<time>2017-03-03T10:18:36Z</time>
</trkpt>
<trkpt lat="40.63196333333334" lon="-3.173311666666667">
<ele>723</ele>
<time>2017-03-03T10:18:40Z</time>
</trkpt>
<trkpt lat="40.63196333333334" lon="-3.173311666666667">
<ele>723</ele>
<time>2017-03-03T10:18:44Z</time>
</trkpt>
<trkpt lat="40.63196333333334" lon="-3.173311666666667">
<ele>723</ele>
<time>2017-03-03T10:18:48Z</time>
</trkpt>
<trkpt lat="40.632" lon="-3.1733533333333335">
<ele>726</ele>
<time>2017-03-03T10:18:52Z</time>
</trkpt>
<trkpt lat="40.632128333333334" lon="-3.1734400000000003">
<ele>726</ele>
<time>2017-03-03T10:19:04Z</time>
</trkpt>
<trkpt lat="40.632124999999995" lon="-3.173415">
<ele>727</ele>
<time>2017-03-03T10:19:08Z</time>
</trkpt>
<trkpt lat="40.63212166666666" lon="-3.1734266666666664">
<ele>727</ele>
<time>2017-03-03T10:19:12Z</time>
</trkpt>
<trkpt lat="40.63213333333333" lon="-3.1734566666666666">
<ele>727</ele>
<time>2017-03-03T10:19:16Z</time>
</trkpt>
<trkpt lat="40.63213333333333" lon="-3.1734566666666666">
<ele>727</ele>
<time>2017-03-03T10:19:20Z</time>
</trkpt>
<trkpt lat="40.63213333333333" lon="-3.1734566666666666">
<ele>727</ele>
<time>2017-03-03T10:19:24Z</time>
</trkpt>
<trkpt lat="40.63213333333333" lon="-3.1734566666666666">
<ele>727</ele>
<time>2017-03-03T10:19:28Z</time>
</trkpt>
<trkpt lat="40.63221" lon="-3.1733449999999994">
<ele>728</ele>
<time>2017-03-03T10:19:32Z</time>
</trkpt>
<trkpt lat="40.632221666666666" lon="-3.1733516666666666">
<ele>728</ele>
<time>2017-03-03T10:19:36Z</time>
</trkpt>
<trkpt lat="40.632221666666666" lon="-3.1733516666666666">
<ele>728</ele>
<time>2017-03-03T10:19:40Z</time>
</trkpt>
<trkpt lat="40.632221666666666" lon="-3.1733516666666666">
<ele>728</ele>
<time>2017-03-03T10:19:44Z</time>
</trkpt>
<trkpt lat="40.632221666666666" lon="-3.1733516666666666">
<ele>728</ele>
<time>2017-03-03T10:19:48Z</time>
</trkpt>
<trkpt lat="40.63209" lon="-3.1734">
<ele>729</ele>
<time>2017-03-03T10:19:52Z</time>
</trkpt>
<trkpt lat="40.632038333333334" lon="-3.173436666666667">
<ele>729</ele>
<time>2017-03-03T10:19:56Z</time>
</trkpt>
<trkpt lat="40.63195833333334" lon="-3.173473333333333">
<ele>729</ele>
<time>2017-03-03T10:20:00Z</time>
</trkpt>
<trkpt lat="40.631933333333336" lon="-3.17355">
<ele>730</ele>
<time>2017-03-03T10:20:04Z</time>
</trkpt>
<trkpt lat="40.63189166666667" lon="-3.173555">
<ele>730</ele>
<time>2017-03-03T10:20:08Z</time>
</trkpt>
<trkpt lat="40.63196666666667" lon="-3.1733466666666668">
<ele>730</ele>
<time>2017-03-03T10:20:12Z</time>
</trkpt>
<trkpt lat="40.63224666666667" lon="-3.17317">
<ele>730</ele>
<time>2017-03-03T10:20:16Z</time>
</trkpt>
<trkpt lat="40.632259999999995" lon="-3.173105">
<ele>731</ele>
<time>2017-03-03T10:20:20Z</time>
</trkpt>
<trkpt lat="40.63226833333333" lon="-3.173036666666667">
<ele>731</ele>
<time>2017-03-03T10:20:24Z</time>
</trkpt>
<trkpt lat="40.63228" lon="-3.1729583333333333">
<ele>731</ele>
<time>2017-03-03T10:20:28Z</time>
</trkpt>
<trkpt lat="40.63230166666666" lon="-3.172896666666667">
<ele>730</ele>
<time>2017-03-03T10:20:32Z</time>
</trkpt>
<trkpt lat="40.63231333333333" lon="-3.172881666666667">
<ele>731</ele>
<time>2017-03-03T10:20:36Z</time>
</trkpt>
<trkpt lat="40.63231333333333" lon="-3.172881666666667">
<ele>731</ele>
<time>2017-03-03T10:20:40Z</time>
</trkpt>
<trkpt lat="40.63231333333333" lon="-3.172881666666667">
<ele>731</ele>
<time>2017-03-03T10:20:44Z</time>
</trkpt>
<trkpt lat="40.63231333333333" lon="-3.172881666666667">
<ele>731</ele>
<time>2017-03-03T10:20:48Z</time>
</trkpt>
<trkpt lat="40.632331666666666" lon="-3.1730616666666664">
<ele>729</ele>
<time>2017-03-03T10:20:52Z</time>
</trkpt>
<trkpt lat="40.632331666666666" lon="-3.1730616666666664">
<ele>729</ele>
<time>2017-03-03T10:20:56Z</time>
</trkpt>
<trkpt lat="40.63225333333333" lon="-3.1729583333333333">
<ele>729</ele>
<time>2017-03-03T10:21:00Z</time>
</trkpt>
<trkpt lat="40.632198333333335" lon="-3.172991666666667">
<ele>728</ele>
<time>2017-03-03T10:21:04Z</time>
</trkpt>
<trkpt lat="40.63220666666667" lon="-3.1730250000000004">
<ele>728</ele>
<time>2017-03-03T10:21:08Z</time>
</trkpt>
<trkpt lat="40.632243333333335" lon="-3.173215">
<ele>729</ele>
<time>2017-03-03T10:21:12Z</time>
</trkpt>
<trkpt lat="40.632263333333334" lon="-3.173331666666667">
<ele>730</ele>
<time>2017-03-03T10:21:16Z</time>
</trkpt>
<trkpt lat="40.63225" lon="-3.1734483333333334">
<ele>731</ele>
<time>2017-03-03T10:21:20Z</time>
</trkpt>
<trkpt lat="40.63223333333334" lon="-3.173505">
<ele>733</ele>
<time>2017-03-03T10:21:24Z</time>
</trkpt>
<trkpt lat="40.632261666666665" lon="-3.1734766666666663">
<ele>734</ele>
<time>2017-03-03T10:21:28Z</time>
</trkpt>
<trkpt lat="40.632261666666665" lon="-3.1734766666666663">
<ele>734</ele>
<time>2017-03-03T10:21:32Z</time>
</trkpt>
<trkpt lat="40.632261666666665" lon="-3.1734766666666663">
<ele>734</ele>
<time>2017-03-03T10:21:36Z</time>
</trkpt>
<trkpt lat="40.63209333333334" lon="-3.1731599999999998">
<ele>736</ele>
<time>2017-03-03T10:21:40Z</time>
</trkpt>
<trkpt lat="40.631993333333334" lon="-3.172765">
<ele>735</ele>
<time>2017-03-03T10:21:44Z</time>
</trkpt>
<trkpt lat="40.631951666666666" lon="-3.1721683333333335">
<ele>735</ele>
<time>2017-03-03T10:21:50Z</time>
</trkpt>
<trkpt lat="40.632241666666665" lon="-3.1728400000000003">
<ele>735</ele>
<time>2017-03-03T10:21:54Z</time>
</trkpt>
<trkpt lat="40.632261666666665" lon="-3.172868333333333">
<ele>735</ele>
<time>2017-03-03T10:21:58Z</time>
</trkpt>
<trkpt lat="40.632396666666665" lon="-3.172881666666667">
<ele>735</ele>
<time>2017-03-03T10:22:02Z</time>
</trkpt>
<trkpt lat="40.63242" lon="-3.1728850000000004">
<ele>735</ele>
<time>2017-03-03T10:22:06Z</time>
</trkpt>
<trkpt lat="40.63243166666667" lon="-3.172836666666667">
<ele>735</ele>
<time>2017-03-03T10:22:10Z</time>
</trkpt>
<trkpt lat="40.63242666666667" lon="-3.17283">
<ele>735</ele>
<time>2017-03-03T10:22:14Z</time>
</trkpt>
<trkpt lat="40.63242666666667" lon="-3.17283">
<ele>735</ele>
<time>2017-03-03T10:22:18Z</time>
</trkpt>
<trkpt lat="40.63243333333333" lon="-3.1728116666666666">
<ele>736</ele>
<time>2017-03-03T10:22:22Z</time>
</trkpt>
<trkpt lat="40.63243333333333" lon="-3.1728116666666666">
<ele>736</ele>
<time>2017-03-03T10:22:26Z</time>
</trkpt>
<trkpt lat="40.63243333333333" lon="-3.1728116666666666">
<ele>736</ele>
<time>2017-03-03T10:22:30Z</time>
</trkpt>
<trkpt lat="40.63243333333333" lon="-3.1728116666666666">
<ele>736</ele>
<time>2017-03-03T10:22:34Z</time>
</trkpt>
<trkpt lat="40.63252" lon="-3.1728349999999996">
<ele>736</ele>
<time>2017-03-03T10:22:38Z</time>
</trkpt>
<trkpt lat="40.63251833333334" lon="-3.172845">
<ele>736</ele>
<time>2017-03-03T10:22:42Z</time>
</trkpt>
<trkpt lat="40.632315" lon="-3.1727083333333335">
<ele>736</ele>
<time>2017-03-03T10:22:46Z</time>
</trkpt>
<trkpt lat="40.632126666666665" lon="-3.172356666666667">
<ele>736</ele>
<time>2017-03-03T10:22:50Z</time>
</trkpt>
<trkpt lat="40.63200333333334" lon="-3.1722766666666664">
<ele>735</ele>
<time>2017-03-03T10:22:54Z</time>
</trkpt>
<trkpt lat="40.632126666666665" lon="-3.172665">
<ele>735</ele>
<time>2017-03-03T10:22:58Z</time>
</trkpt>
<trkpt lat="40.63223" lon="-3.17271">
<ele>735</ele>
<time>2017-03-03T10:23:02Z</time>
</trkpt>
<trkpt lat="40.63229" lon="-3.1726633333333334">
<ele>734</ele>
<time>2017-03-03T10:23:06Z</time>
</trkpt>
<trkpt lat="40.632385" lon="-3.1725716666666672">
<ele>733</ele>
<time>2017-03-03T10:23:10Z</time>
</trkpt>
<trkpt lat="40.632488333333335" lon="-3.172506666666666">
<ele>731</ele>
<time>2017-03-03T10:23:14Z</time>
</trkpt>
<trkpt lat="40.632513333333335" lon="-3.172423333333333">
<ele>729</ele>
<time>2017-03-03T10:23:18Z</time>
</trkpt>
<trkpt lat="40.63250666666667" lon="-3.17242">
<ele>729</ele>
<time>2017-03-03T10:23:22Z</time>
</trkpt>
<trkpt lat="40.63250666666667" lon="-3.17242">
<ele>729</ele>
<time>2017-03-03T10:23:26Z</time>
</trkpt>
<trkpt lat="40.63250666666667" lon="-3.17242">
<ele>729</ele>
<time>2017-03-03T10:23:30Z</time>
</trkpt>
<trkpt lat="40.63250666666667" lon="-3.17242">
<ele>729</ele>
<time>2017-03-03T10:23:34Z</time>
</trkpt>
<trkpt lat="40.63250666666667" lon="-3.17242">
<ele>729</ele>
<time>2017-03-03T10:23:38Z</time>
</trkpt>
<trkpt lat="40.632513333333335" lon="-3.172543333333333">
<ele>726</ele>
<time>2017-03-03T10:23:42Z</time>
</trkpt>
<trkpt lat="40.63252" lon="-3.172498333333333">
<ele>726</ele>
<time>2017-03-03T10:23:46Z</time>
</trkpt>
<trkpt lat="40.63252166666667" lon="-3.172506666666666">
<ele>725</ele>
<time>2017-03-03T10:23:50Z</time>
</trkpt>
<trkpt lat="40.63252166666667" lon="-3.172515">
<ele>724</ele>
<time>2017-03-03T10:23:54Z</time>
</trkpt>
<trkpt lat="40.63250666666667" lon="-3.1724683333333332">
<ele>723</ele>
<time>2017-03-03T10:23:58Z</time>
</trkpt>
<trkpt lat="40.63247333333334" lon="-3.1724033333333335">
<ele>723</ele>
<time>2017-03-03T10:24:02Z</time>
</trkpt>
<trkpt lat="40.632535" lon="-3.1724683333333332">
<ele>723</ele>
<time>2017-03-03T10:24:06Z</time>
</trkpt>
<trkpt lat="40.63276166666667" lon="-3.1724716666666666">
<ele>723</ele>
<time>2017-03-03T10:24:10Z</time>
</trkpt>
<trkpt lat="40.633015" lon="-3.1724633333333334">
<ele>723</ele>
<time>2017-03-03T10:24:14Z</time>
</trkpt>
<trkpt lat="40.63334833333333" lon="-3.1726916666666662">
<ele>723</ele>
<time>2017-03-03T10:24:18Z</time>
</trkpt>
<trkpt lat="40.63285666666666" lon="-3.1723666666666666">
<ele>721</ele>
<time>2017-03-03T10:24:22Z</time>
</trkpt>
<trkpt lat="40.632889999999996" lon="-3.1723633333333328">
<ele>717</ele>
<time>2017-03-03T10:24:26Z</time>
</trkpt>
<trkpt lat="40.632955" lon="-3.1723000000000003">
<ele>715</ele>
<time>2017-03-03T10:24:30Z</time>
</trkpt>
<trkpt lat="40.63297333333333" lon="-3.17226">
<ele>714</ele>
<time>2017-03-03T10:24:34Z</time>
</trkpt>
<trkpt lat="40.63297333333333" lon="-3.17226">
<ele>714</ele>
<time>2017-03-03T10:24:38Z</time>
</trkpt>
<trkpt lat="40.63297333333333" lon="-3.17226">
<ele>714</ele>
<time>2017-03-03T10:24:42Z</time>
</trkpt>
<trkpt lat="40.63297333333333" lon="-3.17226">
<ele>714</ele>
<time>2017-03-03T10:24:46Z</time>
</trkpt>
<trkpt lat="40.63297333333333" lon="-3.17226">
<ele>714</ele>
<time>2017-03-03T10:24:50Z</time>
</trkpt>
<trkpt lat="40.63297333333333" lon="-3.17226">
<ele>714</ele>
<time>2017-03-03T10:24:54Z</time>
</trkpt>
<trkpt lat="40.632978333333334" lon="-3.172191666666667">
<ele>711</ele>
<time>2017-03-03T10:24:58Z</time>
</trkpt>
<trkpt lat="40.63302" lon="-3.1721233333333334">
<ele>709</ele>
<time>2017-03-03T10:25:02Z</time>
</trkpt>
<trkpt lat="40.633050000000004" lon="-3.1720316666666672">
<ele>707</ele>
<time>2017-03-03T10:25:06Z</time>
</trkpt>
<trkpt lat="40.633095000000004" lon="-3.1720033333333335">
<ele>705</ele>
<time>2017-03-03T10:25:10Z</time>
</trkpt>
<trkpt lat="40.6331" lon="-3.1720049999999995">
<ele>705</ele>
<time>2017-03-03T10:25:14Z</time>
</trkpt>
<trkpt lat="40.63312833333334" lon="-3.1720566666666667">
<ele>704</ele>
<time>2017-03-03T10:25:18Z</time>
</trkpt>
<trkpt lat="40.633125" lon="-3.1720633333333335">
<ele>704</ele>
<time>2017-03-03T10:25:22Z</time>
</trkpt>
<trkpt lat="40.63317333333334" lon="-3.1721133333333333">
<ele>703</ele>
<time>2017-03-03T10:25:26Z</time>
</trkpt>
<trkpt lat="40.63325666666666" lon="-3.172185">
<ele>703</ele>
<time>2017-03-03T10:25:30Z</time>
</trkpt>
<trkpt lat="40.633338333333334" lon="-3.172261666666666">
<ele>703</ele>
<time>2017-03-03T10:25:34Z</time>
</trkpt>
<trkpt lat="40.633426666666665" lon="-3.172325">
<ele>704</ele>
<time>2017-03-03T10:25:38Z</time>
</trkpt>
<trkpt lat="40.633496666666666" lon="-3.172378333333333">
<ele>704</ele>
<time>2017-03-03T10:25:42Z</time>
</trkpt>
<trkpt lat="40.633525" lon="-3.172446666666666">
<ele>704</ele>
<time>2017-03-03T10:25:46Z</time>
</trkpt>
<trkpt lat="40.63353666666667" lon="-3.1725216666666665">
<ele>705</ele>
<time>2017-03-03T10:25:50Z</time>
</trkpt>
<trkpt lat="40.63352" lon="-3.172591666666667">
<ele>705</ele>
<time>2017-03-03T10:25:54Z</time>
</trkpt>
<trkpt lat="40.633485" lon="-3.17266">
<ele>706</ele>
<time>2017-03-03T10:25:58Z</time>
</trkpt>
<trkpt lat="40.63347" lon="-3.172705">
<ele>706</ele>
<time>2017-03-03T10:26:02Z</time>
</trkpt>
<trkpt lat="40.63347" lon="-3.172705">
<ele>706</ele>
<time>2017-03-03T10:26:06Z</time>
</trkpt>
<trkpt lat="40.633498333333335" lon="-3.172733333333333">
<ele>705</ele>
<time>2017-03-03T10:26:10Z</time>
</trkpt>
<trkpt lat="40.633515" lon="-3.17275">
<ele>705</ele>
<time>2017-03-03T10:26:14Z</time>
</trkpt>
<trkpt lat="40.63351" lon="-3.172748333333333">
<ele>705</ele>
<time>2017-03-03T10:26:18Z</time>
</trkpt>
<trkpt lat="40.63351" lon="-3.172748333333333">
<ele>705</ele>
<time>2017-03-03T10:26:22Z</time>
</trkpt>
<trkpt lat="40.63351" lon="-3.172748333333333">
<ele>705</ele>
<time>2017-03-03T10:26:26Z</time>
</trkpt>
<trkpt lat="40.63351" lon="-3.172748333333333">
<ele>705</ele>
<time>2017-03-03T10:26:30Z</time>
</trkpt>
<trkpt lat="40.63351" lon="-3.172748333333333">
<ele>705</ele>
<time>2017-03-03T10:26:34Z</time>
</trkpt>
<trkpt lat="40.63348833333334" lon="-3.1728850000000004">
<ele>704</ele>
<time>2017-03-03T10:26:38Z</time>
</trkpt>
<trkpt lat="40.63355166666667" lon="-3.1729366666666663">
<ele>704</ele>
<time>2017-03-03T10:26:42Z</time>
</trkpt>
<trkpt lat="40.63355166666667" lon="-3.1729366666666663">
<ele>704</ele>
<time>2017-03-03T10:26:46Z</time>
</trkpt>
<trkpt lat="40.633563333333335" lon="-3.1729966666666667">
<ele>704</ele>
<time>2017-03-03T10:26:50Z</time>
</trkpt>
<trkpt lat="40.633625" lon="-3.173023333333333">
<ele>704</ele>
<time>2017-03-03T10:26:54Z</time>
</trkpt>
<trkpt lat="40.633651666666665" lon="-3.1729983333333336">
<ele>702</ele>
<time>2017-03-03T10:26:58Z</time>
</trkpt>
<trkpt lat="40.63364333333333" lon="-3.173">
<ele>702</ele>
<time>2017-03-03T10:27:02Z</time>
</trkpt>
<trkpt lat="40.633625" lon="-3.1730066666666668">
<ele>702</ele>
<time>2017-03-03T10:27:06Z</time>
</trkpt>
<trkpt lat="40.633604999999996" lon="-3.173058333333334">
<ele>703</ele>
<time>2017-03-03T10:27:10Z</time>
</trkpt>
<trkpt lat="40.633585000000004" lon="-3.173148333333333">
<ele>703</ele>
<time>2017-03-03T10:27:14Z</time>
</trkpt>
<trkpt lat="40.63355333333333" lon="-3.1731966666666667">
<ele>704</ele>
<time>2017-03-03T10:27:18Z</time>
</trkpt>
<trkpt lat="40.63355166666667" lon="-3.1732199999999997">
<ele>705</ele>
<time>2017-03-03T10:27:22Z</time>
</trkpt>
<trkpt lat="40.63352666666666" lon="-3.173236666666667">
<ele>706</ele>
<time>2017-03-03T10:27:26Z</time>
</trkpt>
<trkpt lat="40.633535" lon="-3.173265">
<ele>707</ele>
<time>2017-03-03T10:27:30Z</time>
</trkpt>
<trkpt lat="40.633535" lon="-3.173265">
<ele>707</ele>
<time>2017-03-03T10:27:34Z</time>
</trkpt>
<trkpt lat="40.633493333333334" lon="-3.1732416666666667">
<ele>710</ele>
<time>2017-03-03T10:27:38Z</time>
</trkpt>
<trkpt lat="40.633445" lon="-3.1732166666666664">
<ele>712</ele>
<time>2017-03-03T10:27:42Z</time>
</trkpt>
<trkpt lat="40.633448333333334" lon="-3.1733249999999997">
<ele>713</ele>
<time>2017-03-03T10:27:46Z</time>
</trkpt>
<trkpt lat="40.633425" lon="-3.173311666666667">
<ele>713</ele>
<time>2017-03-03T10:27:50Z</time>
</trkpt>
<trkpt lat="40.633445" lon="-3.1733150000000006">
<ele>714</ele>
<time>2017-03-03T10:27:54Z</time>
</trkpt>
<trkpt lat="40.63359666666667" lon="-3.1734850000000003">
<ele>713</ele>
<time>2017-03-03T10:27:58Z</time>
</trkpt>
<trkpt lat="40.63384166666666" lon="-3.1737300000000004">
<ele>712</ele>
<time>2017-03-03T10:28:02Z</time>
</trkpt>
<trkpt lat="40.633833333333335" lon="-3.1736266666666664">
<ele>713</ele>
<time>2017-03-03T10:28:06Z</time>
</trkpt>
<trkpt lat="40.63379833333333" lon="-3.1736550000000006">
<ele>714</ele>
<time>2017-03-03T10:28:12Z</time>
</trkpt>
<trkpt lat="40.633645" lon="-3.1732250000000004">
<ele>702</ele>
<time>2017-03-03T10:28:40Z</time>
</trkpt>
<trkpt lat="40.63366666666666" lon="-3.1732633333333333">
<ele>701</ele>
<time>2017-03-03T10:28:44Z</time>
</trkpt>
<trkpt lat="40.63366666666666" lon="-3.1732633333333333">
<ele>701</ele>
<time>2017-03-03T10:28:48Z</time>
</trkpt>
<trkpt lat="40.63366666666666" lon="-3.1732633333333333">
<ele>701</ele>
<time>2017-03-03T10:28:52Z</time>
</trkpt>
<trkpt lat="40.63366666666666" lon="-3.1732633333333333">
<ele>701</ele>
<time>2017-03-03T10:28:56Z</time>
</trkpt>
<trkpt lat="40.63366666666666" lon="-3.1732633333333333">
<ele>701</ele>
<time>2017-03-03T10:29:00Z</time>
</trkpt>
<trkpt lat="40.63366666666666" lon="-3.1732633333333333">
<ele>701</ele>
<time>2017-03-03T10:29:04Z</time>
</trkpt>
<trkpt lat="40.63366666666666" lon="-3.1732633333333333">
<ele>701</ele>
<time>2017-03-03T10:29:08Z</time>
</trkpt>
<trkpt lat="40.63366666666666" lon="-3.1732633333333333">
<ele>701</ele>
<time>2017-03-03T10:29:12Z</time>
</trkpt>
<trkpt lat="40.63371666666667" lon="-3.1735466666666667">
<ele>695</ele>
<time>2017-03-03T10:29:16Z</time>
</trkpt>
<trkpt lat="40.633743333333335" lon="-3.1735899999999995">
<ele>695</ele>
<time>2017-03-03T10:29:20Z</time>
</trkpt>
<trkpt lat="40.633633333333336" lon="-3.173458333333334">
<ele>694</ele>
<time>2017-03-03T10:29:24Z</time>
</trkpt>
<trkpt lat="40.63364" lon="-3.17335">
<ele>696</ele>
<time>2017-03-03T10:29:28Z</time>
</trkpt>
<trkpt lat="40.63364833333333" lon="-3.1732716666666665">
<ele>697</ele>
<time>2017-03-03T10:29:32Z</time>
</trkpt>
<trkpt lat="40.63364833333333" lon="-3.173255">
<ele>698</ele>
<time>2017-03-03T10:29:36Z</time>
</trkpt>
<trkpt lat="40.63366666666666" lon="-3.173193333333333">
<ele>700</ele>
<time>2017-03-03T10:29:40Z</time>
</trkpt>
<trkpt lat="40.63366499999999" lon="-3.173148333333333">
<ele>701</ele>
<time>2017-03-03T10:29:44Z</time>
</trkpt>
<trkpt lat="40.633673333333334" lon="-3.1731433333333334">
<ele>701</ele>
<time>2017-03-03T10:29:48Z</time>
</trkpt>
<trkpt lat="40.633565" lon="-3.1729350000000003">
<ele>700</ele>
<time>2017-03-03T10:29:52Z</time>
</trkpt>
<trkpt lat="40.633586666666666" lon="-3.1728850000000004">
<ele>699</ele>
<time>2017-03-03T10:29:56Z</time>
</trkpt>
<trkpt lat="40.633586666666666" lon="-3.172873333333334">
<ele>698</ele>
<time>2017-03-03T10:30:00Z</time>
</trkpt>
<trkpt lat="40.63358166666667" lon="-3.172881666666667">
<ele>697</ele>
<time>2017-03-03T10:30:04Z</time>
</trkpt>
<trkpt lat="40.633604999999996" lon="-3.1729383333333336">
<ele>696</ele>
<time>2017-03-03T10:30:08Z</time>
</trkpt>
<trkpt lat="40.63361" lon="-3.1729450000000003">
<ele>696</ele>
<time>2017-03-03T10:30:12Z</time>
</trkpt>
<trkpt lat="40.63361" lon="-3.1729450000000003">
<ele>696</ele>
<time>2017-03-03T10:30:16Z</time>
</trkpt>
<trkpt lat="40.63361" lon="-3.1729450000000003">
<ele>696</ele>
<time>2017-03-03T10:30:20Z</time>
</trkpt>
<trkpt lat="40.63361" lon="-3.1729450000000003">
<ele>696</ele>
<time>2017-03-03T10:30:24Z</time>
</trkpt>
<trkpt lat="40.63356666666667" lon="-3.1730566666666666">
<ele>698</ele>
<time>2017-03-03T10:30:28Z</time>
</trkpt>
<trkpt lat="40.63355833333333" lon="-3.1731083333333334">
<ele>699</ele>
<time>2017-03-03T10:30:32Z</time>
</trkpt>
<trkpt lat="40.633575" lon="-3.17312">
<ele>700</ele>
<time>2017-03-03T10:30:36Z</time>
</trkpt>
<trkpt lat="40.633575" lon="-3.1731233333333337">
<ele>700</ele>
<time>2017-03-03T10:30:40Z</time>
</trkpt>
<trkpt lat="40.633575" lon="-3.1731233333333337">
<ele>700</ele>
<time>2017-03-03T10:30:44Z</time>
</trkpt>
<trkpt lat="40.633575" lon="-3.1731233333333337">
<ele>700</ele>
<time>2017-03-03T10:30:48Z</time>
</trkpt>
<trkpt lat="40.633575" lon="-3.1731233333333337">
<ele>700</ele>
<time>2017-03-03T10:30:52Z</time>
</trkpt>
<trkpt lat="40.633535" lon="-3.1730216666666666">
<ele>702</ele>
<time>2017-03-03T10:30:56Z</time>
</trkpt>
<trkpt lat="40.633515" lon="-3.1730316666666663">
<ele>702</ele>
<time>2017-03-03T10:31:00Z</time>
</trkpt>
<trkpt lat="40.63345666666667" lon="-3.172971666666667">
<ele>703</ele>
<time>2017-03-03T10:31:04Z</time>
</trkpt>
<trkpt lat="40.63339" lon="-3.1729666666666665">
<ele>702</ele>
<time>2017-03-03T10:31:08Z</time>
</trkpt>
<trkpt lat="40.63332666666667" lon="-3.1729033333333327">
<ele>701</ele>
<time>2017-03-03T10:31:12Z</time>
</trkpt>
<trkpt lat="40.633246666666665" lon="-3.1728166666666673">
<ele>701</ele>
<time>2017-03-03T10:31:16Z</time>
</trkpt>
<trkpt lat="40.633251666666666" lon="-3.1728">
<ele>700</ele>
<time>2017-03-03T10:31:20Z</time>
</trkpt>
<trkpt lat="40.63326166666666" lon="-3.1727899999999996">
<ele>700</ele>
<time>2017-03-03T10:31:24Z</time>
</trkpt>
<trkpt lat="40.633295" lon="-3.172801666666667">
<ele>701</ele>
<time>2017-03-03T10:31:28Z</time>
</trkpt>
<trkpt lat="40.633496666666666" lon="-3.173096666666667">
<ele>700</ele>
<time>2017-03-03T10:31:32Z</time>
</trkpt>
<trkpt lat="40.63359833333333" lon="-3.1733833333333337">
<ele>700</ele>
<time>2017-03-03T10:31:36Z</time>
</trkpt>
<trkpt lat="40.633633333333336" lon="-3.1734716666666665">
<ele>700</ele>
<time>2017-03-03T10:31:40Z</time>
</trkpt>
<trkpt lat="40.633608333333335" lon="-3.173438333333333">
<ele>700</ele>
<time>2017-03-03T10:31:44Z</time>
</trkpt>
<trkpt lat="40.63359666666667" lon="-3.1734649999999998">
<ele>700</ele>
<time>2017-03-03T10:31:48Z</time>
</trkpt>
<trkpt lat="40.63359833333333" lon="-3.173466666666667">
<ele>700</ele>
<time>2017-03-03T10:31:52Z</time>
</trkpt>
<trkpt lat="40.63357833333334" lon="-3.173446666666666">
<ele>700</ele>
<time>2017-03-03T10:31:56Z</time>
</trkpt>
<trkpt lat="40.633556666666664" lon="-3.1734333333333336">
<ele>701</ele>
<time>2017-03-03T10:32:00Z</time>
</trkpt>
<trkpt lat="40.633543333333336" lon="-3.1734266666666664">
<ele>701</ele>
<time>2017-03-03T10:32:04Z</time>
</trkpt>
<trkpt lat="40.63349" lon="-3.1732533333333333">
<ele>702</ele>
<time>2017-03-03T10:32:08Z</time>
</trkpt>
<trkpt lat="40.633451666666666" lon="-3.1731883333333335">
<ele>703</ele>
<time>2017-03-03T10:32:12Z</time>
</trkpt>
<trkpt lat="40.633375" lon="-3.1730166666666664">
<ele>704</ele>
<time>2017-03-03T10:32:16Z</time>
</trkpt>
<trkpt lat="40.633375" lon="-3.173">
<ele>704</ele>
<time>2017-03-03T10:32:20Z</time>
</trkpt>
<trkpt lat="40.633375" lon="-3.173">
<ele>704</ele>
<time>2017-03-03T10:32:24Z</time>
</trkpt>
<trkpt lat="40.63331" lon="-3.1728433333333337">
<ele>704</ele>
<time>2017-03-03T10:32:28Z</time>
</trkpt>
<trkpt lat="40.63316666666666" lon="-3.1726316666666663">
<ele>703</ele>
<time>2017-03-03T10:32:32Z</time>
</trkpt>
<trkpt lat="40.633105" lon="-3.172525">
<ele>703</ele>
<time>2017-03-03T10:32:36Z</time>
</trkpt>
<trkpt lat="40.633105" lon="-3.172525">
<ele>703</ele>
<time>2017-03-03T10:32:40Z</time>
</trkpt>
<trkpt lat="40.633161666666666" lon="-3.172588333333333">
<ele>702</ele>
<time>2017-03-03T10:32:44Z</time>
</trkpt>
<trkpt lat="40.633445" lon="-3.1729316666666665">
<ele>702</ele>
<time>2017-03-03T10:32:48Z</time>
</trkpt>
<trkpt lat="40.633673333333334" lon="-3.1732783333333336">
<ele>703</ele>
<time>2017-03-03T10:32:52Z</time>
</trkpt>
<trkpt lat="40.63375666666666" lon="-3.173481666666667">
<ele>702</ele>
<time>2017-03-03T10:32:56Z</time>
</trkpt>
<trkpt lat="40.633653333333335" lon="-3.1732983333333333">
<ele>701</ele>
<time>2017-03-03T10:33:00Z</time>
</trkpt>
<trkpt lat="40.63341166666667" lon="-3.172905">
<ele>701</ele>
<time>2017-03-03T10:33:04Z</time>
</trkpt>
<trkpt lat="40.633358333333334" lon="-3.1728316666666663">
<ele>702</ele>
<time>2017-03-03T10:33:08Z</time>
</trkpt>
<trkpt lat="40.633318333333335" lon="-3.1728183333333333">
<ele>703</ele>
<time>2017-03-03T10:33:12Z</time>
</trkpt>
<trkpt lat="40.633291666666665" lon="-3.172846666666666">
<ele>704</ele>
<time>2017-03-03T10:33:16Z</time>
</trkpt>
<trkpt lat="40.63326666666667" lon="-3.1728799999999997">
<ele>704</ele>
<time>2017-03-03T10:33:20Z</time>
</trkpt>
<trkpt lat="40.63322333333333" lon="-3.172948333333333">
<ele>705</ele>
<time>2017-03-03T10:33:24Z</time>
</trkpt>
<trkpt lat="40.633183333333335" lon="-3.1729849999999997">
<ele>705</ele>
<time>2017-03-03T10:33:28Z</time>
</trkpt>
<trkpt lat="40.63314833333333" lon="-3.173001666666667">
<ele>706</ele>
<time>2017-03-03T10:33:32Z</time>
</trkpt>
<trkpt lat="40.633156666666665" lon="-3.172873333333334">
<ele>706</ele>
<time>2017-03-03T10:33:36Z</time>
</trkpt>
<trkpt lat="40.63321833333334" lon="-3.1728866666666664">
<ele>707</ele>
<time>2017-03-03T10:33:40Z</time>
</trkpt>
<trkpt lat="40.63324166666666" lon="-3.1729033333333327">
<ele>707</ele>
<time>2017-03-03T10:33:44Z</time>
</trkpt>
<trkpt lat="40.63324166666666" lon="-3.1729033333333327">
<ele>707</ele>
<time>2017-03-03T10:33:48Z</time>
</trkpt>
<trkpt lat="40.63324166666666" lon="-3.1729033333333327">
<ele>707</ele>
<time>2017-03-03T10:33:52Z</time>
</trkpt>
<trkpt lat="40.63333333333333" lon="-3.1728716666666665">
<ele>708</ele>
<time>2017-03-03T10:33:56Z</time>
</trkpt>
<trkpt lat="40.633336666666665" lon="-3.172991666666667">
<ele>706</ele>
<time>2017-03-03T10:34:00Z</time>
</trkpt>
<trkpt lat="40.633320000000005" lon="-3.173008333333333">
<ele>706</ele>
<time>2017-03-03T10:34:04Z</time>
</trkpt>
<trkpt lat="40.633320000000005" lon="-3.173008333333333">
<ele>706</ele>
<time>2017-03-03T10:34:08Z</time>
</trkpt>
<trkpt lat="40.633320000000005" lon="-3.173008333333333">
<ele>706</ele>
<time>2017-03-03T10:34:12Z</time>
</trkpt>
<trkpt lat="40.63325666666666" lon="-3.1729533333333335">
<ele>704</ele>
<time>2017-03-03T10:34:16Z</time>
</trkpt>
<trkpt lat="40.63321333333333" lon="-3.172978333333333">
<ele>703</ele>
<time>2017-03-03T10:34:20Z</time>
</trkpt>
<trkpt lat="40.63322" lon="-3.172991666666667">
<ele>702</ele>
<time>2017-03-03T10:34:24Z</time>
</trkpt>
<trkpt lat="40.63322" lon="-3.172991666666667">
<ele>702</ele>
<time>2017-03-03T10:34:28Z</time>
</trkpt>
<trkpt lat="40.63322" lon="-3.172991666666667">
<ele>702</ele>
<time>2017-03-03T10:34:32Z</time>
</trkpt>
<trkpt lat="40.63322" lon="-3.172991666666667">
<ele>702</ele>
<time>2017-03-03T10:34:36Z</time>
</trkpt>
<trkpt lat="40.63322" lon="-3.172991666666667">
<ele>702</ele>
<time>2017-03-03T10:34:40Z</time>
</trkpt>
<trkpt lat="40.63322" lon="-3.172991666666667">
<ele>702</ele>
<time>2017-03-03T10:34:44Z</time>
</trkpt>
<trkpt lat="40.63322" lon="-3.172991666666667">
<ele>702</ele>
<time>2017-03-03T10:34:48Z</time>
</trkpt>
<trkpt lat="40.63315166666666" lon="-3.17289">
<ele>700</ele>
<time>2017-03-03T10:34:52Z</time>
</trkpt>
<trkpt lat="40.63314333333334" lon="-3.1728433333333337">
<ele>699</ele>
<time>2017-03-03T10:34:56Z</time>
</trkpt>
<trkpt lat="40.63314333333334" lon="-3.1728433333333337">
<ele>699</ele>
<time>2017-03-03T10:35:00Z</time>
</trkpt>
<trkpt lat="40.63314333333334" lon="-3.1728433333333337">
<ele>699</ele>
<time>2017-03-03T10:35:04Z</time>
</trkpt>
<trkpt lat="40.63314333333334" lon="-3.1728433333333337">
<ele>699</ele>
<time>2017-03-03T10:35:08Z</time>
</trkpt>
<trkpt lat="40.63314333333334" lon="-3.1728433333333337">
<ele>699</ele>
<time>2017-03-03T10:35:12Z</time>
</trkpt>
<trkpt lat="40.63314333333334" lon="-3.1728433333333337">
<ele>699</ele>
<time>2017-03-03T10:35:16Z</time>
</trkpt>
<trkpt lat="40.63314333333334" lon="-3.1728433333333337">
<ele>699</ele>
<time>2017-03-03T10:35:20Z</time>
</trkpt>
<trkpt lat="40.63314333333334" lon="-3.1728433333333337">
<ele>699</ele>
<time>2017-03-03T10:35:24Z</time>
</trkpt>
<trkpt lat="40.63314333333334" lon="-3.1728433333333337">
<ele>699</ele>
<time>2017-03-03T10:35:28Z</time>
</trkpt>
<trkpt lat="40.633271666666666" lon="-3.173008333333333">
<ele>698</ele>
<time>2017-03-03T10:35:42Z</time>
</trkpt>
<trkpt lat="40.633201666666665" lon="-3.1731899999999995">
<ele>698</ele>
<time>2017-03-03T10:35:46Z</time>
</trkpt>
<trkpt lat="40.633115" lon="-3.173146666666667">
<ele>698</ele>
<time>2017-03-03T10:35:50Z</time>
</trkpt>
<trkpt lat="40.633066666666664" lon="-3.173155">
<ele>698</ele>
<time>2017-03-03T10:35:54Z</time>
</trkpt>
<trkpt lat="40.63304666666667" lon="-3.1731350000000003">
<ele>697</ele>
<time>2017-03-03T10:35:58Z</time>
</trkpt>
<trkpt lat="40.63304" lon="-3.1731599999999998">
<ele>698</ele>
<time>2017-03-03T10:36:02Z</time>
</trkpt>
<trkpt lat="40.63304" lon="-3.1731599999999998">
<ele>698</ele>
<time>2017-03-03T10:36:06Z</time>
</trkpt>
<trkpt lat="40.63296166666667" lon="-3.17326">
<ele>697</ele>
<time>2017-03-03T10:36:10Z</time>
</trkpt>
<trkpt lat="40.632885" lon="-3.173273333333334">
<ele>698</ele>
<time>2017-03-03T10:36:14Z</time>
</trkpt>
<trkpt lat="40.632865" lon="-3.1732716666666665">
<ele>699</ele>
<time>2017-03-03T10:36:18Z</time>
</trkpt>
<trkpt lat="40.632870000000004" lon="-3.173266666666667">
<ele>699</ele>
<time>2017-03-03T10:36:22Z</time>
</trkpt>
<trkpt lat="40.63285833333334" lon="-3.1733216666666664">
<ele>699</ele>
<time>2017-03-03T10:36:26Z</time>
</trkpt>
<trkpt lat="40.632868333333334" lon="-3.1733466666666668">
<ele>699</ele>
<time>2017-03-03T10:36:30Z</time>
</trkpt>
<trkpt lat="40.632868333333334" lon="-3.1733466666666668">
<ele>699</ele>
<time>2017-03-03T10:36:34Z</time>
</trkpt>
<trkpt lat="40.632798333333334" lon="-3.1734266666666664">
<ele>698</ele>
<time>2017-03-03T10:36:38Z</time>
</trkpt>
<trkpt lat="40.63266333333333" lon="-3.173466666666667">
<ele>698</ele>
<time>2017-03-03T10:36:42Z</time>
</trkpt>
<trkpt lat="40.63267333333333" lon="-3.1734183333333332">
<ele>698</ele>
<time>2017-03-03T10:36:46Z</time>
</trkpt>
<trkpt lat="40.63268333333333" lon="-3.1732566666666666">
<ele>697</ele>
<time>2017-03-03T10:36:50Z</time>
</trkpt>
<trkpt lat="40.63279" lon="-3.173258333333334">
<ele>698</ele>
<time>2017-03-03T10:36:54Z</time>
</trkpt>
<trkpt lat="40.63283166666667" lon="-3.1732266666666664">
<ele>698</ele>
<time>2017-03-03T10:36:58Z</time>
</trkpt>
<trkpt lat="40.632841666666664" lon="-3.1732283333333338">
<ele>698</ele>
<time>2017-03-03T10:37:02Z</time>
</trkpt>
<trkpt lat="40.632846666666666" lon="-3.173213333333334">
<ele>699</ele>
<time>2017-03-03T10:37:06Z</time>
</trkpt>
<trkpt lat="40.63285166666667" lon="-3.1732">
<ele>699</ele>
<time>2017-03-03T10:37:10Z</time>
</trkpt>
<trkpt lat="40.63287666666667" lon="-3.1732033333333334">
<ele>699</ele>
<time>2017-03-03T10:37:14Z</time>
</trkpt>
<trkpt lat="40.63287666666667" lon="-3.1732033333333334">
<ele>699</ele>
<time>2017-03-03T10:37:18Z</time>
</trkpt>
<trkpt lat="40.63287666666667" lon="-3.1732033333333334">
<ele>699</ele>
<time>2017-03-03T10:37:22Z</time>
</trkpt>
<trkpt lat="40.63287666666667" lon="-3.1732033333333334">
<ele>699</ele>
<time>2017-03-03T10:37:26Z</time>
</trkpt>
<trkpt lat="40.632963333333336" lon="-3.173238333333333">
<ele>700</ele>
<time>2017-03-03T10:37:30Z</time>
</trkpt>
<trkpt lat="40.632981666666666" lon="-3.1732333333333336">
<ele>700</ele>
<time>2017-03-03T10:37:34Z</time>
</trkpt>
<trkpt lat="40.632981666666666" lon="-3.1732333333333336">
<ele>700</ele>
<time>2017-03-03T10:37:38Z</time>
</trkpt>
<trkpt lat="40.632981666666666" lon="-3.1732333333333336">
<ele>700</ele>
<time>2017-03-03T10:37:42Z</time>
</trkpt>
<trkpt lat="40.632981666666666" lon="-3.1732333333333336">
<ele>700</ele>
<time>2017-03-03T10:37:46Z</time>
</trkpt>
<trkpt lat="40.632981666666666" lon="-3.1732333333333336">
<ele>700</ele>
<time>2017-03-03T10:37:50Z</time>
</trkpt>
<trkpt lat="40.633140000000004" lon="-3.1732299999999998">
<ele>700</ele>
<time>2017-03-03T10:37:54Z</time>
</trkpt>
<trkpt lat="40.633156666666665" lon="-3.1732066666666667">
<ele>700</ele>
<time>2017-03-03T10:37:58Z</time>
</trkpt>
<trkpt lat="40.63297" lon="-3.17321">
<ele>699</ele>
<time>2017-03-03T10:38:02Z</time>
</trkpt>
<trkpt lat="40.63297" lon="-3.17321">
<ele>699</ele>
<time>2017-03-03T10:38:06Z</time>
</trkpt>
<trkpt lat="40.63283166666667" lon="-3.1731800000000003">
<ele>699</ele>
<time>2017-03-03T10:38:10Z</time>
</trkpt>
<trkpt lat="40.632781666666666" lon="-3.173191666666667">
<ele>699</ele>
<time>2017-03-03T10:38:14Z</time>
</trkpt>
<trkpt lat="40.63275" lon="-3.1732349999999996">
<ele>698</ele>
<time>2017-03-03T10:38:18Z</time>
</trkpt>
<trkpt lat="40.63272333333334" lon="-3.1732716666666665">
<ele>698</ele>
<time>2017-03-03T10:38:22Z</time>
</trkpt>
<trkpt lat="40.63272333333334" lon="-3.1733166666666666">
<ele>698</ele>
<time>2017-03-03T10:38:26Z</time>
</trkpt>
<trkpt lat="40.63271833333333" lon="-3.1733300000000004">
<ele>697</ele>
<time>2017-03-03T10:38:30Z</time>
</trkpt>
<trkpt lat="40.63271833333333" lon="-3.1733300000000004">
<ele>697</ele>
<time>2017-03-03T10:38:34Z</time>
</trkpt>
<trkpt lat="40.63271833333333" lon="-3.1733300000000004">
<ele>697</ele>
<time>2017-03-03T10:38:38Z</time>
</trkpt>
<trkpt lat="40.63281666666667" lon="-3.173466666666667">
<ele>696</ele>
<time>2017-03-03T10:38:42Z</time>
</trkpt>
<trkpt lat="40.632815" lon="-3.1734766666666663">
<ele>696</ele>
<time>2017-03-03T10:38:46Z</time>
</trkpt>
<trkpt lat="40.632815" lon="-3.1734766666666663">
<ele>696</ele>
<time>2017-03-03T10:38:50Z</time>
</trkpt>
<trkpt lat="40.632815" lon="-3.1734766666666663">
<ele>696</ele>
<time>2017-03-03T10:38:54Z</time>
</trkpt>
<trkpt lat="40.63287166666667" lon="-3.173653333333333">
<ele>697</ele>
<time>2017-03-03T10:38:58Z</time>
</trkpt>
<trkpt lat="40.632888333333334" lon="-3.1736833333333334">
<ele>697</ele>
<time>2017-03-03T10:39:02Z</time>
</trkpt>
<trkpt lat="40.632889999999996" lon="-3.173691666666666">
<ele>697</ele>
<time>2017-03-03T10:39:06Z</time>
</trkpt>
<trkpt lat="40.63285166666667" lon="-3.1737449999999994">
<ele>697</ele>
<time>2017-03-03T10:39:10Z</time>
</trkpt>
<trkpt lat="40.632828333333336" lon="-3.173823333333333">
<ele>697</ele>
<time>2017-03-03T10:39:14Z</time>
</trkpt>
<trkpt lat="40.63281166666666" lon="-3.1739383333333335">
<ele>697</ele>
<time>2017-03-03T10:39:20Z</time>
</trkpt>
<trkpt lat="40.63290166666666" lon="-3.17409">
<ele>697</ele>
<time>2017-03-03T10:39:24Z</time>
</trkpt>
<trkpt lat="40.632619999999996" lon="-3.173578333333333">
<ele>698</ele>
<time>2017-03-03T10:39:28Z</time>
</trkpt>
<trkpt lat="40.63259333333333" lon="-3.1734716666666665">
<ele>699</ele>
<time>2017-03-03T10:39:32Z</time>
</trkpt>
<trkpt lat="40.63258" lon="-3.173481666666667">
<ele>699</ele>
<time>2017-03-03T10:39:36Z</time>
</trkpt>
<trkpt lat="40.63254833333334" lon="-3.1734933333333335">
<ele>699</ele>
<time>2017-03-03T10:39:40Z</time>
</trkpt>
<trkpt lat="40.63254833333334" lon="-3.1734933333333335">
<ele>699</ele>
<time>2017-03-03T10:39:44Z</time>
</trkpt>
<trkpt lat="40.63254833333334" lon="-3.1734933333333335">
<ele>699</ele>
<time>2017-03-03T10:39:48Z</time>
</trkpt>
<trkpt lat="40.63254833333334" lon="-3.1734933333333335">
<ele>699</ele>
<time>2017-03-03T10:39:52Z</time>
</trkpt>
<trkpt lat="40.632465" lon="-3.173438333333333">
<ele>699</ele>
<time>2017-03-03T10:39:56Z</time>
</trkpt>
<trkpt lat="40.63246166666667" lon="-3.17345">
<ele>700</ele>
<time>2017-03-03T10:40:00Z</time>
</trkpt>
<trkpt lat="40.63239333333333" lon="-3.173573333333333">
<ele>700</ele>
<time>2017-03-03T10:40:04Z</time>
</trkpt>
<trkpt lat="40.63223666666667" lon="-3.1738550000000005">
<ele>701</ele>
<time>2017-03-03T10:40:08Z</time>
</trkpt>
<trkpt lat="40.63200500000001" lon="-3.1734250000000004">
<ele>702</ele>
<time>2017-03-03T10:40:18Z</time>
</trkpt>
<trkpt lat="40.632081666666664" lon="-3.1734250000000004">
<ele>702</ele>
<time>2017-03-03T10:40:22Z</time>
</trkpt>
<trkpt lat="40.632621666666665" lon="-3.17325">
<ele>702</ele>
<time>2017-03-03T10:40:54Z</time>
</trkpt>
<trkpt lat="40.63262333333333" lon="-3.1732">
<ele>696</ele>
<time>2017-03-03T10:40:58Z</time>
</trkpt>
<trkpt lat="40.63276666666666" lon="-3.173186666666667">
<ele>682</ele>
<time>2017-03-03T10:41:02Z</time>
</trkpt>
<trkpt lat="40.63286333333333" lon="-3.1731800000000003">
<ele>675</ele>
<time>2017-03-03T10:41:06Z</time>
</trkpt>
<trkpt lat="40.63280333333333" lon="-3.1731516666666666">
<ele>673</ele>
<time>2017-03-03T10:41:10Z</time>
</trkpt>
<trkpt lat="40.63274666666667" lon="-3.173156666666667">
<ele>673</ele>
<time>2017-03-03T10:41:14Z</time>
</trkpt>
<trkpt lat="40.63271333333333" lon="-3.173208333333333">
<ele>678</ele>
<time>2017-03-03T10:41:18Z</time>
</trkpt>
<trkpt lat="40.63267666666666" lon="-3.173195">
<ele>679</ele>
<time>2017-03-03T10:41:22Z</time>
</trkpt>
<trkpt lat="40.63267666666666" lon="-3.173246666666666">
<ele>681</ele>
<time>2017-03-03T10:41:26Z</time>
</trkpt>
<trkpt lat="40.63266333333333" lon="-3.173251666666667">
<ele>686</ele>
<time>2017-03-03T10:41:30Z</time>
</trkpt>
<trkpt lat="40.63263" lon="-3.1732116666666665">
<ele>687</ele>
<time>2017-03-03T10:41:34Z</time>
</trkpt>
<trkpt lat="40.63258833333334" lon="-3.1732183333333333">
<ele>689</ele>
<time>2017-03-03T10:41:38Z</time>
</trkpt>
<trkpt lat="40.63259166666667" lon="-3.1732266666666664">
<ele>689</ele>
<time>2017-03-03T10:41:42Z</time>
</trkpt>
<trkpt lat="40.632735000000004" lon="-3.17349">
<ele>691</ele>
<time>2017-03-03T10:41:46Z</time>
</trkpt>
<trkpt lat="40.63274333333333" lon="-3.173468333333333">
<ele>691</ele>
<time>2017-03-03T10:41:50Z</time>
</trkpt>
<trkpt lat="40.63274666666667" lon="-3.173518333333333">
<ele>691</ele>
<time>2017-03-03T10:41:54Z</time>
</trkpt>
<trkpt lat="40.63282166666667" lon="-3.173631666666666">
<ele>691</ele>
<time>2017-03-03T10:41:58Z</time>
</trkpt>
<trkpt lat="40.63280333333333" lon="-3.1738550000000005">
<ele>691</ele>
<time>2017-03-03T10:42:02Z</time>
</trkpt>
<trkpt lat="40.632515" lon="-3.1736100000000005">
<ele>691</ele>
<time>2017-03-03T10:42:06Z</time>
</trkpt>
<trkpt lat="40.63246166666667" lon="-3.1736199999999997">
<ele>691</ele>
<time>2017-03-03T10:42:10Z</time>
</trkpt>
<trkpt lat="40.63242" lon="-3.1735749999999996">
<ele>692</ele>
<time>2017-03-03T10:42:14Z</time>
</trkpt>
<trkpt lat="40.632308333333334" lon="-3.1734766666666663">
<ele>693</ele>
<time>2017-03-03T10:42:18Z</time>
</trkpt>
<trkpt lat="40.63227333333334" lon="-3.173486666666667">
<ele>694</ele>
<time>2017-03-03T10:42:22Z</time>
</trkpt>
<trkpt lat="40.63227333333334" lon="-3.173486666666667">
<ele>694</ele>
<time>2017-03-03T10:42:26Z</time>
</trkpt>
<trkpt lat="40.63227333333334" lon="-3.173486666666667">
<ele>694</ele>
<time>2017-03-03T10:42:30Z</time>
</trkpt>
<trkpt lat="40.63234" lon="-3.173576666666667">
<ele>694</ele>
<time>2017-03-03T10:42:34Z</time>
</trkpt>
<trkpt lat="40.63239166666666" lon="-3.1736066666666667">
<ele>694</ele>
<time>2017-03-03T10:42:38Z</time>
</trkpt>
<trkpt lat="40.63246" lon="-3.1736250000000004">
<ele>694</ele>
<time>2017-03-03T10:42:42Z</time>
</trkpt>
<trkpt lat="40.63250333333334" lon="-3.17369">
<ele>693</ele>
<time>2017-03-03T10:42:46Z</time>
</trkpt>
<trkpt lat="40.63250333333334" lon="-3.17369">
<ele>693</ele>
<time>2017-03-03T10:42:50Z</time>
</trkpt>
<trkpt lat="40.63250333333334" lon="-3.17369">
<ele>693</ele>
<time>2017-03-03T10:42:54Z</time>
</trkpt>
<trkpt lat="40.63250333333334" lon="-3.17369">
<ele>693</ele>
<time>2017-03-03T10:42:58Z</time>
</trkpt>
<trkpt lat="40.63250333333334" lon="-3.17369">
<ele>693</ele>
<time>2017-03-03T10:43:02Z</time>
</trkpt>
<trkpt lat="40.63250333333334" lon="-3.17369">
<ele>693</ele>
<time>2017-03-03T10:43:06Z</time>
</trkpt>
<trkpt lat="40.63250333333334" lon="-3.17369">
<ele>693</ele>
<time>2017-03-03T10:43:10Z</time>
</trkpt>
<trkpt lat="40.63250333333334" lon="-3.17369">
<ele>693</ele>
<time>2017-03-03T10:43:14Z</time>
</trkpt>
<trkpt lat="40.63250333333334" lon="-3.17369">
<ele>693</ele>
<time>2017-03-03T10:43:18Z</time>
</trkpt>
<trkpt lat="40.63250333333334" lon="-3.17369">
<ele>693</ele>
<time>2017-03-03T10:43:22Z</time>
</trkpt>
<trkpt lat="40.63250333333334" lon="-3.17369">
<ele>693</ele>
<time>2017-03-03T10:43:26Z</time>
</trkpt>
<trkpt lat="40.63250333333334" lon="-3.17369">
<ele>693</ele>
<time>2017-03-03T10:43:30Z</time>
</trkpt>
<trkpt lat="40.63256166666667" lon="-3.1738283333333337">
<ele>693</ele>
<time>2017-03-03T10:43:34Z</time>
</trkpt>
<trkpt lat="40.632565" lon="-3.1738416666666667">
<ele>693</ele>
<time>2017-03-03T10:43:38Z</time>
</trkpt>
<trkpt lat="40.632565" lon="-3.1738416666666667">
<ele>693</ele>
<time>2017-03-03T10:43:42Z</time>
</trkpt>
<trkpt lat="40.632565" lon="-3.1738416666666667">
<ele>693</ele>
<time>2017-03-03T10:43:46Z</time>
</trkpt>
<trkpt lat="40.632565" lon="-3.1738416666666667">
<ele>693</ele>
<time>2017-03-03T10:43:50Z</time>
</trkpt>
<trkpt lat="40.632565" lon="-3.1738416666666667">
<ele>693</ele>
<time>2017-03-03T10:43:54Z</time>
</trkpt>
<trkpt lat="40.632565" lon="-3.1738416666666667">
<ele>693</ele>
<time>2017-03-03T10:43:58Z</time>
</trkpt>
<trkpt lat="40.632495" lon="-3.1738566666666665">
<ele>694</ele>
<time>2017-03-03T10:44:02Z</time>
</trkpt>
<trkpt lat="40.63251" lon="-3.1738049999999998">
<ele>693</ele>
<time>2017-03-03T10:44:06Z</time>
</trkpt>
<trkpt lat="40.63247833333333" lon="-3.1737216666666663">
<ele>692</ele>
<time>2017-03-03T10:44:10Z</time>
</trkpt>
<trkpt lat="40.63241" lon="-3.1737683333333337">
<ele>693</ele>
<time>2017-03-03T10:44:14Z</time>
</trkpt>
<trkpt lat="40.632375" lon="-3.1738983333333333">
<ele>693</ele>
<time>2017-03-03T10:44:18Z</time>
</trkpt>
<trkpt lat="40.632355" lon="-3.1740616666666663">
<ele>695</ele>
<time>2017-03-03T10:44:22Z</time>
</trkpt>
<trkpt lat="40.63236666666667" lon="-3.174276666666666">
<ele>697</ele>
<time>2017-03-03T10:44:26Z</time>
</trkpt>
<trkpt lat="40.632355" lon="-3.174535">
<ele>699</ele>
<time>2017-03-03T10:44:30Z</time>
</trkpt>
<trkpt lat="40.63247" lon="-3.1746199999999996">
<ele>701</ele>
<time>2017-03-03T10:44:34Z</time>
</trkpt>
<trkpt lat="40.63249" lon="-3.174763333333333">
<ele>703</ele>
<time>2017-03-03T10:44:38Z</time>
</trkpt>
<trkpt lat="40.63250166666667" lon="-3.174911666666667">
<ele>705</ele>
<time>2017-03-03T10:44:42Z</time>
</trkpt>
<trkpt lat="40.632385" lon="-3.174718333333333">
<ele>707</ele>
<time>2017-03-03T10:44:46Z</time>
</trkpt>
<trkpt lat="40.632295" lon="-3.174475">
<ele>709</ele>
<time>2017-03-03T10:44:50Z</time>
</trkpt>
<trkpt lat="40.63229333333334" lon="-3.174443333333334">
<ele>709</ele>
<time>2017-03-03T10:44:54Z</time>
</trkpt>
<trkpt lat="40.63236333333334" lon="-3.1743099999999997">
<ele>713</ele>
<time>2017-03-03T10:44:58Z</time>
</trkpt>
<trkpt lat="40.632394999999995" lon="-3.1742416666666666">
<ele>715</ele>
<time>2017-03-03T10:45:02Z</time>
</trkpt>
<trkpt lat="40.63243166666667" lon="-3.1742383333333333">
<ele>716</ele>
<time>2017-03-03T10:45:06Z</time>
</trkpt>
<trkpt lat="40.63243166666667" lon="-3.1742383333333333">
<ele>716</ele>
<time>2017-03-03T10:45:10Z</time>
</trkpt>
<trkpt lat="40.63235833333333" lon="-3.1742883333333327">
<ele>720</ele>
<time>2017-03-03T10:45:14Z</time>
</trkpt>
<trkpt lat="40.63236333333334" lon="-3.1742649999999997">
<ele>720</ele>
<time>2017-03-03T10:45:18Z</time>
</trkpt>
<trkpt lat="40.63236333333334" lon="-3.1742649999999997">
<ele>720</ele>
<time>2017-03-03T10:45:22Z</time>
</trkpt>
<trkpt lat="40.632385" lon="-3.1741083333333338">
<ele>721</ele>
<time>2017-03-03T10:45:26Z</time>
</trkpt>
<trkpt lat="40.632385" lon="-3.1741083333333338">
<ele>721</ele>
<time>2017-03-03T10:45:30Z</time>
</trkpt>
<trkpt lat="40.632488333333335" lon="-3.1740883333333327">
<ele>722</ele>
<time>2017-03-03T10:45:34Z</time>
</trkpt>
<trkpt lat="40.63254" lon="-3.1740100000000004">
<ele>722</ele>
<time>2017-03-03T10:45:38Z</time>
</trkpt>
<trkpt lat="40.632553333333334" lon="-3.1739933333333332">
<ele>722</ele>
<time>2017-03-03T10:45:42Z</time>
</trkpt>
<trkpt lat="40.632553333333334" lon="-3.1739933333333332">
<ele>722</ele>
<time>2017-03-03T10:45:46Z</time>
</trkpt>
<trkpt lat="40.63256833333333" lon="-3.1736833333333334">
<ele>721</ele>
<time>2017-03-03T10:45:50Z</time>
</trkpt>
<trkpt lat="40.63256" lon="-3.173673333333333">
<ele>721</ele>
<time>2017-03-03T10:45:54Z</time>
</trkpt>
<trkpt lat="40.63253666666667" lon="-3.1736933333333335">
<ele>721</ele>
<time>2017-03-03T10:45:58Z</time>
</trkpt>
<trkpt lat="40.63259666666667" lon="-3.1737833333333336">
<ele>721</ele>
<time>2017-03-03T10:46:02Z</time>
</trkpt>
<trkpt lat="40.632645000000004" lon="-3.173903333333333">
<ele>722</ele>
<time>2017-03-03T10:46:06Z</time>
</trkpt>
<trkpt lat="40.63266833333333" lon="-3.173953333333334">
<ele>724</ele>
<time>2017-03-03T10:46:10Z</time>
</trkpt>
<trkpt lat="40.632693333333336" lon="-3.1739966666666666">
<ele>726</ele>
<time>2017-03-03T10:46:14Z</time>
</trkpt>
<trkpt lat="40.632706666666664" lon="-3.173978333333333">
<ele>727</ele>
<time>2017-03-03T10:46:18Z</time>
</trkpt>
<trkpt lat="40.63268333333333" lon="-3.174021666666667">
<ele>728</ele>
<time>2017-03-03T10:46:22Z</time>
</trkpt>
<trkpt lat="40.632693333333336" lon="-3.17409">
<ele>730</ele>
<time>2017-03-03T10:46:26Z</time>
</trkpt>
<trkpt lat="40.632621666666665" lon="-3.173845">
<ele>731</ele>
<time>2017-03-03T10:46:30Z</time>
</trkpt>
<trkpt lat="40.63259333333333" lon="-3.1738866666666667">
<ele>732</ele>
<time>2017-03-03T10:46:34Z</time>
</trkpt>
<trkpt lat="40.63263" lon="-3.1738983333333333">
<ele>733</ele>
<time>2017-03-03T10:46:38Z</time>
</trkpt>
<trkpt lat="40.63266333333333" lon="-3.17389">
<ele>734</ele>
<time>2017-03-03T10:46:42Z</time>
</trkpt>
<trkpt lat="40.632645000000004" lon="-3.1738616666666664">
<ele>735</ele>
<time>2017-03-03T10:46:46Z</time>
</trkpt>
<trkpt lat="40.632643333333334" lon="-3.1738566666666665">
<ele>735</ele>
<time>2017-03-03T10:46:50Z</time>
</trkpt>
<trkpt lat="40.632643333333334" lon="-3.1738566666666665">
<ele>735</ele>
<time>2017-03-03T10:46:54Z</time>
</trkpt>
<trkpt lat="40.63275333333333" lon="-3.1738866666666667">
<ele>735</ele>
<time>2017-03-03T10:46:58Z</time>
</trkpt>
<trkpt lat="40.63276833333334" lon="-3.1738716666666664">
<ele>735</ele>
<time>2017-03-03T10:47:02Z</time>
</trkpt>
<trkpt lat="40.63276833333334" lon="-3.1738716666666664">
<ele>735</ele>
<time>2017-03-03T10:47:06Z</time>
</trkpt>
<trkpt lat="40.63268333333333" lon="-3.1739166666666665">
<ele>734</ele>
<time>2017-03-03T10:47:10Z</time>
</trkpt>
<trkpt lat="40.632648333333336" lon="-3.173935">
<ele>734</ele>
<time>2017-03-03T10:47:14Z</time>
</trkpt>
<trkpt lat="40.632605" lon="-3.1740566666666665">
<ele>733</ele>
<time>2017-03-03T10:47:18Z</time>
</trkpt>
<trkpt lat="40.63251833333334" lon="-3.174118333333333">
<ele>733</ele>
<time>2017-03-03T10:47:22Z</time>
</trkpt>
<trkpt lat="40.63253833333333" lon="-3.174275">
<ele>730</ele>
<time>2017-03-03T10:47:26Z</time>
</trkpt>
<trkpt lat="40.63254833333334" lon="-3.174318333333333">
<ele>729</ele>
<time>2017-03-03T10:47:30Z</time>
</trkpt>
<trkpt lat="40.63254666666667" lon="-3.1743466666666666">
<ele>729</ele>
<time>2017-03-03T10:47:34Z</time>
</trkpt>
<trkpt lat="40.63254833333334" lon="-3.1744033333333332">
<ele>729</ele>
<time>2017-03-03T10:47:38Z</time>
</trkpt>
<trkpt lat="40.63257833333333" lon="-3.1744333333333334">
<ele>728</ele>
<time>2017-03-03T10:47:42Z</time>
</trkpt>
<trkpt lat="40.63264" lon="-3.174525">
<ele>728</ele>
<time>2017-03-03T10:47:46Z</time>
</trkpt>
<trkpt lat="40.63263333333334" lon="-3.1745383333333335">
<ele>728</ele>
<time>2017-03-03T10:47:50Z</time>
</trkpt>
<trkpt lat="40.63263333333334" lon="-3.1745383333333335">
<ele>728</ele>
<time>2017-03-03T10:47:54Z</time>
</trkpt>
<trkpt lat="40.632685" lon="-3.174675">
<ele>732</ele>
<time>2017-03-03T10:47:58Z</time>
</trkpt>
<trkpt lat="40.63267666666666" lon="-3.174681666666667">
<ele>733</ele>
<time>2017-03-03T10:48:02Z</time>
</trkpt>
<trkpt lat="40.63267666666666" lon="-3.174681666666667">
<ele>733</ele>
<time>2017-03-03T10:48:06Z</time>
</trkpt>
<trkpt lat="40.63267666666666" lon="-3.174681666666667">
<ele>733</ele>
<time>2017-03-03T10:48:10Z</time>
</trkpt>
<trkpt lat="40.63267666666666" lon="-3.174681666666667">
<ele>733</ele>
<time>2017-03-03T10:48:14Z</time>
</trkpt>
<trkpt lat="40.63267666666666" lon="-3.174681666666667">
<ele>733</ele>
<time>2017-03-03T10:48:18Z</time>
</trkpt>
<trkpt lat="40.63267666666666" lon="-3.174681666666667">
<ele>733</ele>
<time>2017-03-03T10:48:22Z</time>
</trkpt>
<trkpt lat="40.63267666666666" lon="-3.174681666666667">
<ele>733</ele>
<time>2017-03-03T10:48:26Z</time>
</trkpt>
<trkpt lat="40.63274" lon="-3.174771666666667">
<ele>734</ele>
<time>2017-03-03T10:48:30Z</time>
</trkpt>
<trkpt lat="40.63272666666667" lon="-3.174793333333333">
<ele>733</ele>
<time>2017-03-03T10:48:34Z</time>
</trkpt>
<trkpt lat="40.632781666666666" lon="-3.1748483333333337">
<ele>733</ele>
<time>2017-03-03T10:48:38Z</time>
</trkpt>
<trkpt lat="40.63279" lon="-3.174911666666667">
<ele>733</ele>
<time>2017-03-03T10:48:42Z</time>
</trkpt>
<trkpt lat="40.63274333333333" lon="-3.174956666666667">
<ele>733</ele>
<time>2017-03-03T10:48:46Z</time>
</trkpt>
<trkpt lat="40.63273" lon="-3.175096666666667">
<ele>732</ele>
<time>2017-03-03T10:48:50Z</time>
</trkpt>
<trkpt lat="40.632751666666664" lon="-3.1751133333333335">
<ele>732</ele>
<time>2017-03-03T10:48:54Z</time>
</trkpt>
<trkpt lat="40.632775" lon="-3.174853333333333">
<ele>732</ele>
<time>2017-03-03T10:48:58Z</time>
</trkpt>
<trkpt lat="40.63276166666667" lon="-3.1747000000000005">
<ele>732</ele>
<time>2017-03-03T10:49:02Z</time>
</trkpt>
<trkpt lat="40.632756666666666" lon="-3.1746566666666665">
<ele>732</ele>
<time>2017-03-03T10:49:06Z</time>
</trkpt>
<trkpt lat="40.63265666666667" lon="-3.1745783333333333">
<ele>732</ele>
<time>2017-03-03T10:49:10Z</time>
</trkpt>
<trkpt lat="40.63263" lon="-3.174561666666667">
<ele>731</ele>
<time>2017-03-03T10:49:14Z</time>
</trkpt>
<trkpt lat="40.63263833333333" lon="-3.174585">
<ele>731</ele>
<time>2017-03-03T10:49:18Z</time>
</trkpt>
<trkpt lat="40.63276" lon="-3.1747650000000003">
<ele>730</ele>
<time>2017-03-03T10:49:22Z</time>
</trkpt>
<trkpt lat="40.63277666666667" lon="-3.1746266666666667">
<ele>727</ele>
<time>2017-03-03T10:49:26Z</time>
</trkpt>
<trkpt lat="40.63280833333333" lon="-3.174585">
<ele>724</ele>
<time>2017-03-03T10:49:30Z</time>
</trkpt>
<trkpt lat="40.63286" lon="-3.174378333333333">
<ele>721</ele>
<time>2017-03-03T10:49:34Z</time>
</trkpt>
<trkpt lat="40.632915000000004" lon="-3.1742700000000004">
<ele>720</ele>
<time>2017-03-03T10:49:38Z</time>
</trkpt>
<trkpt lat="40.632981666666666" lon="-3.174195">
<ele>717</ele>
<time>2017-03-03T10:49:42Z</time>
</trkpt>
<trkpt lat="40.633048333333335" lon="-3.174156666666667">
<ele>715</ele>
<time>2017-03-03T10:49:46Z</time>
</trkpt>
<trkpt lat="40.63301666666667" lon="-3.174116666666667">
<ele>714</ele>
<time>2017-03-03T10:49:50Z</time>
</trkpt>
<trkpt lat="40.632934999999996" lon="-3.1741466666666667">
<ele>710</ele>
<time>2017-03-03T10:49:54Z</time>
</trkpt>
<trkpt lat="40.632888333333334" lon="-3.174105">
<ele>710</ele>
<time>2017-03-03T10:49:58Z</time>
</trkpt>
<trkpt lat="40.63288" lon="-3.174021666666667">
<ele>710</ele>
<time>2017-03-03T10:50:02Z</time>
</trkpt>
<trkpt lat="40.633005000000004" lon="-3.1739433333333333">
<ele>712</ele>
<time>2017-03-03T10:50:06Z</time>
</trkpt>
<trkpt lat="40.63302" lon="-3.1738799999999996">
<ele>715</ele>
<time>2017-03-03T10:50:10Z</time>
</trkpt>
<trkpt lat="40.63295666666667" lon="-3.1738250000000003">
<ele>717</ele>
<time>2017-03-03T10:50:14Z</time>
</trkpt>
<trkpt lat="40.632886666666664" lon="-3.1737800000000003">
<ele>719</ele>
<time>2017-03-03T10:50:18Z</time>
</trkpt>
<trkpt lat="40.632889999999996" lon="-3.173823333333333">
<ele>721</ele>
<time>2017-03-03T10:50:22Z</time>
</trkpt>
<trkpt lat="40.63289833333333" lon="-3.173823333333333">
<ele>722</ele>
<time>2017-03-03T10:50:26Z</time>
</trkpt>
<trkpt lat="40.63289666666667" lon="-3.1739650000000004">
<ele>726</ele>
<time>2017-03-03T10:50:30Z</time>
</trkpt>
<trkpt lat="40.632918333333336" lon="-3.1739599999999997">
<ele>727</ele>
<time>2017-03-03T10:50:34Z</time>
</trkpt>
<trkpt lat="40.63299833333333" lon="-3.173963333333333">
<ele>728</ele>
<time>2017-03-03T10:50:38Z</time>
</trkpt>
<trkpt lat="40.633050000000004" lon="-3.17395">
<ele>729</ele>
<time>2017-03-03T10:50:42Z</time>
</trkpt>
<trkpt lat="40.633135" lon="-3.1739883333333334">
<ele>730</ele>
<time>2017-03-03T10:50:46Z</time>
</trkpt>
<trkpt lat="40.63299" lon="-3.173813333333334">
<ele>700</ele>
<time>2017-03-03T10:51:08Z</time>
</trkpt>
<trkpt lat="40.63299833333333" lon="-3.17371">
<ele>699</ele>
<time>2017-03-03T10:51:12Z</time>
</trkpt>
<trkpt lat="40.633023333333334" lon="-3.1736866666666668">
<ele>701</ele>
<time>2017-03-03T10:51:16Z</time>
</trkpt>
<trkpt lat="40.63291" lon="-3.173601666666666">
<ele>698</ele>
<time>2017-03-03T10:51:20Z</time>
</trkpt>
<trkpt lat="40.63291666666667" lon="-3.173605">
<ele>698</ele>
<time>2017-03-03T10:51:24Z</time>
</trkpt>
<trkpt lat="40.63291666666667" lon="-3.173605">
<ele>698</ele>
<time>2017-03-03T10:51:28Z</time>
</trkpt>
<trkpt lat="40.63298333333333" lon="-3.1736266666666664">
<ele>700</ele>
<time>2017-03-03T10:51:32Z</time>
</trkpt>
<trkpt lat="40.63298666666667" lon="-3.1736">
<ele>700</ele>
<time>2017-03-03T10:51:36Z</time>
</trkpt>
<trkpt lat="40.633" lon="-3.1736383333333333">
<ele>700</ele>
<time>2017-03-03T10:51:40Z</time>
</trkpt>
<trkpt lat="40.63299833333333" lon="-3.1736250000000004">
<ele>701</ele>
<time>2017-03-03T10:51:44Z</time>
</trkpt>
<trkpt lat="40.63304333333333" lon="-3.173605">
<ele>701</ele>
<time>2017-03-03T10:51:48Z</time>
</trkpt>
<trkpt lat="40.633055" lon="-3.173563333333333">
<ele>701</ele>
<time>2017-03-03T10:51:52Z</time>
</trkpt>
<trkpt lat="40.63305666666667" lon="-3.173481666666667">
<ele>701</ele>
<time>2017-03-03T10:51:56Z</time>
</trkpt>
<trkpt lat="40.632868333333334" lon="-3.1734183333333332">
<ele>701</ele>
<time>2017-03-03T10:52:00Z</time>
</trkpt>
<trkpt lat="40.632868333333334" lon="-3.1734183333333332">
<ele>701</ele>
<time>2017-03-03T10:52:04Z</time>
</trkpt>
<trkpt lat="40.632868333333334" lon="-3.1734183333333332">
<ele>701</ele>
<time>2017-03-03T10:52:08Z</time>
</trkpt>
<trkpt lat="40.632868333333334" lon="-3.1734183333333332">
<ele>701</ele>
<time>2017-03-03T10:52:12Z</time>
</trkpt>
<trkpt lat="40.63308333333334" lon="-3.1735883333333335">
<ele>695</ele>
<time>2017-03-03T10:52:34Z</time>
</trkpt>
<trkpt lat="40.632965" lon="-3.173473333333333">
<ele>689</ele>
<time>2017-03-03T10:52:38Z</time>
</trkpt>
<trkpt lat="40.63301" lon="-3.17343">
<ele>687</ele>
<time>2017-03-03T10:52:42Z</time>
</trkpt>
<trkpt lat="40.633053333333336" lon="-3.173423333333333">
<ele>686</ele>
<time>2017-03-03T10:52:46Z</time>
</trkpt>
<trkpt lat="40.633053333333336" lon="-3.173423333333333">
<ele>686</ele>
<time>2017-03-03T10:52:50Z</time>
</trkpt>
<trkpt lat="40.633053333333336" lon="-3.173423333333333">
<ele>686</ele>
<time>2017-03-03T10:52:54Z</time>
</trkpt>
<trkpt lat="40.633053333333336" lon="-3.173423333333333">
<ele>686</ele>
<time>2017-03-03T10:52:58Z</time>
</trkpt>
<trkpt lat="40.633053333333336" lon="-3.173423333333333">
<ele>686</ele>
<time>2017-03-03T10:53:02Z</time>
</trkpt>
<trkpt lat="40.633053333333336" lon="-3.173423333333333">
<ele>686</ele>
<time>2017-03-03T10:53:06Z</time>
</trkpt>
<trkpt lat="40.633053333333336" lon="-3.173423333333333">
<ele>686</ele>
<time>2017-03-03T10:53:10Z</time>
</trkpt>
<trkpt lat="40.632981666666666" lon="-3.1733366666666663">
<ele>688</ele>
<time>2017-03-03T10:53:14Z</time>
</trkpt>
<trkpt lat="40.632985" lon="-3.1733449999999994">
<ele>688</ele>
<time>2017-03-03T10:53:18Z</time>
</trkpt>
<trkpt lat="40.63298666666667" lon="-3.1733516666666666">
<ele>688</ele>
<time>2017-03-03T10:53:22Z</time>
</trkpt>
<trkpt lat="40.632995" lon="-3.173393333333333">
<ele>688</ele>
<time>2017-03-03T10:53:26Z</time>
</trkpt>
<trkpt lat="40.63301" lon="-3.1734700000000005">
<ele>688</ele>
<time>2017-03-03T10:53:30Z</time>
</trkpt>
<trkpt lat="40.63295333333333" lon="-3.1735749999999996">
<ele>675</ele>
<time>2017-03-03T10:53:48Z</time>
</trkpt>
<trkpt lat="40.63295333333333" lon="-3.1735749999999996">
<ele>675</ele>
<time>2017-03-03T10:53:52Z</time>
</trkpt>
<trkpt lat="40.63299833333333" lon="-3.173535">
<ele>678</ele>
<time>2017-03-03T10:53:56Z</time>
</trkpt>
<trkpt lat="40.63307" lon="-3.1735433333333334">
<ele>679</ele>
<time>2017-03-03T10:54:00Z</time>
</trkpt>
<trkpt lat="40.63312666666666" lon="-3.173531666666667">
<ele>679</ele>
<time>2017-03-03T10:54:04Z</time>
</trkpt>
<trkpt lat="40.63317833333333" lon="-3.1735300000000004">
<ele>679</ele>
<time>2017-03-03T10:54:08Z</time>
</trkpt>
<trkpt lat="40.63323833333333" lon="-3.1736633333333333">
<ele>679</ele>
<time>2017-03-03T10:54:12Z</time>
</trkpt>
<trkpt lat="40.633296666666666" lon="-3.1737150000000005">
<ele>680</ele>
<time>2017-03-03T10:54:16Z</time>
</trkpt>
<trkpt lat="40.63341666666667" lon="-3.173795">
<ele>680</ele>
<time>2017-03-03T10:54:20Z</time>
</trkpt>
<trkpt lat="40.63312666666666" lon="-3.1733666666666664">
<ele>680</ele>
<time>2017-03-03T10:54:42Z</time>
</trkpt>
<trkpt lat="40.63312666666666" lon="-3.1733666666666664">
<ele>680</ele>
<time>2017-03-03T10:54:46Z</time>
</trkpt>
<trkpt lat="40.63312666666666" lon="-3.1733666666666664">
<ele>680</ele>
<time>2017-03-03T10:54:50Z</time>
</trkpt>
<trkpt lat="40.63312666666666" lon="-3.1733666666666664">
<ele>680</ele>
<time>2017-03-03T10:54:54Z</time>
</trkpt>
<trkpt lat="40.633230000000005" lon="-3.1734700000000005">
<ele>676</ele>
<time>2017-03-03T10:55:10Z</time>
</trkpt>
<trkpt lat="40.633230000000005" lon="-3.1734700000000005">
<ele>676</ele>
<time>2017-03-03T10:55:14Z</time>
</trkpt>
<trkpt lat="40.633230000000005" lon="-3.1734700000000005">
<ele>676</ele>
<time>2017-03-03T10:55:18Z</time>
</trkpt>
<trkpt lat="40.63325333333333" lon="-3.173573333333333">
<ele>678</ele>
<time>2017-03-03T10:55:22Z</time>
</trkpt>
<trkpt lat="40.63320833333333" lon="-3.17369">
<ele>678</ele>
<time>2017-03-03T10:55:26Z</time>
</trkpt>
<trkpt lat="40.63320833333333" lon="-3.1736716666666664">
<ele>678</ele>
<time>2017-03-03T10:55:30Z</time>
</trkpt>
<trkpt lat="40.63320833333333" lon="-3.173646666666666">
<ele>679</ele>
<time>2017-03-03T10:55:34Z</time>
</trkpt>
<trkpt lat="40.633275000000005" lon="-3.1737733333333336">
<ele>679</ele>
<time>2017-03-03T10:55:38Z</time>
</trkpt>
<trkpt lat="40.6333" lon="-3.1737749999999996">
<ele>679</ele>
<time>2017-03-03T10:55:42Z</time>
</trkpt>
<trkpt lat="40.633335" lon="-3.1738566666666665">
<ele>679</ele>
<time>2017-03-03T10:55:46Z</time>
</trkpt>
<trkpt lat="40.63330666666666" lon="-3.17337">
<ele>681</ele>
<time>2017-03-03T10:56:44Z</time>
</trkpt>
<trkpt lat="40.63325333333333" lon="-3.1733483333333328">
<ele>679</ele>
<time>2017-03-03T10:56:48Z</time>
</trkpt>
<trkpt lat="40.633305" lon="-3.1733616666666666">
<ele>681</ele>
<time>2017-03-03T10:56:52Z</time>
</trkpt>
<trkpt lat="40.63334666666666" lon="-3.173395">
<ele>680</ele>
<time>2017-03-03T10:56:56Z</time>
</trkpt>
<trkpt lat="40.633336666666665" lon="-3.1734433333333336">
<ele>680</ele>
<time>2017-03-03T10:57:00Z</time>
</trkpt>
<trkpt lat="40.633285" lon="-3.1734633333333333">
<ele>680</ele>
<time>2017-03-03T10:57:04Z</time>
</trkpt>
<trkpt lat="40.63328" lon="-3.1734983333333333">
<ele>678</ele>
<time>2017-03-03T10:57:08Z</time>
</trkpt>
<trkpt lat="40.63327833333334" lon="-3.1735016666666667">
<ele>678</ele>
<time>2017-03-03T10:57:12Z</time>
</trkpt>
<trkpt lat="40.63327833333334" lon="-3.1735016666666667">
<ele>678</ele>
<time>2017-03-03T10:57:16Z</time>
</trkpt>
<trkpt lat="40.63318833333334" lon="-3.1734483333333334">
<ele>678</ele>
<time>2017-03-03T10:57:20Z</time>
</trkpt>
<trkpt lat="40.63314666666667" lon="-3.1734116666666665">
<ele>678</ele>
<time>2017-03-03T10:57:24Z</time>
</trkpt>
<trkpt lat="40.63353333333334" lon="-3.173931666666667">
<ele>689</ele>
<time>2017-03-03T10:57:42Z</time>
</trkpt>
<trkpt lat="40.633426666666665" lon="-3.173911666666667">
<ele>687</ele>
<time>2017-03-03T10:57:46Z</time>
</trkpt>
<trkpt lat="40.633336666666665" lon="-3.17391">
<ele>682</ele>
<time>2017-03-03T10:57:50Z</time>
</trkpt>
<trkpt lat="40.63330166666666" lon="-3.1739083333333338">
<ele>677</ele>
<time>2017-03-03T10:57:54Z</time>
</trkpt>
<trkpt lat="40.63330166666666" lon="-3.1739083333333338">
<ele>677</ele>
<time>2017-03-03T10:57:58Z</time>
</trkpt>
<trkpt lat="40.63323166666667" lon="-3.1738100000000005">
<ele>670</ele>
<time>2017-03-03T10:58:02Z</time>
</trkpt>
<trkpt lat="40.6332" lon="-3.1737249999999997">
<ele>672</ele>
<time>2017-03-03T10:58:06Z</time>
</trkpt>
<trkpt lat="40.6332" lon="-3.1737249999999997">
<ele>672</ele>
<time>2017-03-03T10:58:10Z</time>
</trkpt>
<trkpt lat="40.6332" lon="-3.1737249999999997">
<ele>672</ele>
<time>2017-03-03T10:58:14Z</time>
</trkpt>
<trkpt lat="40.6332" lon="-3.1737249999999997">
<ele>672</ele>
<time>2017-03-03T10:58:18Z</time>
</trkpt>
<trkpt lat="40.6332" lon="-3.1737249999999997">
<ele>672</ele>
<time>2017-03-03T10:58:22Z</time>
</trkpt>
<trkpt lat="40.6332" lon="-3.1737249999999997">
<ele>672</ele>
<time>2017-03-03T10:58:26Z</time>
</trkpt>
<trkpt lat="40.6332" lon="-3.1737249999999997">
<ele>672</ele>
<time>2017-03-03T10:58:30Z</time>
</trkpt>
<trkpt lat="40.6332" lon="-3.1737249999999997">
<ele>672</ele>
<time>2017-03-03T10:58:34Z</time>
</trkpt>
<trkpt lat="40.63320833333333" lon="-3.1736033333333333">
<ele>679</ele>
<time>2017-03-03T10:58:38Z</time>
</trkpt>
<trkpt lat="40.63319666666666" lon="-3.173586666666667">
<ele>679</ele>
<time>2017-03-03T10:58:42Z</time>
</trkpt>
<trkpt lat="40.63315166666666" lon="-3.1736566666666666">
<ele>679</ele>
<time>2017-03-03T10:58:46Z</time>
</trkpt>
<trkpt lat="40.63314166666667" lon="-3.1737666666666664">
<ele>679</ele>
<time>2017-03-03T10:58:50Z</time>
</trkpt>
<trkpt lat="40.633098333333336" lon="-3.1738033333333333">
<ele>678</ele>
<time>2017-03-03T10:58:54Z</time>
</trkpt>
<trkpt lat="40.633098333333336" lon="-3.1738033333333333">
<ele>678</ele>
<time>2017-03-03T10:58:58Z</time>
</trkpt>
<trkpt lat="40.633098333333336" lon="-3.1738033333333333">
<ele>678</ele>
<time>2017-03-03T10:59:02Z</time>
</trkpt>
<trkpt lat="40.633098333333336" lon="-3.1738033333333333">
<ele>678</ele>
<time>2017-03-03T10:59:06Z</time>
</trkpt>
<trkpt lat="40.633135" lon="-3.173911666666667">
<ele>678</ele>
<time>2017-03-03T10:59:10Z</time>
</trkpt>
<trkpt lat="40.63315333333333" lon="-3.1739299999999995">
<ele>678</ele>
<time>2017-03-03T10:59:14Z</time>
</trkpt>
<trkpt lat="40.63315333333333" lon="-3.1739299999999995">
<ele>678</ele>
<time>2017-03-03T10:59:18Z</time>
</trkpt>
<trkpt lat="40.63303" lon="-3.1738250000000003">
<ele>678</ele>
<time>2017-03-03T10:59:22Z</time>
</trkpt>
<trkpt lat="40.63301166666667" lon="-3.1738383333333333">
<ele>678</ele>
<time>2017-03-03T10:59:26Z</time>
</trkpt>
<trkpt lat="40.63308166666666" lon="-3.1738799999999996">
<ele>678</ele>
<time>2017-03-03T10:59:30Z</time>
</trkpt>
<trkpt lat="40.63307666666666" lon="-3.1738700000000004">
<ele>678</ele>
<time>2017-03-03T10:59:34Z</time>
</trkpt>
<trkpt lat="40.63307666666666" lon="-3.1738700000000004">
<ele>678</ele>
<time>2017-03-03T10:59:38Z</time>
</trkpt>
<trkpt lat="40.633115" lon="-3.1739383333333335">
<ele>678</ele>
<time>2017-03-03T10:59:42Z</time>
</trkpt>
<trkpt lat="40.633113333333334" lon="-3.17394">
<ele>678</ele>
<time>2017-03-03T10:59:46Z</time>
</trkpt>
<trkpt lat="40.633115" lon="-3.1743816666666667">
<ele>685</ele>
<time>2017-03-03T11:00:08Z</time>
</trkpt>
<trkpt lat="40.633111666666665" lon="-3.174386666666666">
<ele>676</ele>
<time>2017-03-03T11:00:12Z</time>
</trkpt>
<trkpt lat="40.633111666666665" lon="-3.174386666666666">
<ele>676</ele>
<time>2017-03-03T11:00:16Z</time>
</trkpt>
<trkpt lat="40.633111666666665" lon="-3.174386666666666">
<ele>676</ele>
<time>2017-03-03T11:00:20Z</time>
</trkpt>
<trkpt lat="40.63276833333334" lon="-3.174398333333334">
<ele>680</ele>
<time>2017-03-03T11:00:44Z</time>
</trkpt>
<trkpt lat="40.632895" lon="-3.1745233333333336">
<ele>677</ele>
<time>2017-03-03T11:00:48Z</time>
</trkpt>
<trkpt lat="40.632995" lon="-3.174525">
<ele>681</ele>
<time>2017-03-03T11:00:52Z</time>
</trkpt>
<trkpt lat="40.63305166666667" lon="-3.174503333333333">
<ele>686</ele>
<time>2017-03-03T11:00:56Z</time>
</trkpt>
<trkpt lat="40.633113333333334" lon="-3.174495">
<ele>691</ele>
<time>2017-03-03T11:01:00Z</time>
</trkpt>
<trkpt lat="40.63313" lon="-3.1744833333333333">
<ele>695</ele>
<time>2017-03-03T11:01:04Z</time>
</trkpt>
<trkpt lat="40.63313" lon="-3.1744833333333333">
<ele>695</ele>
<time>2017-03-03T11:01:08Z</time>
</trkpt>
<trkpt lat="40.633053333333336" lon="-3.174458333333333">
<ele>701</ele>
<time>2017-03-03T11:01:12Z</time>
</trkpt>
<trkpt lat="40.63304" lon="-3.174451666666667">
<ele>702</ele>
<time>2017-03-03T11:01:16Z</time>
</trkpt>
<trkpt lat="40.633055" lon="-3.174445">
<ele>701</ele>
<time>2017-03-03T11:01:20Z</time>
</trkpt>
<trkpt lat="40.63308166666666" lon="-3.174476666666666">
<ele>701</ele>
<time>2017-03-03T11:01:24Z</time>
</trkpt>
<trkpt lat="40.633140000000004" lon="-3.174453333333333">
<ele>699</ele>
<time>2017-03-03T11:01:28Z</time>
</trkpt>
<trkpt lat="40.633183333333335" lon="-3.1743816666666667">
<ele>699</ele>
<time>2017-03-03T11:01:32Z</time>
</trkpt>
<trkpt lat="40.633195" lon="-3.174311666666667">
<ele>699</ele>
<time>2017-03-03T11:01:36Z</time>
</trkpt>
<trkpt lat="40.63322166666667" lon="-3.174251666666667">
<ele>699</ele>
<time>2017-03-03T11:01:40Z</time>
</trkpt>
<trkpt lat="40.633215" lon="-3.1742266666666668">
<ele>699</ele>
<time>2017-03-03T11:01:44Z</time>
</trkpt>
<trkpt lat="40.633215" lon="-3.1742266666666668">
<ele>699</ele>
<time>2017-03-03T11:01:48Z</time>
</trkpt>
<trkpt lat="40.63328666666666" lon="-3.17426">
<ele>700</ele>
<time>2017-03-03T11:01:52Z</time>
</trkpt>
<trkpt lat="40.633320000000005" lon="-3.1742633333333337">
<ele>700</ele>
<time>2017-03-03T11:01:56Z</time>
</trkpt>
<trkpt lat="40.63334166666667" lon="-3.174311666666667">
<ele>700</ele>
<time>2017-03-03T11:02:00Z</time>
</trkpt>
<trkpt lat="40.63334166666667" lon="-3.174311666666667">
<ele>700</ele>
<time>2017-03-03T11:02:04Z</time>
</trkpt>
<trkpt lat="40.63334166666667" lon="-3.174311666666667">
<ele>700</ele>
<time>2017-03-03T11:02:08Z</time>
</trkpt>
<trkpt lat="40.63332666666667" lon="-3.174431666666666">
<ele>700</ele>
<time>2017-03-03T11:02:12Z</time>
</trkpt>
<trkpt lat="40.63331166666667" lon="-3.1744416666666666">
<ele>700</ele>
<time>2017-03-03T11:02:16Z</time>
</trkpt>
<trkpt lat="40.63331166666667" lon="-3.1744416666666666">
<ele>700</ele>
<time>2017-03-03T11:02:20Z</time>
</trkpt>
<trkpt lat="40.63331166666667" lon="-3.1744416666666666">
<ele>700</ele>
<time>2017-03-03T11:02:24Z</time>
</trkpt>
<trkpt lat="40.63328833333333" lon="-3.1745883333333333">
<ele>700</ele>
<time>2017-03-03T11:02:28Z</time>
</trkpt>
<trkpt lat="40.63328833333333" lon="-3.1745883333333333">
<ele>700</ele>
<time>2017-03-03T11:02:32Z</time>
</trkpt>
<trkpt lat="40.63328833333333" lon="-3.1745883333333333">
<ele>700</ele>
<time>2017-03-03T11:02:36Z</time>
</trkpt>
<trkpt lat="40.6334" lon="-3.1747383333333334">
<ele>699</ele>
<time>2017-03-03T11:02:40Z</time>
</trkpt>
<trkpt lat="40.6334" lon="-3.1747383333333334">
<ele>699</ele>
<time>2017-03-03T11:02:44Z</time>
</trkpt>
<trkpt lat="40.6334" lon="-3.1747383333333334">
<ele>699</ele>
<time>2017-03-03T11:02:48Z</time>
</trkpt>
<trkpt lat="40.6334" lon="-3.1747383333333334">
<ele>699</ele>
<time>2017-03-03T11:02:52Z</time>
</trkpt>
<trkpt lat="40.63346166666667" lon="-3.174776666666667">
<ele>699</ele>
<time>2017-03-03T11:02:56Z</time>
</trkpt>
<trkpt lat="40.633465" lon="-3.1747733333333334">
<ele>699</ele>
<time>2017-03-03T11:03:00Z</time>
</trkpt>
<trkpt lat="40.633465" lon="-3.1747733333333334">
<ele>699</ele>
<time>2017-03-03T11:03:04Z</time>
</trkpt>
<trkpt lat="40.633465" lon="-3.1747733333333334">
<ele>699</ele>
<time>2017-03-03T11:03:08Z</time>
</trkpt>
<trkpt lat="40.633465" lon="-3.1747733333333334">
<ele>699</ele>
<time>2017-03-03T11:03:12Z</time>
</trkpt>
<trkpt lat="40.633465" lon="-3.1747733333333334">
<ele>699</ele>
<time>2017-03-03T11:03:16Z</time>
</trkpt>
<trkpt lat="40.633465" lon="-3.1747733333333334">
<ele>699</ele>
<time>2017-03-03T11:03:20Z</time>
</trkpt>
<trkpt lat="40.633465" lon="-3.1747733333333334">
<ele>699</ele>
<time>2017-03-03T11:03:24Z</time>
</trkpt>
<trkpt lat="40.633465" lon="-3.1747733333333334">
<ele>699</ele>
<time>2017-03-03T11:03:28Z</time>
</trkpt>
<trkpt lat="40.633465" lon="-3.1747733333333334">
<ele>699</ele>
<time>2017-03-03T11:03:32Z</time>
</trkpt>
<trkpt lat="40.633465" lon="-3.1747733333333334">
<ele>699</ele>
<time>2017-03-03T11:03:36Z</time>
</trkpt>
<trkpt lat="40.633465" lon="-3.1747733333333334">
<ele>699</ele>
<time>2017-03-03T11:03:40Z</time>
</trkpt>
<trkpt lat="40.633403333333334" lon="-3.1746933333333334">
<ele>696</ele>
<time>2017-03-03T11:03:44Z</time>
</trkpt>
<trkpt lat="40.633403333333334" lon="-3.1746933333333334">
<ele>696</ele>
<time>2017-03-03T11:03:48Z</time>
</trkpt>
<trkpt lat="40.633403333333334" lon="-3.1746933333333334">
<ele>696</ele>
<time>2017-03-03T11:03:52Z</time>
</trkpt>
<trkpt lat="40.633403333333334" lon="-3.1746933333333334">
<ele>696</ele>
<time>2017-03-03T11:03:56Z</time>
</trkpt>
<trkpt lat="40.63330666666666" lon="-3.1746700000000003">
<ele>695</ele>
<time>2017-03-03T11:04:00Z</time>
</trkpt>
<trkpt lat="40.63330666666666" lon="-3.1746700000000003">
<ele>695</ele>
<time>2017-03-03T11:04:04Z</time>
</trkpt>
<trkpt lat="40.63330666666666" lon="-3.1746700000000003">
<ele>695</ele>
<time>2017-03-03T11:04:08Z</time>
</trkpt>
<trkpt lat="40.63330666666666" lon="-3.1746700000000003">
<ele>695</ele>
<time>2017-03-03T11:04:12Z</time>
</trkpt>
<trkpt lat="40.63330666666666" lon="-3.1746700000000003">
<ele>695</ele>
<time>2017-03-03T11:04:16Z</time>
</trkpt>
<trkpt lat="40.63331" lon="-3.1746933333333334">
<ele>695</ele>
<time>2017-03-03T11:04:20Z</time>
</trkpt>
<trkpt lat="40.63364166666667" lon="-3.1747599999999996">
<ele>722</ele>
<time>2017-03-03T11:05:20Z</time>
</trkpt>
<trkpt lat="40.63386166666667" lon="-3.1748016666666663">
<ele>723</ele>
<time>2017-03-03T11:05:24Z</time>
</trkpt>
<trkpt lat="40.633921666666666" lon="-3.1747366666666665">
<ele>716</ele>
<time>2017-03-03T11:05:28Z</time>
</trkpt>
<trkpt lat="40.633923333333335" lon="-3.174696666666667">
<ele>715</ele>
<time>2017-03-03T11:05:32Z</time>
</trkpt>
<trkpt lat="40.633918333333334" lon="-3.1746566666666665">
<ele>713</ele>
<time>2017-03-03T11:05:36Z</time>
</trkpt>
<trkpt lat="40.63388333333333" lon="-3.1746499999999997">
<ele>712</ele>
<time>2017-03-03T11:05:40Z</time>
</trkpt>
<trkpt lat="40.63388333333333" lon="-3.1746499999999997">
<ele>712</ele>
<time>2017-03-03T11:05:44Z</time>
</trkpt>
<trkpt lat="40.63388333333333" lon="-3.1746499999999997">
<ele>712</ele>
<time>2017-03-03T11:05:48Z</time>
</trkpt>
<trkpt lat="40.63381666666667" lon="-3.174676666666666">
<ele>711</ele>
<time>2017-03-03T11:05:52Z</time>
</trkpt>
<trkpt lat="40.633811666666666" lon="-3.1746600000000003">
<ele>713</ele>
<time>2017-03-03T11:05:56Z</time>
</trkpt>
<trkpt lat="40.633741666666666" lon="-3.1745599999999996">
<ele>711</ele>
<time>2017-03-03T11:06:00Z</time>
</trkpt>
<trkpt lat="40.63368333333334" lon="-3.17457">
<ele>712</ele>
<time>2017-03-03T11:06:04Z</time>
</trkpt>
<trkpt lat="40.63363666666667" lon="-3.1745816666666666">
<ele>712</ele>
<time>2017-03-03T11:06:08Z</time>
</trkpt>
<trkpt lat="40.63361833333333" lon="-3.174615">
<ele>709</ele>
<time>2017-03-03T11:06:12Z</time>
</trkpt>
<trkpt lat="40.63361833333333" lon="-3.174615">
<ele>709</ele>
<time>2017-03-03T11:06:16Z</time>
</trkpt>
<trkpt lat="40.63361833333333" lon="-3.174615">
<ele>709</ele>
<time>2017-03-03T11:06:20Z</time>
</trkpt>
<trkpt lat="40.63370833333333" lon="-3.174673333333333">
<ele>700</ele>
<time>2017-03-03T11:06:24Z</time>
</trkpt>
<trkpt lat="40.63370833333333" lon="-3.174673333333333">
<ele>700</ele>
<time>2017-03-03T11:06:28Z</time>
</trkpt>
<trkpt lat="40.63370833333333" lon="-3.174673333333333">
<ele>700</ele>
<time>2017-03-03T11:06:32Z</time>
</trkpt>
<trkpt lat="40.633786666666666" lon="-3.1745883333333333">
<ele>695</ele>
<time>2017-03-03T11:06:36Z</time>
</trkpt>
<trkpt lat="40.63379166666667" lon="-3.1745883333333333">
<ele>695</ele>
<time>2017-03-03T11:06:40Z</time>
</trkpt>
<trkpt lat="40.63379166666667" lon="-3.1745883333333333">
<ele>695</ele>
<time>2017-03-03T11:06:44Z</time>
</trkpt>
<trkpt lat="40.63379166666667" lon="-3.1745883333333333">
<ele>695</ele>
<time>2017-03-03T11:06:48Z</time>
</trkpt>
<trkpt lat="40.63379166666667" lon="-3.1745883333333333">
<ele>695</ele>
<time>2017-03-03T11:06:52Z</time>
</trkpt>
<trkpt lat="40.63379166666667" lon="-3.1745883333333333">
<ele>695</ele>
<time>2017-03-03T11:06:56Z</time>
</trkpt>
<trkpt lat="40.63379" lon="-3.174525">
<ele>696</ele>
<time>2017-03-03T11:07:06Z</time>
</trkpt>
<trkpt lat="40.633955" lon="-3.17404">
<ele>692</ele>
<time>2017-03-03T11:07:48Z</time>
</trkpt>
<trkpt lat="40.634065" lon="-3.1739933333333332">
<ele>696</ele>
<time>2017-03-03T11:07:52Z</time>
</trkpt>
<trkpt lat="40.63403166666667" lon="-3.174135">
<ele>692</ele>
<time>2017-03-03T11:07:56Z</time>
</trkpt>
<trkpt lat="40.634013333333336" lon="-3.174158333333333">
<ele>693</ele>
<time>2017-03-03T11:08:00Z</time>
</trkpt>
<trkpt lat="40.634013333333336" lon="-3.174158333333333">
<ele>693</ele>
<time>2017-03-03T11:08:04Z</time>
</trkpt>
<trkpt lat="40.63395166666667" lon="-3.17423">
<ele>695</ele>
<time>2017-03-03T11:08:08Z</time>
</trkpt>
<trkpt lat="40.633945000000004" lon="-3.174223333333333">
<ele>695</ele>
<time>2017-03-03T11:08:12Z</time>
</trkpt>
<trkpt lat="40.633945000000004" lon="-3.174223333333333">
<ele>695</ele>
<time>2017-03-03T11:08:16Z</time>
</trkpt>
<trkpt lat="40.633945000000004" lon="-3.174223333333333">
<ele>695</ele>
<time>2017-03-03T11:08:20Z</time>
</trkpt>
<trkpt lat="40.633945000000004" lon="-3.174223333333333">
<ele>695</ele>
<time>2017-03-03T11:08:24Z</time>
</trkpt>
<trkpt lat="40.633945000000004" lon="-3.174223333333333">
<ele>695</ele>
<time>2017-03-03T11:08:28Z</time>
</trkpt>
<trkpt lat="40.633945000000004" lon="-3.174223333333333">
<ele>695</ele>
<time>2017-03-03T11:08:32Z</time>
</trkpt>
<trkpt lat="40.633945000000004" lon="-3.174223333333333">
<ele>695</ele>
<time>2017-03-03T11:08:36Z</time>
</trkpt>
<trkpt lat="40.633945000000004" lon="-3.174223333333333">
<ele>695</ele>
<time>2017-03-03T11:08:40Z</time>
</trkpt>
<trkpt lat="40.633945000000004" lon="-3.174223333333333">
<ele>695</ele>
<time>2017-03-03T11:08:44Z</time>
</trkpt>
<trkpt lat="40.633826666666664" lon="-3.1741516666666665">
<ele>684</ele>
<time>2017-03-03T11:08:48Z</time>
</trkpt>
<trkpt lat="40.633685" lon="-3.1740283333333337">
<ele>682</ele>
<time>2017-03-03T11:08:52Z</time>
</trkpt>
<trkpt lat="40.63371166666666" lon="-3.1739666666666664">
<ele>679</ele>
<time>2017-03-03T11:08:56Z</time>
</trkpt>
<trkpt lat="40.63370166666667" lon="-3.1739383333333335">
<ele>678</ele>
<time>2017-03-03T11:09:00Z</time>
</trkpt>
<trkpt lat="40.633741666666666" lon="-3.173958333333333">
<ele>677</ele>
<time>2017-03-03T11:09:04Z</time>
</trkpt>
<trkpt lat="40.63376166666667" lon="-3.1739899999999994">
<ele>676</ele>
<time>2017-03-03T11:09:08Z</time>
</trkpt>
<trkpt lat="40.633775" lon="-3.1740049999999997">
<ele>676</ele>
<time>2017-03-03T11:09:12Z</time>
</trkpt>
<trkpt lat="40.633775" lon="-3.1740049999999997">
<ele>676</ele>
<time>2017-03-03T11:09:16Z</time>
</trkpt>
<trkpt lat="40.633775" lon="-3.1740049999999997">
<ele>676</ele>
<time>2017-03-03T11:09:20Z</time>
</trkpt>
<trkpt lat="40.633775" lon="-3.1740049999999997">
<ele>676</ele>
<time>2017-03-03T11:09:24Z</time>
</trkpt>
<trkpt lat="40.633775" lon="-3.1740049999999997">
<ele>676</ele>
<time>2017-03-03T11:09:28Z</time>
</trkpt>
<trkpt lat="40.633775" lon="-3.1740049999999997">
<ele>676</ele>
<time>2017-03-03T11:09:32Z</time>
</trkpt>
<trkpt lat="40.63381833333334" lon="-3.1739616666666666">
<ele>676</ele>
<time>2017-03-03T11:09:36Z</time>
</trkpt>
<trkpt lat="40.63381666666667" lon="-3.1739816666666667">
<ele>676</ele>
<time>2017-03-03T11:09:40Z</time>
</trkpt>
<trkpt lat="40.63381666666667" lon="-3.1739816666666667">
<ele>676</ele>
<time>2017-03-03T11:09:44Z</time>
</trkpt>
<trkpt lat="40.63381666666667" lon="-3.1739816666666667">
<ele>676</ele>
<time>2017-03-03T11:09:48Z</time>
</trkpt>
<trkpt lat="40.63381666666667" lon="-3.1739816666666667">
<ele>676</ele>
<time>2017-03-03T11:09:52Z</time>
</trkpt>
<trkpt lat="40.633745" lon="-3.174045">
<ele>677</ele>
<time>2017-03-03T11:09:56Z</time>
</trkpt>
<trkpt lat="40.6337" lon="-3.1740649999999997">
<ele>677</ele>
<time>2017-03-03T11:10:00Z</time>
</trkpt>
<trkpt lat="40.63366666666666" lon="-3.174111666666667">
<ele>677</ele>
<time>2017-03-03T11:10:04Z</time>
</trkpt>
<trkpt lat="40.63394" lon="-3.173636666666667">
<ele>664</ele>
<time>2017-03-03T11:10:52Z</time>
</trkpt>
<trkpt lat="40.634011666666666" lon="-3.1736400000000002">
<ele>669</ele>
<time>2017-03-03T11:10:56Z</time>
</trkpt>
<trkpt lat="40.634006666666664" lon="-3.173631666666666">
<ele>670</ele>
<time>2017-03-03T11:11:00Z</time>
</trkpt>
<trkpt lat="40.634013333333336" lon="-3.173595">
<ele>673</ele>
<time>2017-03-03T11:11:04Z</time>
</trkpt>
<trkpt lat="40.63403166666667" lon="-3.173613333333334">
<ele>673</ele>
<time>2017-03-03T11:11:08Z</time>
</trkpt>
<trkpt lat="40.63403166666667" lon="-3.173613333333334">
<ele>673</ele>
<time>2017-03-03T11:11:12Z</time>
</trkpt>
<trkpt lat="40.63403166666667" lon="-3.173613333333334">
<ele>673</ele>
<time>2017-03-03T11:11:16Z</time>
</trkpt>
<trkpt lat="40.63403166666667" lon="-3.173613333333334">
<ele>673</ele>
<time>2017-03-03T11:11:20Z</time>
</trkpt>
<trkpt lat="40.63403166666667" lon="-3.173613333333334">
<ele>673</ele>
<time>2017-03-03T11:11:24Z</time>
</trkpt>
<trkpt lat="40.63403166666667" lon="-3.173613333333334">
<ele>673</ele>
<time>2017-03-03T11:11:28Z</time>
</trkpt>
<trkpt lat="40.633966666666666" lon="-3.1736400000000002">
<ele>670</ele>
<time>2017-03-03T11:11:32Z</time>
</trkpt>
<trkpt lat="40.633853333333334" lon="-3.1735166666666665">
<ele>669</ele>
<time>2017-03-03T11:11:36Z</time>
</trkpt>
<trkpt lat="40.634281666666666" lon="-3.1735666666666664">
<ele>701</ele>
<time>2017-03-03T11:12:26Z</time>
</trkpt>
<trkpt lat="40.63428666666667" lon="-3.1734933333333335">
<ele>684</ele>
<time>2017-03-03T11:12:30Z</time>
</trkpt>
<trkpt lat="40.63428333333333" lon="-3.1734183333333332">
<ele>681</ele>
<time>2017-03-03T11:12:34Z</time>
</trkpt>
<trkpt lat="40.63420333333333" lon="-3.1733033333333327">
<ele>678</ele>
<time>2017-03-03T11:12:38Z</time>
</trkpt>
<trkpt lat="40.634165" lon="-3.17326">
<ele>678</ele>
<time>2017-03-03T11:12:42Z</time>
</trkpt>
<trkpt lat="40.63409" lon="-3.1732333333333336">
<ele>676</ele>
<time>2017-03-03T11:12:46Z</time>
</trkpt>
<trkpt lat="40.634026666666664" lon="-3.1731800000000003">
<ele>671</ele>
<time>2017-03-03T11:12:50Z</time>
</trkpt>
<trkpt lat="40.634011666666666" lon="-3.1731116666666668">
<ele>671</ele>
<time>2017-03-03T11:12:54Z</time>
</trkpt>
<trkpt lat="40.63395" lon="-3.17306">
<ele>670</ele>
<time>2017-03-03T11:12:58Z</time>
</trkpt>
<trkpt lat="40.633865" lon="-3.1730033333333334">
<ele>668</ele>
<time>2017-03-03T11:13:02Z</time>
</trkpt>
<trkpt lat="40.63379333333333" lon="-3.1729300000000005">
<ele>667</ele>
<time>2017-03-03T11:13:06Z</time>
</trkpt>
<trkpt lat="40.633736666666664" lon="-3.1728799999999997">
<ele>667</ele>
<time>2017-03-03T11:13:10Z</time>
</trkpt>
<trkpt lat="40.63369" lon="-3.172838333333333">
<ele>666</ele>
<time>2017-03-03T11:13:14Z</time>
</trkpt>
<trkpt lat="40.633635" lon="-3.1728133333333335">
<ele>667</ele>
<time>2017-03-03T11:13:18Z</time>
</trkpt>
<trkpt lat="40.63359166666667" lon="-3.1727666666666665">
<ele>667</ele>
<time>2017-03-03T11:13:22Z</time>
</trkpt>
<trkpt lat="40.63355166666667" lon="-3.1727150000000006">
<ele>667</ele>
<time>2017-03-03T11:13:26Z</time>
</trkpt>
<trkpt lat="40.63352666666666" lon="-3.1726783333333333">
<ele>666</ele>
<time>2017-03-03T11:13:30Z</time>
</trkpt>
<trkpt lat="40.63352666666666" lon="-3.1726483333333335">
<ele>667</ele>
<time>2017-03-03T11:13:34Z</time>
</trkpt>
<trkpt lat="40.633515" lon="-3.1725833333333338">
<ele>667</ele>
<time>2017-03-03T11:13:38Z</time>
</trkpt>
<trkpt lat="40.633495" lon="-3.17252">
<ele>668</ele>
<time>2017-03-03T11:13:42Z</time>
</trkpt>
<trkpt lat="40.63347666666667" lon="-3.1724716666666666">
<ele>667</ele>
<time>2017-03-03T11:13:46Z</time>
</trkpt>
<trkpt lat="40.633471666666665" lon="-3.1724566666666667">
<ele>668</ele>
<time>2017-03-03T11:13:50Z</time>
</trkpt>
<trkpt lat="40.63343" lon="-3.1724349999999997">
<ele>667</ele>
<time>2017-03-03T11:13:54Z</time>
</trkpt>
<trkpt lat="40.63338666666667" lon="-3.172408333333333">
<ele>667</ele>
<time>2017-03-03T11:13:58Z</time>
</trkpt>
<trkpt lat="40.63332833333333" lon="-3.1723083333333335">
<ele>668</ele>
<time>2017-03-03T11:14:02Z</time>
</trkpt>
<trkpt lat="40.63328666666666" lon="-3.1722266666666665">
<ele>669</ele>
<time>2017-03-03T11:14:06Z</time>
</trkpt>
<trkpt lat="40.63324" lon="-3.1721666666666666">
<ele>669</ele>
<time>2017-03-03T11:14:10Z</time>
</trkpt>
<trkpt lat="40.633181666666665" lon="-3.172096666666667">
<ele>669</ele>
<time>2017-03-03T11:14:14Z</time>
</trkpt>
<trkpt lat="40.63314166666667" lon="-3.1720433333333338">
<ele>668</ele>
<time>2017-03-03T11:14:18Z</time>
</trkpt>
<trkpt lat="40.63308666666667" lon="-3.171943333333333">
<ele>669</ele>
<time>2017-03-03T11:14:22Z</time>
</trkpt>
<trkpt lat="40.63302" lon="-3.1719000000000004">
<ele>669</ele>
<time>2017-03-03T11:14:26Z</time>
</trkpt>
<trkpt lat="40.63295666666667" lon="-3.171861666666666">
<ele>670</ele>
<time>2017-03-03T11:14:30Z</time>
</trkpt>
<trkpt lat="40.63290666666667" lon="-3.17183">
<ele>670</ele>
<time>2017-03-03T11:14:34Z</time>
</trkpt>
<trkpt lat="40.632846666666666" lon="-3.171808333333333">
<ele>670</ele>
<time>2017-03-03T11:14:38Z</time>
</trkpt>
<trkpt lat="40.63281333333334" lon="-3.171786666666667">
<ele>670</ele>
<time>2017-03-03T11:14:42Z</time>
</trkpt>
<trkpt lat="40.632783333333336" lon="-3.1717600000000004">
<ele>671</ele>
<time>2017-03-03T11:14:46Z</time>
</trkpt>
<trkpt lat="40.63271666666667" lon="-3.1717066666666662">
<ele>671</ele>
<time>2017-03-03T11:14:50Z</time>
</trkpt>
<trkpt lat="40.63266333333333" lon="-3.171653333333333">
<ele>672</ele>
<time>2017-03-03T11:14:54Z</time>
</trkpt>
<trkpt lat="40.63261333333333" lon="-3.1716283333333335">
<ele>672</ele>
<time>2017-03-03T11:14:58Z</time>
</trkpt>
<trkpt lat="40.63262666666667" lon="-3.1715999999999998">
<ele>672</ele>
<time>2017-03-03T11:15:02Z</time>
</trkpt>
<trkpt lat="40.63262666666667" lon="-3.1715999999999998">
<ele>672</ele>
<time>2017-03-03T11:15:06Z</time>
</trkpt>
<trkpt lat="40.63262666666667" lon="-3.1715999999999998">
<ele>672</ele>
<time>2017-03-03T11:15:10Z</time>
</trkpt>
<trkpt lat="40.63262666666667" lon="-3.1715999999999998">
<ele>672</ele>
<time>2017-03-03T11:15:14Z</time>
</trkpt>
<trkpt lat="40.63262666666667" lon="-3.1715999999999998">
<ele>672</ele>
<time>2017-03-03T11:15:18Z</time>
</trkpt>
<trkpt lat="40.63262666666667" lon="-3.1715999999999998">
<ele>672</ele>
<time>2017-03-03T11:15:22Z</time>
</trkpt>
<trkpt lat="40.63262666666667" lon="-3.1715999999999998">
<ele>672</ele>
<time>2017-03-03T11:15:26Z</time>
</trkpt>
<trkpt lat="40.632615" lon="-3.171476666666666">
<ele>677</ele>
<time>2017-03-03T11:15:30Z</time>
</trkpt>
<trkpt lat="40.632603333333336" lon="-3.1714716666666667">
<ele>677</ele>
<time>2017-03-03T11:15:34Z</time>
</trkpt>
<trkpt lat="40.632603333333336" lon="-3.1714716666666667">
<ele>677</ele>
<time>2017-03-03T11:15:38Z</time>
</trkpt>
<trkpt lat="40.632603333333336" lon="-3.1714716666666667">
<ele>677</ele>
<time>2017-03-03T11:15:42Z</time>
</trkpt>
<trkpt lat="40.632603333333336" lon="-3.1714716666666667">
<ele>677</ele>
<time>2017-03-03T11:15:46Z</time>
</trkpt>
<trkpt lat="40.632603333333336" lon="-3.1714716666666667">
<ele>677</ele>
<time>2017-03-03T11:15:50Z</time>
</trkpt>
<trkpt lat="40.632646666666666" lon="-3.1714633333333335">
<ele>681</ele>
<time>2017-03-03T11:15:54Z</time>
</trkpt>
<trkpt lat="40.63273166666667" lon="-3.1714266666666666">
<ele>679</ele>
<time>2017-03-03T11:15:58Z</time>
</trkpt>
<trkpt lat="40.632648333333336" lon="-3.171408333333333">
<ele>675</ele>
<time>2017-03-03T11:16:02Z</time>
</trkpt>
<trkpt lat="40.63261166666667" lon="-3.171393333333333">
<ele>674</ele>
<time>2017-03-03T11:16:06Z</time>
</trkpt>
<trkpt lat="40.632555" lon="-3.1714283333333335">
<ele>679</ele>
<time>2017-03-03T11:16:10Z</time>
</trkpt>
<trkpt lat="40.632505" lon="-3.171385">
<ele>684</ele>
<time>2017-03-03T11:16:14Z</time>
</trkpt>
<trkpt lat="40.632525" lon="-3.1713966666666664">
<ele>686</ele>
<time>2017-03-03T11:16:18Z</time>
</trkpt>
<trkpt lat="40.632525" lon="-3.1713966666666664">
<ele>686</ele>
<time>2017-03-03T11:16:22Z</time>
</trkpt>
<trkpt lat="40.632525" lon="-3.1713966666666664">
<ele>686</ele>
<time>2017-03-03T11:16:26Z</time>
</trkpt>
<trkpt lat="40.632525" lon="-3.1713966666666664">
<ele>686</ele>
<time>2017-03-03T11:16:30Z</time>
</trkpt>
<trkpt lat="40.632525" lon="-3.1713966666666664">
<ele>686</ele>
<time>2017-03-03T11:16:34Z</time>
</trkpt>
<trkpt lat="40.632525" lon="-3.1713966666666664">
<ele>686</ele>
<time>2017-03-03T11:16:38Z</time>
</trkpt>
<trkpt lat="40.632525" lon="-3.1713966666666664">
<ele>686</ele>
<time>2017-03-03T11:16:42Z</time>
</trkpt>
<trkpt lat="40.632525" lon="-3.1713966666666664">
<ele>686</ele>
<time>2017-03-03T11:16:46Z</time>
</trkpt>
<trkpt lat="40.632525" lon="-3.1713966666666664">
<ele>686</ele>
<time>2017-03-03T11:16:50Z</time>
</trkpt>
<trkpt lat="40.632525" lon="-3.1713966666666664">
<ele>686</ele>
<time>2017-03-03T11:16:54Z</time>
</trkpt>
<trkpt lat="40.632525" lon="-3.1713966666666664">
<ele>686</ele>
<time>2017-03-03T11:16:58Z</time>
</trkpt>
<trkpt lat="40.632455" lon="-3.1714733333333336">
<ele>698</ele>
<time>2017-03-03T11:17:02Z</time>
</trkpt>
<trkpt lat="40.632465" lon="-3.171485">
<ele>698</ele>
<time>2017-03-03T11:17:06Z</time>
</trkpt>
<trkpt lat="40.632465" lon="-3.171485">
<ele>698</ele>
<time>2017-03-03T11:17:10Z</time>
</trkpt>
<trkpt lat="40.632465" lon="-3.171485">
<ele>698</ele>
<time>2017-03-03T11:17:14Z</time>
</trkpt>
<trkpt lat="40.632465" lon="-3.171485">
<ele>698</ele>
<time>2017-03-03T11:17:18Z</time>
</trkpt>
<trkpt lat="40.632465" lon="-3.171485">
<ele>698</ele>
<time>2017-03-03T11:17:22Z</time>
</trkpt>
<trkpt lat="40.632465" lon="-3.171485">
<ele>698</ele>
<time>2017-03-03T11:17:26Z</time>
</trkpt>
<trkpt lat="40.632465" lon="-3.171485">
<ele>698</ele>
<time>2017-03-03T11:17:30Z</time>
</trkpt>
<trkpt lat="40.632465" lon="-3.171485">
<ele>698</ele>
<time>2017-03-03T11:17:34Z</time>
</trkpt>
<trkpt lat="40.632465" lon="-3.171485">
<ele>698</ele>
<time>2017-03-03T11:17:38Z</time>
</trkpt>
<trkpt lat="40.632465" lon="-3.171485">
<ele>698</ele>
<time>2017-03-03T11:17:42Z</time>
</trkpt>
<trkpt lat="40.63245333333334" lon="-3.1714700000000002">
<ele>699</ele>
<time>2017-03-03T11:17:46Z</time>
</trkpt>
<trkpt lat="40.632345" lon="-3.1713899999999997">
<ele>699</ele>
<time>2017-03-03T11:17:50Z</time>
</trkpt>
<trkpt lat="40.632286666666666" lon="-3.171325">
<ele>699</ele>
<time>2017-03-03T11:17:54Z</time>
</trkpt>
<trkpt lat="40.63227333333334" lon="-3.171316666666667">
<ele>699</ele>
<time>2017-03-03T11:17:58Z</time>
</trkpt>
<trkpt lat="40.63229333333334" lon="-3.1713000000000005">
<ele>699</ele>
<time>2017-03-03T11:18:02Z</time>
</trkpt>
<trkpt lat="40.63228" lon="-3.171343333333333">
<ele>699</ele>
<time>2017-03-03T11:18:06Z</time>
</trkpt>
<trkpt lat="40.632286666666666" lon="-3.171343333333333">
<ele>699</ele>
<time>2017-03-03T11:18:10Z</time>
</trkpt>
<trkpt lat="40.632286666666666" lon="-3.171343333333333">
<ele>699</ele>
<time>2017-03-03T11:18:14Z</time>
</trkpt>
<trkpt lat="40.632286666666666" lon="-3.171343333333333">
<ele>699</ele>
<time>2017-03-03T11:18:18Z</time>
</trkpt>
<trkpt lat="40.63218833333334" lon="-3.1712866666666666">
<ele>700</ele>
<time>2017-03-03T11:18:23Z</time>
</trkpt>
<trkpt lat="40.63218833333334" lon="-3.1712833333333332">
<ele>700</ele>
<time>2017-03-03T11:18:27Z</time>
</trkpt>
<trkpt lat="40.63218833333334" lon="-3.1712833333333332">
<ele>700</ele>
<time>2017-03-03T11:18:31Z</time>
</trkpt>
<trkpt lat="40.63218833333334" lon="-3.1712833333333332">
<ele>700</ele>
<time>2017-03-03T11:18:35Z</time>
</trkpt>
<trkpt lat="40.63218833333334" lon="-3.1712833333333332">
<ele>700</ele>
<time>2017-03-03T11:18:39Z</time>
</trkpt>
<trkpt lat="40.63205833333333" lon="-3.1712866666666666">
<ele>700</ele>
<time>2017-03-03T11:18:43Z</time>
</trkpt>
<trkpt lat="40.63205833333333" lon="-3.1712866666666666">
<ele>700</ele>
<time>2017-03-03T11:18:47Z</time>
</trkpt>
<trkpt lat="40.63196666666667" lon="-3.171305">
<ele>701</ele>
<time>2017-03-03T11:18:51Z</time>
</trkpt>
<trkpt lat="40.631930000000004" lon="-3.171275">
<ele>701</ele>
<time>2017-03-03T11:18:55Z</time>
</trkpt>
<trkpt lat="40.631930000000004" lon="-3.171275">
<ele>701</ele>
<time>2017-03-03T11:18:59Z</time>
</trkpt>
<trkpt lat="40.631930000000004" lon="-3.171275">
<ele>701</ele>
<time>2017-03-03T11:19:03Z</time>
</trkpt>
<trkpt lat="40.631930000000004" lon="-3.171275">
<ele>701</ele>
<time>2017-03-03T11:19:07Z</time>
</trkpt>
<trkpt lat="40.631930000000004" lon="-3.171275">
<ele>701</ele>
<time>2017-03-03T11:19:11Z</time>
</trkpt>
<trkpt lat="40.631930000000004" lon="-3.1711000000000005">
<ele>701</ele>
<time>2017-03-03T11:19:15Z</time>
</trkpt>
<trkpt lat="40.631930000000004" lon="-3.1711000000000005">
<ele>701</ele>
<time>2017-03-03T11:19:19Z</time>
</trkpt>
<trkpt lat="40.631930000000004" lon="-3.1711000000000005">
<ele>701</ele>
<time>2017-03-03T11:19:23Z</time>
</trkpt>
<trkpt lat="40.631955" lon="-3.1709416666666668">
<ele>700</ele>
<time>2017-03-03T11:19:27Z</time>
</trkpt>
<trkpt lat="40.631955" lon="-3.1709416666666668">
<ele>700</ele>
<time>2017-03-03T11:19:31Z</time>
</trkpt>
<trkpt lat="40.631955" lon="-3.1709416666666668">
<ele>700</ele>
<time>2017-03-03T11:19:35Z</time>
</trkpt>
<trkpt lat="40.6319" lon="-3.170845">
<ele>700</ele>
<time>2017-03-03T11:19:39Z</time>
</trkpt>
<trkpt lat="40.631906666666666" lon="-3.1708349999999994">
<ele>700</ele>
<time>2017-03-03T11:19:43Z</time>
</trkpt>
<trkpt lat="40.631906666666666" lon="-3.1708349999999994">
<ele>700</ele>
<time>2017-03-03T11:19:47Z</time>
</trkpt>
<trkpt lat="40.631906666666666" lon="-3.1708349999999994">
<ele>700</ele>
<time>2017-03-03T11:19:51Z</time>
</trkpt>
<trkpt lat="40.631883333333334" lon="-3.1709083333333337">
<ele>700</ele>
<time>2017-03-03T11:19:55Z</time>
</trkpt>
<trkpt lat="40.63192333333333" lon="-3.170483333333333">
<ele>700</ele>
<time>2017-03-03T11:19:59Z</time>
</trkpt>
<trkpt lat="40.63196666666667" lon="-3.170045">
<ele>700</ele>
<time>2017-03-03T11:20:03Z</time>
</trkpt>
<trkpt lat="40.631881666666665" lon="-3.170541666666667">
<ele>699</ele>
<time>2017-03-03T11:20:07Z</time>
</trkpt>
<trkpt lat="40.63188" lon="-3.1704250000000003">
<ele>700</ele>
<time>2017-03-03T11:20:11Z</time>
</trkpt>
<trkpt lat="40.631903333333334" lon="-3.1703066666666664">
<ele>700</ele>
<time>2017-03-03T11:20:15Z</time>
</trkpt>
<trkpt lat="40.63190833333333" lon="-3.170216666666667">
<ele>700</ele>
<time>2017-03-03T11:20:19Z</time>
</trkpt>
<trkpt lat="40.63189333333333" lon="-3.1702299999999997">
<ele>700</ele>
<time>2017-03-03T11:20:23Z</time>
</trkpt>
<trkpt lat="40.631835" lon="-3.1702416666666666">
<ele>701</ele>
<time>2017-03-03T11:20:27Z</time>
</trkpt>
<trkpt lat="40.63182166666666" lon="-3.1701883333333334">
<ele>701</ele>
<time>2017-03-03T11:20:31Z</time>
</trkpt>
<trkpt lat="40.63182333333334" lon="-3.170173333333333">
<ele>701</ele>
<time>2017-03-03T11:20:35Z</time>
</trkpt>
<trkpt lat="40.63184833333333" lon="-3.1701933333333328">
<ele>701</ele>
<time>2017-03-03T11:20:39Z</time>
</trkpt>
<trkpt lat="40.631875" lon="-3.1702033333333333">
<ele>702</ele>
<time>2017-03-03T11:20:43Z</time>
</trkpt>
<trkpt lat="40.631875" lon="-3.1702033333333333">
<ele>702</ele>
<time>2017-03-03T11:20:47Z</time>
</trkpt>
<trkpt lat="40.63191833333334" lon="-3.1703383333333335">
<ele>702</ele>
<time>2017-03-03T11:20:51Z</time>
</trkpt>
<trkpt lat="40.631811666666664" lon="-3.170603333333333">
<ele>702</ele>
<time>2017-03-03T11:20:55Z</time>
</trkpt>
<trkpt lat="40.63178333333334" lon="-3.1706333333333334">
<ele>702</ele>
<time>2017-03-03T11:20:59Z</time>
</trkpt>
<trkpt lat="40.63169666666667" lon="-3.1706566666666665">
<ele>702</ele>
<time>2017-03-03T11:21:03Z</time>
</trkpt>
<trkpt lat="40.63166833333333" lon="-3.1706700000000003">
<ele>702</ele>
<time>2017-03-03T11:21:07Z</time>
</trkpt>
<trkpt lat="40.631575" lon="-3.170658333333334">
<ele>702</ele>
<time>2017-03-03T11:21:11Z</time>
</trkpt>
<trkpt lat="40.63154833333333" lon="-3.1707083333333332">
<ele>702</ele>
<time>2017-03-03T11:21:15Z</time>
</trkpt>
<trkpt lat="40.63154833333333" lon="-3.1707083333333332">
<ele>702</ele>
<time>2017-03-03T11:21:19Z</time>
</trkpt>
<trkpt lat="40.63154833333333" lon="-3.1707083333333332">
<ele>702</ele>
<time>2017-03-03T11:21:23Z</time>
</trkpt>
<trkpt lat="40.63154833333333" lon="-3.1707083333333332">
<ele>702</ele>
<time>2017-03-03T11:21:27Z</time>
</trkpt>
<trkpt lat="40.63149166666667" lon="-3.170816666666667">
<ele>702</ele>
<time>2017-03-03T11:21:31Z</time>
</trkpt>
<trkpt lat="40.63148666666667" lon="-3.1708199999999995">
<ele>702</ele>
<time>2017-03-03T11:21:35Z</time>
</trkpt>
<trkpt lat="40.63148666666667" lon="-3.1708199999999995">
<ele>702</ele>
<time>2017-03-03T11:21:39Z</time>
</trkpt>
<trkpt lat="40.63148666666667" lon="-3.1708199999999995">
<ele>702</ele>
<time>2017-03-03T11:21:43Z</time>
</trkpt>
<trkpt lat="40.63148666666667" lon="-3.1708199999999995">
<ele>702</ele>
<time>2017-03-03T11:21:47Z</time>
</trkpt>
<trkpt lat="40.63148666666667" lon="-3.1708199999999995">
<ele>702</ele>
<time>2017-03-03T11:21:51Z</time>
</trkpt>
<trkpt lat="40.63148666666667" lon="-3.1708199999999995">
<ele>702</ele>
<time>2017-03-03T11:21:55Z</time>
</trkpt>
<trkpt lat="40.63148666666667" lon="-3.1708199999999995">
<ele>702</ele>
<time>2017-03-03T11:21:59Z</time>
</trkpt>
<trkpt lat="40.631573333333336" lon="-3.1707750000000003">
<ele>702</ele>
<time>2017-03-03T11:22:03Z</time>
</trkpt>
<trkpt lat="40.631573333333336" lon="-3.1707750000000003">
<ele>702</ele>
<time>2017-03-03T11:22:07Z</time>
</trkpt>
<trkpt lat="40.631573333333336" lon="-3.1707750000000003">
<ele>702</ele>
<time>2017-03-03T11:22:11Z</time>
</trkpt>
<trkpt lat="40.631573333333336" lon="-3.1707750000000003">
<ele>702</ele>
<time>2017-03-03T11:22:15Z</time>
</trkpt>
<trkpt lat="40.631573333333336" lon="-3.1707750000000003">
<ele>702</ele>
<time>2017-03-03T11:22:19Z</time>
</trkpt>
<trkpt lat="40.63164" lon="-3.1706933333333334">
<ele>702</ele>
<time>2017-03-03T11:22:23Z</time>
</trkpt>
<trkpt lat="40.631591666666665" lon="-3.1707099999999997">
<ele>702</ele>
<time>2017-03-03T11:22:27Z</time>
</trkpt>
<trkpt lat="40.631418333333336" lon="-3.170495">
<ele>702</ele>
<time>2017-03-03T11:22:31Z</time>
</trkpt>
<trkpt lat="40.631435" lon="-3.170601666666667">
<ele>702</ele>
<time>2017-03-03T11:22:35Z</time>
</trkpt>
<trkpt lat="40.631598333333336" lon="-3.170513333333333">
<ele>702</ele>
<time>2017-03-03T11:22:39Z</time>
</trkpt>
<trkpt lat="40.63177666666666" lon="-3.1704033333333332">
<ele>702</ele>
<time>2017-03-03T11:22:43Z</time>
</trkpt>
<trkpt lat="40.631708333333336" lon="-3.1706199999999995">
<ele>702</ele>
<time>2017-03-03T11:22:47Z</time>
</trkpt>
<trkpt lat="40.63195333333333" lon="-3.1704883333333336">
<ele>702</ele>
<time>2017-03-03T11:22:51Z</time>
</trkpt>
<trkpt lat="40.63195333333333" lon="-3.1704883333333336">
<ele>702</ele>
<time>2017-03-03T11:22:55Z</time>
</trkpt>
<trkpt lat="40.63200333333334" lon="-3.1705383333333335">
<ele>702</ele>
<time>2017-03-03T11:22:59Z</time>
</trkpt>
<trkpt lat="40.63200333333334" lon="-3.1705383333333335">
<ele>702</ele>
<time>2017-03-03T11:23:03Z</time>
</trkpt>
<trkpt lat="40.63204333333333" lon="-3.1706499999999997">
<ele>703</ele>
<time>2017-03-03T11:23:07Z</time>
</trkpt>
<trkpt lat="40.632086666666666" lon="-3.1706566666666665">
<ele>703</ele>
<time>2017-03-03T11:23:11Z</time>
</trkpt>
<trkpt lat="40.63210333333333" lon="-3.1706566666666665">
<ele>703</ele>
<time>2017-03-03T11:23:15Z</time>
</trkpt>
<trkpt lat="40.6321" lon="-3.170658333333334">
<ele>703</ele>
<time>2017-03-03T11:23:19Z</time>
</trkpt>
<trkpt lat="40.6321" lon="-3.170658333333334">
<ele>703</ele>
<time>2017-03-03T11:23:23Z</time>
</trkpt>
<trkpt lat="40.6321" lon="-3.170658333333334">
<ele>703</ele>
<time>2017-03-03T11:23:27Z</time>
</trkpt>
<trkpt lat="40.632195" lon="-3.1707283333333334">
<ele>703</ele>
<time>2017-03-03T11:23:31Z</time>
</trkpt>
<trkpt lat="40.632195" lon="-3.1707283333333334">
<ele>703</ele>
<time>2017-03-03T11:23:35Z</time>
</trkpt>
<trkpt lat="40.632195" lon="-3.1707283333333334">
<ele>703</ele>
<time>2017-03-03T11:23:39Z</time>
</trkpt>
<trkpt lat="40.632195" lon="-3.1707283333333334">
<ele>703</ele>
<time>2017-03-03T11:23:43Z</time>
</trkpt>
<trkpt lat="40.632195" lon="-3.1707283333333334">
<ele>703</ele>
<time>2017-03-03T11:23:47Z</time>
</trkpt>
<trkpt lat="40.632195" lon="-3.1707283333333334">
<ele>703</ele>
<time>2017-03-03T11:23:51Z</time>
</trkpt>
<trkpt lat="40.632195" lon="-3.1707283333333334">
<ele>703</ele>
<time>2017-03-03T11:23:55Z</time>
</trkpt>
<trkpt lat="40.63216" lon="-3.1706649999999996">
<ele>704</ele>
<time>2017-03-03T11:23:59Z</time>
</trkpt>
<trkpt lat="40.632173333333334" lon="-3.170681666666667">
<ele>704</ele>
<time>2017-03-03T11:24:03Z</time>
</trkpt>
<trkpt lat="40.63219333333333" lon="-3.1706383333333332">
<ele>704</ele>
<time>2017-03-03T11:24:07Z</time>
</trkpt>
<trkpt lat="40.63220333333334" lon="-3.1706">
<ele>704</ele>
<time>2017-03-03T11:24:11Z</time>
</trkpt>
<trkpt lat="40.63220333333334" lon="-3.1706">
<ele>704</ele>
<time>2017-03-03T11:24:15Z</time>
</trkpt>
<trkpt lat="40.63220333333334" lon="-3.1706">
<ele>704</ele>
<time>2017-03-03T11:24:19Z</time>
</trkpt>
<trkpt lat="40.63220333333334" lon="-3.1706">
<ele>704</ele>
<time>2017-03-03T11:24:23Z</time>
</trkpt>
<trkpt lat="40.632155" lon="-3.1704283333333336">
<ele>705</ele>
<time>2017-03-03T11:24:27Z</time>
</trkpt>
<trkpt lat="40.632155" lon="-3.170423333333333">
<ele>705</ele>
<time>2017-03-03T11:24:31Z</time>
</trkpt>
<trkpt lat="40.63211166666667" lon="-3.170266666666667">
<ele>705</ele>
<time>2017-03-03T11:24:35Z</time>
</trkpt>
<trkpt lat="40.632106666666665" lon="-3.1702299999999997">
<ele>705</ele>
<time>2017-03-03T11:24:39Z</time>
</trkpt>
<trkpt lat="40.632106666666665" lon="-3.1702299999999997">
<ele>705</ele>
<time>2017-03-03T11:24:43Z</time>
</trkpt>
<trkpt lat="40.632185" lon="-3.170053333333333">
<ele>706</ele>
<time>2017-03-03T11:24:47Z</time>
</trkpt>
<trkpt lat="40.63218" lon="-3.1700566666666665">
<ele>706</ele>
<time>2017-03-03T11:24:51Z</time>
</trkpt>
<trkpt lat="40.63218" lon="-3.170046666666667">
<ele>706</ele>
<time>2017-03-03T11:24:55Z</time>
</trkpt>
<trkpt lat="40.63218" lon="-3.170046666666667">
<ele>706</ele>
<time>2017-03-03T11:24:59Z</time>
</trkpt>
<trkpt lat="40.63213666666666" lon="-3.1699399999999995">
<ele>706</ele>
<time>2017-03-03T11:25:03Z</time>
</trkpt>
<trkpt lat="40.63211833333333" lon="-3.1699450000000002">
<ele>706</ele>
<time>2017-03-03T11:25:07Z</time>
</trkpt>
<trkpt lat="40.63211833333333" lon="-3.1699450000000002">
<ele>706</ele>
<time>2017-03-03T11:25:11Z</time>
</trkpt>
<trkpt lat="40.63211833333333" lon="-3.1699450000000002">
<ele>706</ele>
<time>2017-03-03T11:25:15Z</time>
</trkpt>
<trkpt lat="40.63211833333333" lon="-3.1699450000000002">
<ele>706</ele>
<time>2017-03-03T11:25:19Z</time>
</trkpt>
<trkpt lat="40.63211833333333" lon="-3.1699450000000002">
<ele>706</ele>
<time>2017-03-03T11:25:23Z</time>
</trkpt>
<trkpt lat="40.63211833333333" lon="-3.1699450000000002">
<ele>706</ele>
<time>2017-03-03T11:25:27Z</time>
</trkpt>
<trkpt lat="40.63211833333333" lon="-3.1699450000000002">
<ele>706</ele>
<time>2017-03-03T11:25:31Z</time>
</trkpt>
<trkpt lat="40.632169999999995" lon="-3.1700199999999996">
<ele>706</ele>
<time>2017-03-03T11:25:35Z</time>
</trkpt>
<trkpt lat="40.63221166666666" lon="-3.1700700000000004">
<ele>706</ele>
<time>2017-03-03T11:25:39Z</time>
</trkpt>
<trkpt lat="40.632241666666665" lon="-3.1701066666666664">
<ele>706</ele>
<time>2017-03-03T11:25:43Z</time>
</trkpt>
<trkpt lat="40.63225333333333" lon="-3.1701699999999997">
<ele>706</ele>
<time>2017-03-03T11:25:47Z</time>
</trkpt>
<trkpt lat="40.632255" lon="-3.170171666666667">
<ele>706</ele>
<time>2017-03-03T11:25:51Z</time>
</trkpt>
<trkpt lat="40.63227166666666" lon="-3.17024">
<ele>706</ele>
<time>2017-03-03T11:25:55Z</time>
</trkpt>
<trkpt lat="40.63227666666667" lon="-3.170245">
<ele>706</ele>
<time>2017-03-03T11:25:59Z</time>
</trkpt>
<trkpt lat="40.63227666666667" lon="-3.170245">
<ele>706</ele>
<time>2017-03-03T11:26:03Z</time>
</trkpt>
<trkpt lat="40.63227666666667" lon="-3.170245">
<ele>706</ele>
<time>2017-03-03T11:26:07Z</time>
</trkpt>
<trkpt lat="40.63227666666667" lon="-3.170245">
<ele>706</ele>
<time>2017-03-03T11:26:11Z</time>
</trkpt>
<trkpt lat="40.63227666666667" lon="-3.170245">
<ele>706</ele>
<time>2017-03-03T11:26:15Z</time>
</trkpt>
<trkpt lat="40.63227666666667" lon="-3.170245">
<ele>706</ele>
<time>2017-03-03T11:26:19Z</time>
</trkpt>
<trkpt lat="40.63219166666667" lon="-3.1703316666666668">
<ele>705</ele>
<time>2017-03-03T11:26:23Z</time>
</trkpt>
<trkpt lat="40.63219166666667" lon="-3.1703316666666668">
<ele>705</ele>
<time>2017-03-03T11:26:27Z</time>
</trkpt>
<trkpt lat="40.63219166666667" lon="-3.1703316666666668">
<ele>705</ele>
<time>2017-03-03T11:26:31Z</time>
</trkpt>
<trkpt lat="40.63219166666667" lon="-3.1703316666666668">
<ele>705</ele>
<time>2017-03-03T11:26:35Z</time>
</trkpt>
<trkpt lat="40.63219166666667" lon="-3.1703316666666668">
<ele>705</ele>
<time>2017-03-03T11:26:39Z</time>
</trkpt>
<trkpt lat="40.63219166666667" lon="-3.1703316666666668">
<ele>705</ele>
<time>2017-03-03T11:26:43Z</time>
</trkpt>
<trkpt lat="40.63219166666667" lon="-3.1703316666666668">
<ele>705</ele>
<time>2017-03-03T11:26:47Z</time>
</trkpt>
<trkpt lat="40.63225833333333" lon="-3.1702199999999996">
<ele>705</ele>
<time>2017-03-03T11:26:51Z</time>
</trkpt>
<trkpt lat="40.63225666666666" lon="-3.170215">
<ele>705</ele>
<time>2017-03-03T11:26:55Z</time>
</trkpt>
<trkpt lat="40.63225666666666" lon="-3.170215">
<ele>705</ele>
<time>2017-03-03T11:26:59Z</time>
</trkpt>
<trkpt lat="40.63236166666666" lon="-3.170246666666667">
<ele>705</ele>
<time>2017-03-03T11:27:03Z</time>
</trkpt>
<trkpt lat="40.63234" lon="-3.1701983333333335">
<ele>705</ele>
<time>2017-03-03T11:27:07Z</time>
</trkpt>
<trkpt lat="40.63234" lon="-3.1701983333333335">
<ele>705</ele>
<time>2017-03-03T11:27:11Z</time>
</trkpt>
<trkpt lat="40.63220833333333" lon="-3.1702349999999995">
<ele>705</ele>
<time>2017-03-03T11:27:15Z</time>
</trkpt>
<trkpt lat="40.631915000000006" lon="-3.1705083333333333">
<ele>705</ele>
<time>2017-03-03T11:27:19Z</time>
</trkpt>
<trkpt lat="40.63157666666667" lon="-3.1708499999999997">
<ele>705</ele>
<time>2017-03-03T11:27:23Z</time>
</trkpt>
<trkpt lat="40.63116333333333" lon="-3.1711466666666666">
<ele>705</ele>
<time>2017-03-03T11:27:27Z</time>
</trkpt>
<trkpt lat="40.63261" lon="-3.170763333333333">
<ele>704</ele>
<time>2017-03-03T11:28:35Z</time>
</trkpt>
<trkpt lat="40.63254833333334" lon="-3.170735">
<ele>704</ele>
<time>2017-03-03T11:28:39Z</time>
</trkpt>
<trkpt lat="40.63254833333334" lon="-3.170735">
<ele>704</ele>
<time>2017-03-03T11:28:43Z</time>
</trkpt>
<trkpt lat="40.632484999999996" lon="-3.170845">
<ele>704</ele>
<time>2017-03-03T11:28:47Z</time>
</trkpt>
<trkpt lat="40.63245166666666" lon="-3.1708716666666663">
<ele>704</ele>
<time>2017-03-03T11:28:51Z</time>
</trkpt>
<trkpt lat="40.63239333333333" lon="-3.1708499999999997">
<ele>704</ele>
<time>2017-03-03T11:28:55Z</time>
</trkpt>
<trkpt lat="40.63239333333333" lon="-3.1708499999999997">
<ele>704</ele>
<time>2017-03-03T11:28:59Z</time>
</trkpt>
<trkpt lat="40.63239333333333" lon="-3.1708499999999997">
<ele>704</ele>
<time>2017-03-03T11:29:03Z</time>
</trkpt>
<trkpt lat="40.63239333333333" lon="-3.1708499999999997">
<ele>704</ele>
<time>2017-03-03T11:29:07Z</time>
</trkpt>
<trkpt lat="40.63231666666666" lon="-3.1709650000000003">
<ele>704</ele>
<time>2017-03-03T11:29:11Z</time>
</trkpt>
<trkpt lat="40.63246166666667" lon="-3.171021666666667">
<ele>704</ele>
<time>2017-03-03T11:29:15Z</time>
</trkpt>
<trkpt lat="40.632556666666666" lon="-3.171098333333333">
<ele>704</ele>
<time>2017-03-03T11:29:19Z</time>
</trkpt>
<trkpt lat="40.632675" lon="-3.171111666666667">
<ele>705</ele>
<time>2017-03-03T11:29:23Z</time>
</trkpt>
<trkpt lat="40.63271333333333" lon="-3.1711750000000003">
<ele>705</ele>
<time>2017-03-03T11:29:27Z</time>
</trkpt>
<trkpt lat="40.63276166666667" lon="-3.1711516666666664">
<ele>705</ele>
<time>2017-03-03T11:29:31Z</time>
</trkpt>
<trkpt lat="40.632801666666666" lon="-3.1711783333333328">
<ele>705</ele>
<time>2017-03-03T11:29:35Z</time>
</trkpt>
<trkpt lat="40.63281333333334" lon="-3.171223333333333">
<ele>705</ele>
<time>2017-03-03T11:29:39Z</time>
</trkpt>
<trkpt lat="40.632841666666664" lon="-3.171253333333333">
<ele>706</ele>
<time>2017-03-03T11:29:45Z</time>
</trkpt>
<trkpt lat="40.63278666666667" lon="-3.1712783333333334">
<ele>706</ele>
<time>2017-03-03T11:29:51Z</time>
</trkpt>
<trkpt lat="40.63265" lon="-3.1711233333333335">
<ele>706</ele>
<time>2017-03-03T11:29:55Z</time>
</trkpt>
<trkpt lat="40.632598333333334" lon="-3.171075">
<ele>706</ele>
<time>2017-03-03T11:29:59Z</time>
</trkpt>
<trkpt lat="40.632598333333334" lon="-3.171075">
<ele>706</ele>
<time>2017-03-03T11:30:03Z</time>
</trkpt>
<trkpt lat="40.63251" lon="-3.171113333333333">
<ele>706</ele>
<time>2017-03-03T11:30:07Z</time>
</trkpt>
<trkpt lat="40.6325" lon="-3.17114">
<ele>706</ele>
<time>2017-03-03T11:30:11Z</time>
</trkpt>
<trkpt lat="40.6325" lon="-3.17114">
<ele>706</ele>
<time>2017-03-03T11:30:15Z</time>
</trkpt>
<trkpt lat="40.632328333333334" lon="-3.1710799999999995">
<ele>705</ele>
<time>2017-03-03T11:30:19Z</time>
</trkpt>
<trkpt lat="40.632328333333334" lon="-3.1710799999999995">
<ele>705</ele>
<time>2017-03-03T11:30:23Z</time>
</trkpt>
<trkpt lat="40.632263333333334" lon="-3.1709833333333335">
<ele>705</ele>
<time>2017-03-03T11:30:27Z</time>
</trkpt>
<trkpt lat="40.63225166666667" lon="-3.1709750000000003">
<ele>705</ele>
<time>2017-03-03T11:30:31Z</time>
</trkpt>
<trkpt lat="40.63225166666667" lon="-3.1709750000000003">
<ele>705</ele>
<time>2017-03-03T11:30:35Z</time>
</trkpt>
<trkpt lat="40.63225166666667" lon="-3.1709750000000003">
<ele>705</ele>
<time>2017-03-03T11:30:39Z</time>
</trkpt>
<trkpt lat="40.63225166666667" lon="-3.1709750000000003">
<ele>705</ele>
<time>2017-03-03T11:30:43Z</time>
</trkpt>
<trkpt lat="40.63225166666667" lon="-3.1709750000000003">
<ele>705</ele>
<time>2017-03-03T11:30:47Z</time>
</trkpt>
<trkpt lat="40.63225166666667" lon="-3.1709750000000003">
<ele>705</ele>
<time>2017-03-03T11:30:51Z</time>
</trkpt>
<trkpt lat="40.63234333333333" lon="-3.170875">
<ele>705</ele>
<time>2017-03-03T11:30:55Z</time>
</trkpt>
<trkpt lat="40.63234333333333" lon="-3.170875">
<ele>705</ele>
<time>2017-03-03T11:30:59Z</time>
</trkpt>
<trkpt lat="40.63227333333334" lon="-3.170795">
<ele>705</ele>
<time>2017-03-03T11:31:03Z</time>
</trkpt>
<trkpt lat="40.6323" lon="-3.170785">
<ele>704</ele>
<time>2017-03-03T11:31:07Z</time>
</trkpt>
<trkpt lat="40.6323" lon="-3.170785">
<ele>704</ele>
<time>2017-03-03T11:31:11Z</time>
</trkpt>
<trkpt lat="40.6323" lon="-3.170785">
<ele>704</ele>
<time>2017-03-03T11:31:15Z</time>
</trkpt>
<trkpt lat="40.6323" lon="-3.170785">
<ele>704</ele>
<time>2017-03-03T11:31:19Z</time>
</trkpt>
<trkpt lat="40.6323" lon="-3.170785">
<ele>704</ele>
<time>2017-03-03T11:31:23Z</time>
</trkpt>
<trkpt lat="40.6323" lon="-3.170785">
<ele>704</ele>
<time>2017-03-03T11:31:27Z</time>
</trkpt>
<trkpt lat="40.6323" lon="-3.170785">
<ele>704</ele>
<time>2017-03-03T11:31:31Z</time>
</trkpt>
<trkpt lat="40.6323" lon="-3.170785">
<ele>704</ele>
<time>2017-03-03T11:31:35Z</time>
</trkpt>
<trkpt lat="40.6323" lon="-3.170785">
<ele>704</ele>
<time>2017-03-03T11:31:39Z</time>
</trkpt>
<trkpt lat="40.63229" lon="-3.17066">
<ele>703</ele>
<time>2017-03-03T11:31:43Z</time>
</trkpt>
<trkpt lat="40.632351666666665" lon="-3.1705699999999997">
<ele>703</ele>
<time>2017-03-03T11:31:47Z</time>
</trkpt>
<trkpt lat="40.63270833333333" lon="-3.171208333333333">
<ele>703</ele>
<time>2017-03-03T11:33:41Z</time>
</trkpt>
<trkpt lat="40.6329" lon="-3.1713816666666665">
<ele>703</ele>
<time>2017-03-03T11:33:45Z</time>
</trkpt>
<trkpt lat="40.633026666666666" lon="-3.1713750000000003">
<ele>703</ele>
<time>2017-03-03T11:33:49Z</time>
</trkpt>
<trkpt lat="40.633116666666666" lon="-3.1714049999999996">
<ele>703</ele>
<time>2017-03-03T11:33:53Z</time>
</trkpt>
<trkpt lat="40.63311" lon="-3.171408333333333">
<ele>703</ele>
<time>2017-03-03T11:33:57Z</time>
</trkpt>
<trkpt lat="40.63311" lon="-3.171408333333333">
<ele>703</ele>
<time>2017-03-03T11:34:01Z</time>
</trkpt>
<trkpt lat="40.63311" lon="-3.171408333333333">
<ele>703</ele>
<time>2017-03-03T11:34:05Z</time>
</trkpt>
<trkpt lat="40.633183333333335" lon="-3.1714816666666668">
<ele>703</ele>
<time>2017-03-03T11:34:09Z</time>
</trkpt>
<trkpt lat="40.63318666666667" lon="-3.171496666666667">
<ele>703</ele>
<time>2017-03-03T11:34:13Z</time>
</trkpt>
<trkpt lat="40.63318666666667" lon="-3.171496666666667">
<ele>703</ele>
<time>2017-03-03T11:34:17Z</time>
</trkpt>
<trkpt lat="40.63318833333334" lon="-3.1715233333333335">
<ele>703</ele>
<time>2017-03-03T11:34:21Z</time>
</trkpt>
<trkpt lat="40.632936666666666" lon="-3.171445">
<ele>686</ele>
<time>2017-03-03T11:34:57Z</time>
</trkpt>
<trkpt lat="40.63292833333333" lon="-3.171561666666667">
<ele>699</ele>
<time>2017-03-03T11:35:01Z</time>
</trkpt>
<trkpt lat="40.632915000000004" lon="-3.1715833333333334">
<ele>702</ele>
<time>2017-03-03T11:35:05Z</time>
</trkpt>
<trkpt lat="40.632913333333335" lon="-3.1715833333333334">
<ele>702</ele>
<time>2017-03-03T11:35:09Z</time>
</trkpt>
<trkpt lat="40.63290666666667" lon="-3.171571666666667">
<ele>703</ele>
<time>2017-03-03T11:35:13Z</time>
</trkpt>
<trkpt lat="40.63294" lon="-3.1716183333333334">
<ele>703</ele>
<time>2017-03-03T11:35:21Z</time>
</trkpt>
<trkpt lat="40.632965" lon="-3.171661666666666">
<ele>703</ele>
<time>2017-03-03T11:35:25Z</time>
</trkpt>
<trkpt lat="40.63301166666667" lon="-3.171786666666667">
<ele>703</ele>
<time>2017-03-03T11:35:29Z</time>
</trkpt>
<trkpt lat="40.633015" lon="-3.1717916666666666">
<ele>703</ele>
<time>2017-03-03T11:35:33Z</time>
</trkpt>
<trkpt lat="40.633015" lon="-3.1717916666666666">
<ele>703</ele>
<time>2017-03-03T11:35:37Z</time>
</trkpt>
<trkpt lat="40.633183333333335" lon="-3.1716283333333335">
<ele>731</ele>
<time>2017-03-03T11:36:09Z</time>
</trkpt>
<trkpt lat="40.63325" lon="-3.1713000000000005">
<ele>705</ele>
<time>2017-03-03T11:36:13Z</time>
</trkpt>
<trkpt lat="40.63325" lon="-3.1713000000000005">
<ele>705</ele>
<time>2017-03-03T11:36:17Z</time>
</trkpt>
<trkpt lat="40.63314333333334" lon="-3.1712733333333336">
<ele>704</ele>
<time>2017-03-03T11:36:21Z</time>
</trkpt>
<trkpt lat="40.633136666666665" lon="-3.1712816666666668">
<ele>704</ele>
<time>2017-03-03T11:36:25Z</time>
</trkpt>
<trkpt lat="40.63308833333333" lon="-3.171161666666667">
<ele>703</ele>
<time>2017-03-03T11:36:29Z</time>
</trkpt>
<trkpt lat="40.633085" lon="-3.171135">
<ele>704</ele>
<time>2017-03-03T11:36:33Z</time>
</trkpt>
<trkpt lat="40.63291" lon="-3.171266666666667">
<ele>703</ele>
<time>2017-03-03T11:36:37Z</time>
</trkpt>
<trkpt lat="40.632531666666665" lon="-3.17157">
<ele>703</ele>
<time>2017-03-03T11:36:41Z</time>
</trkpt>
<trkpt lat="40.63290333333334" lon="-3.171268333333333">
<ele>678</ele>
<time>2017-03-03T11:36:59Z</time>
</trkpt>
<trkpt lat="40.632525" lon="-3.1709283333333333">
<ele>667</ele>
<time>2017-03-03T11:37:03Z</time>
</trkpt>
<trkpt lat="40.632661666666664" lon="-3.1710066666666665">
<ele>658</ele>
<time>2017-03-03T11:37:07Z</time>
</trkpt>
<trkpt lat="40.632795" lon="-3.17094">
<ele>659</ele>
<time>2017-03-03T11:37:11Z</time>
</trkpt>
<trkpt lat="40.63285166666667" lon="-3.1709150000000004">
<ele>662</ele>
<time>2017-03-03T11:37:15Z</time>
</trkpt>
<trkpt lat="40.63287666666667" lon="-3.1708466666666673">
<ele>663</ele>
<time>2017-03-03T11:37:19Z</time>
</trkpt>
<trkpt lat="40.63292833333333" lon="-3.170803333333333">
<ele>663</ele>
<time>2017-03-03T11:37:23Z</time>
</trkpt>
<trkpt lat="40.632965" lon="-3.170776666666667">
<ele>663</ele>
<time>2017-03-03T11:37:29Z</time>
</trkpt>
<trkpt lat="40.632934999999996" lon="-3.1707616666666665">
<ele>663</ele>
<time>2017-03-03T11:37:33Z</time>
</trkpt>
<trkpt lat="40.63220333333334" lon="-3.1705650000000003">
<ele>689</ele>
<time>2017-03-03T11:39:09Z</time>
</trkpt>
<trkpt lat="40.63220333333334" lon="-3.1705650000000003">
<ele>689</ele>
<time>2017-03-03T11:39:13Z</time>
</trkpt>
<trkpt lat="40.632425" lon="-3.1705916666666667">
<ele>676</ele>
<time>2017-03-03T11:39:17Z</time>
</trkpt>
<trkpt lat="40.632468333333335" lon="-3.1706416666666666">
<ele>676</ele>
<time>2017-03-03T11:39:21Z</time>
</trkpt>
<trkpt lat="40.63253833333333" lon="-3.170586666666667">
<ele>676</ele>
<time>2017-03-03T11:39:25Z</time>
</trkpt>
<trkpt lat="40.632600000000004" lon="-3.1705666666666663">
<ele>676</ele>
<time>2017-03-03T11:39:29Z</time>
</trkpt>
<trkpt lat="40.632643333333334" lon="-3.170556666666667">
<ele>675</ele>
<time>2017-03-03T11:39:33Z</time>
</trkpt>
<trkpt lat="40.63266833333333" lon="-3.1705383333333335">
<ele>675</ele>
<time>2017-03-03T11:39:37Z</time>
</trkpt>
<trkpt lat="40.632648333333336" lon="-3.1704966666666667">
<ele>675</ele>
<time>2017-03-03T11:39:41Z</time>
</trkpt>
<trkpt lat="40.632648333333336" lon="-3.1704966666666667">
<ele>675</ele>
<time>2017-03-03T11:39:45Z</time>
</trkpt>
<trkpt lat="40.632648333333336" lon="-3.1704966666666667">
<ele>675</ele>
<time>2017-03-03T11:39:49Z</time>
</trkpt>
<trkpt lat="40.632648333333336" lon="-3.1704966666666667">
<ele>675</ele>
<time>2017-03-03T11:39:53Z</time>
</trkpt>
<trkpt lat="40.632648333333336" lon="-3.1704966666666667">
<ele>675</ele>
<time>2017-03-03T11:39:57Z</time>
</trkpt>
<trkpt lat="40.63255" lon="-3.170463333333333">
<ele>675</ele>
<time>2017-03-03T11:40:01Z</time>
</trkpt>
<trkpt lat="40.632345" lon="-3.170485">
<ele>675</ele>
<time>2017-03-03T11:40:05Z</time>
</trkpt>
<trkpt lat="40.63210333333333" lon="-3.17074">
<ele>676</ele>
<time>2017-03-03T11:40:09Z</time>
</trkpt>
<trkpt lat="40.632105" lon="-3.170726666666667">
<ele>676</ele>
<time>2017-03-03T11:40:13Z</time>
</trkpt>
<trkpt lat="40.632115" lon="-3.170593333333333">
<ele>677</ele>
<time>2017-03-03T11:40:17Z</time>
</trkpt>
<trkpt lat="40.63210333333333" lon="-3.1704866666666667">
<ele>677</ele>
<time>2017-03-03T11:40:21Z</time>
</trkpt>
<trkpt lat="40.6321" lon="-3.1704883333333336">
<ele>677</ele>
<time>2017-03-03T11:40:25Z</time>
</trkpt>
<trkpt lat="40.6321" lon="-3.1704883333333336">
<ele>677</ele>
<time>2017-03-03T11:40:29Z</time>
</trkpt>
<trkpt lat="40.6321" lon="-3.1704883333333336">
<ele>677</ele>
<time>2017-03-03T11:40:33Z</time>
</trkpt>
<trkpt lat="40.63205166666667" lon="-3.170386666666667">
<ele>678</ele>
<time>2017-03-03T11:40:37Z</time>
</trkpt>
<trkpt lat="40.632055" lon="-3.1703900000000003">
<ele>678</ele>
<time>2017-03-03T11:40:41Z</time>
</trkpt>
<trkpt lat="40.632055" lon="-3.1703900000000003">
<ele>678</ele>
<time>2017-03-03T11:40:45Z</time>
</trkpt>
<trkpt lat="40.632055" lon="-3.1703900000000003">
<ele>678</ele>
<time>2017-03-03T11:40:49Z</time>
</trkpt>
<trkpt lat="40.632055" lon="-3.1703900000000003">
<ele>678</ele>
<time>2017-03-03T11:40:53Z</time>
</trkpt>
<trkpt lat="40.632055" lon="-3.1703900000000003">
<ele>678</ele>
<time>2017-03-03T11:40:57Z</time>
</trkpt>
<trkpt lat="40.63214833333333" lon="-3.1704433333333335">
<ele>679</ele>
<time>2017-03-03T11:41:01Z</time>
</trkpt>
<trkpt lat="40.632155" lon="-3.17044">
<ele>679</ele>
<time>2017-03-03T11:41:05Z</time>
</trkpt>
<trkpt lat="40.63205333333334" lon="-3.1705466666666666">
<ele>679</ele>
<time>2017-03-03T11:41:09Z</time>
</trkpt>
<trkpt lat="40.632" lon="-3.170563333333333">
<ele>679</ele>
<time>2017-03-03T11:41:13Z</time>
</trkpt>
<trkpt lat="40.632" lon="-3.170563333333333">
<ele>679</ele>
<time>2017-03-03T11:41:17Z</time>
</trkpt>
<trkpt lat="40.632" lon="-3.170563333333333">
<ele>679</ele>
<time>2017-03-03T11:41:21Z</time>
</trkpt>
<trkpt lat="40.632" lon="-3.170563333333333">
<ele>679</ele>
<time>2017-03-03T11:41:25Z</time>
</trkpt>
<trkpt lat="40.63209666666667" lon="-3.1703750000000004">
<ele>679</ele>
<time>2017-03-03T11:41:29Z</time>
</trkpt>
<trkpt lat="40.63212" lon="-3.170373333333333">
<ele>679</ele>
<time>2017-03-03T11:41:33Z</time>
</trkpt>
<trkpt lat="40.63234166666667" lon="-3.170358333333333">
<ele>679</ele>
<time>2017-03-03T11:41:37Z</time>
</trkpt>
<trkpt lat="40.632378333333335" lon="-3.1704033333333332">
<ele>679</ele>
<time>2017-03-03T11:41:41Z</time>
</trkpt>
<trkpt lat="40.632525" lon="-3.1701683333333337">
<ele>679</ele>
<time>2017-03-03T11:41:45Z</time>
</trkpt>
<trkpt lat="40.632598333333334" lon="-3.17004">
<ele>679</ele>
<time>2017-03-03T11:41:49Z</time>
</trkpt>
<trkpt lat="40.63253666666667" lon="-3.170001666666667">
<ele>679</ele>
<time>2017-03-03T11:41:53Z</time>
</trkpt>
<trkpt lat="40.632545" lon="-3.1699800000000002">
<ele>679</ele>
<time>2017-03-03T11:41:57Z</time>
</trkpt>
<trkpt lat="40.632545" lon="-3.1699800000000002">
<ele>679</ele>
<time>2017-03-03T11:42:01Z</time>
</trkpt>
<trkpt lat="40.632545" lon="-3.1699800000000002">
<ele>679</ele>
<time>2017-03-03T11:42:05Z</time>
</trkpt>
<trkpt lat="40.632545" lon="-3.1699800000000002">
<ele>679</ele>
<time>2017-03-03T11:42:09Z</time>
</trkpt>
<trkpt lat="40.632545" lon="-3.1699800000000002">
<ele>679</ele>
<time>2017-03-03T11:42:13Z</time>
</trkpt>
<trkpt lat="40.632545" lon="-3.1699800000000002">
<ele>679</ele>
<time>2017-03-03T11:42:17Z</time>
</trkpt>
<trkpt lat="40.632545" lon="-3.1699800000000002">
<ele>679</ele>
<time>2017-03-03T11:42:21Z</time>
</trkpt>
<trkpt lat="40.632545" lon="-3.1699800000000002">
<ele>679</ele>
<time>2017-03-03T11:42:25Z</time>
</trkpt>
<trkpt lat="40.632545" lon="-3.1699800000000002">
<ele>679</ele>
<time>2017-03-03T11:42:29Z</time>
</trkpt>
<trkpt lat="40.632643333333334" lon="-3.1697150000000005">
<ele>682</ele>
<time>2017-03-03T11:42:33Z</time>
</trkpt>
<trkpt lat="40.632643333333334" lon="-3.1697150000000005">
<ele>682</ele>
<time>2017-03-03T11:42:37Z</time>
</trkpt>
<trkpt lat="40.632706666666664" lon="-3.169623333333333">
<ele>683</ele>
<time>2017-03-03T11:42:41Z</time>
</trkpt>
<trkpt lat="40.632715" lon="-3.1695666666666664">
<ele>684</ele>
<time>2017-03-03T11:42:45Z</time>
</trkpt>
<trkpt lat="40.632715" lon="-3.1695666666666664">
<ele>684</ele>
<time>2017-03-03T11:42:49Z</time>
</trkpt>
<trkpt lat="40.632715" lon="-3.1695666666666664">
<ele>684</ele>
<time>2017-03-03T11:42:53Z</time>
</trkpt>
<trkpt lat="40.632715" lon="-3.1695666666666664">
<ele>684</ele>
<time>2017-03-03T11:42:57Z</time>
</trkpt>
<trkpt lat="40.632706666666664" lon="-3.1695983333333335">
<ele>685</ele>
<time>2017-03-03T11:43:01Z</time>
</trkpt>
<trkpt lat="40.63270333333333" lon="-3.1696">
<ele>685</ele>
<time>2017-03-03T11:43:05Z</time>
</trkpt>
<trkpt lat="40.63270333333333" lon="-3.1696">
<ele>685</ele>
<time>2017-03-03T11:43:09Z</time>
</trkpt>
<trkpt lat="40.63270333333333" lon="-3.1696">
<ele>685</ele>
<time>2017-03-03T11:43:13Z</time>
</trkpt>
<trkpt lat="40.63270333333333" lon="-3.1696">
<ele>685</ele>
<time>2017-03-03T11:43:17Z</time>
</trkpt>
<trkpt lat="40.63270333333333" lon="-3.1696">
<ele>685</ele>
<time>2017-03-03T11:43:21Z</time>
</trkpt>
<trkpt lat="40.63270333333333" lon="-3.1696">
<ele>685</ele>
<time>2017-03-03T11:43:25Z</time>
</trkpt>
<trkpt lat="40.63270333333333" lon="-3.1696">
<ele>685</ele>
<time>2017-03-03T11:43:29Z</time>
</trkpt>
<trkpt lat="40.63270333333333" lon="-3.1696">
<ele>685</ele>
<time>2017-03-03T11:43:33Z</time>
</trkpt>
<trkpt lat="40.63270333333333" lon="-3.1696">
<ele>685</ele>
<time>2017-03-03T11:43:37Z</time>
</trkpt>
<trkpt lat="40.63270333333333" lon="-3.1696">
<ele>685</ele>
<time>2017-03-03T11:43:41Z</time>
</trkpt>
<trkpt lat="40.63270333333333" lon="-3.1696">
<ele>685</ele>
<time>2017-03-03T11:43:45Z</time>
</trkpt>
<trkpt lat="40.63270333333333" lon="-3.1696">
<ele>685</ele>
<time>2017-03-03T11:43:49Z</time>
</trkpt>
<trkpt lat="40.63270333333333" lon="-3.1696">
<ele>685</ele>
<time>2017-03-03T11:43:53Z</time>
</trkpt>
<trkpt lat="40.63265" lon="-3.1697016666666666">
<ele>690</ele>
<time>2017-03-03T11:43:57Z</time>
</trkpt>
<trkpt lat="40.63265833333333" lon="-3.169691666666667">
<ele>690</ele>
<time>2017-03-03T11:44:01Z</time>
</trkpt>
<trkpt lat="40.63265833333333" lon="-3.169691666666667">
<ele>690</ele>
<time>2017-03-03T11:44:05Z</time>
</trkpt>
<trkpt lat="40.63265833333333" lon="-3.169691666666667">
<ele>690</ele>
<time>2017-03-03T11:44:09Z</time>
</trkpt>
<trkpt lat="40.632715" lon="-3.169845">
<ele>690</ele>
<time>2017-03-03T11:44:13Z</time>
</trkpt>
<trkpt lat="40.632715" lon="-3.169845">
<ele>690</ele>
<time>2017-03-03T11:44:17Z</time>
</trkpt>
<trkpt lat="40.632715" lon="-3.169845">
<ele>690</ele>
<time>2017-03-03T11:44:21Z</time>
</trkpt>
<trkpt lat="40.63273" lon="-3.1697216666666663">
<ele>690</ele>
<time>2017-03-03T11:44:25Z</time>
</trkpt>
<trkpt lat="40.632823333333334" lon="-3.1698333333333335">
<ele>690</ele>
<time>2017-03-03T11:44:29Z</time>
</trkpt>
<trkpt lat="40.63276166666667" lon="-3.170015">
<ele>690</ele>
<time>2017-03-03T11:44:33Z</time>
</trkpt>
<trkpt lat="40.632655" lon="-3.169905">
<ele>690</ele>
<time>2017-03-03T11:44:37Z</time>
</trkpt>
<trkpt lat="40.632688333333334" lon="-3.170128333333333">
<ele>689</ele>
<time>2017-03-03T11:44:41Z</time>
</trkpt>
<trkpt lat="40.632709999999996" lon="-3.1701883333333334">
<ele>689</ele>
<time>2017-03-03T11:44:45Z</time>
</trkpt>
<trkpt lat="40.63277666666667" lon="-3.170201666666667">
<ele>689</ele>
<time>2017-03-03T11:44:49Z</time>
</trkpt>
<trkpt lat="40.63280333333333" lon="-3.1701683333333337">
<ele>690</ele>
<time>2017-03-03T11:44:53Z</time>
</trkpt>
<trkpt lat="40.63280333333333" lon="-3.1701683333333337">
<ele>690</ele>
<time>2017-03-03T11:44:57Z</time>
</trkpt>
<trkpt lat="40.63287666666667" lon="-3.170126666666667">
<ele>691</ele>
<time>2017-03-03T11:45:01Z</time>
</trkpt>
<trkpt lat="40.63288" lon="-3.170081666666667">
<ele>692</ele>
<time>2017-03-03T11:45:05Z</time>
</trkpt>
<trkpt lat="40.63288166666667" lon="-3.170081666666667">
<ele>693</ele>
<time>2017-03-03T11:45:09Z</time>
</trkpt>
<trkpt lat="40.63288166666667" lon="-3.170081666666667">
<ele>693</ele>
<time>2017-03-03T11:45:13Z</time>
</trkpt>
<trkpt lat="40.63288166666667" lon="-3.170081666666667">
<ele>693</ele>
<time>2017-03-03T11:45:17Z</time>
</trkpt>
<trkpt lat="40.63288166666667" lon="-3.170081666666667">
<ele>693</ele>
<time>2017-03-03T11:45:21Z</time>
</trkpt>
<trkpt lat="40.632885" lon="-3.1702133333333338">
<ele>695</ele>
<time>2017-03-03T11:45:25Z</time>
</trkpt>
<trkpt lat="40.63288333333333" lon="-3.170215">
<ele>695</ele>
<time>2017-03-03T11:45:29Z</time>
</trkpt>
<trkpt lat="40.63305666666667" lon="-3.170526666666667">
<ele>697</ele>
<time>2017-03-03T11:45:43Z</time>
</trkpt>
<trkpt lat="40.63309666666667" lon="-3.17054">
<ele>697</ele>
<time>2017-03-03T11:45:47Z</time>
</trkpt>
<trkpt lat="40.633050000000004" lon="-3.170645">
<ele>698</ele>
<time>2017-03-03T11:45:51Z</time>
</trkpt>
<trkpt lat="40.63298833333333" lon="-3.170681666666667">
<ele>698</ele>
<time>2017-03-03T11:45:55Z</time>
</trkpt>
<trkpt lat="40.63351" lon="-3.1708199999999995">
<ele>680</ele>
<time>2017-03-03T11:50:33Z</time>
</trkpt>
<trkpt lat="40.633543333333336" lon="-3.170875">
<ele>685</ele>
<time>2017-03-03T11:50:38Z</time>
</trkpt>
<trkpt lat="40.63339" lon="-3.1709066666666663">
<ele>675</ele>
<time>2017-03-03T11:50:42Z</time>
</trkpt>
<trkpt lat="40.633345" lon="-3.170926666666667">
<ele>672</ele>
<time>2017-03-03T11:50:46Z</time>
</trkpt>
<trkpt lat="40.63334666666666" lon="-3.1709249999999995">
<ele>672</ele>
<time>2017-03-03T11:50:50Z</time>
</trkpt>
<trkpt lat="40.63334666666666" lon="-3.1709249999999995">
<ele>672</ele>
<time>2017-03-03T11:50:54Z</time>
</trkpt>
<trkpt lat="40.63334666666666" lon="-3.1709249999999995">
<ele>672</ele>
<time>2017-03-03T11:50:58Z</time>
</trkpt>
<trkpt lat="40.63334666666666" lon="-3.1709249999999995">
<ele>672</ele>
<time>2017-03-03T11:51:02Z</time>
</trkpt>
<trkpt lat="40.63325" lon="-3.1710583333333338">
<ele>670</ele>
<time>2017-03-03T11:51:58Z</time>
</trkpt>
<trkpt lat="40.633248333333334" lon="-3.171076666666666">
<ele>672</ele>
<time>2017-03-03T11:52:02Z</time>
</trkpt>
<trkpt lat="40.633248333333334" lon="-3.171076666666666">
<ele>672</ele>
<time>2017-03-03T11:52:06Z</time>
</trkpt>
<trkpt lat="40.633245" lon="-3.1709450000000006">
<ele>670</ele>
<time>2017-03-03T11:52:10Z</time>
</trkpt>
<trkpt lat="40.63315" lon="-3.170986666666667">
<ele>669</ele>
<time>2017-03-03T11:52:14Z</time>
</trkpt>
<trkpt lat="40.63317" lon="-3.1710566666666664">
<ele>669</ele>
<time>2017-03-03T11:52:18Z</time>
</trkpt>
<trkpt lat="40.63322333333333" lon="-3.171105">
<ele>668</ele>
<time>2017-03-03T11:52:22Z</time>
</trkpt>
<trkpt lat="40.63317166666666" lon="-3.1712100000000003">
<ele>678</ele>
<time>2017-03-03T11:53:16Z</time>
</trkpt>
<trkpt lat="40.633183333333335" lon="-3.1712933333333333">
<ele>679</ele>
<time>2017-03-03T11:53:20Z</time>
</trkpt>
<trkpt lat="40.633175" lon="-3.171243333333334">
<ele>679</ele>
<time>2017-03-03T11:53:24Z</time>
</trkpt>
<trkpt lat="40.63306333333333" lon="-3.1710483333333332">
<ele>680</ele>
<time>2017-03-03T11:53:28Z</time>
</trkpt>
<trkpt lat="40.63295" lon="-3.170986666666667">
<ele>680</ele>
<time>2017-03-03T11:53:32Z</time>
</trkpt>
<trkpt lat="40.633125" lon="-3.1713000000000005">
<ele>676</ele>
<time>2017-03-03T11:54:36Z</time>
</trkpt>
<trkpt lat="40.633116666666666" lon="-3.1714366666666667">
<ele>671</ele>
<time>2017-03-03T11:54:40Z</time>
</trkpt>
<trkpt lat="40.63309666666667" lon="-3.171511666666667">
<ele>671</ele>
<time>2017-03-03T11:54:44Z</time>
</trkpt>
<trkpt lat="40.633125" lon="-3.17157">
<ele>672</ele>
<time>2017-03-03T11:54:48Z</time>
</trkpt>
<trkpt lat="40.633111666666665" lon="-3.1715950000000004">
<ele>672</ele>
<time>2017-03-03T11:54:52Z</time>
</trkpt>
<trkpt lat="40.632785" lon="-3.171653333333333">
<ele>672</ele>
<time>2017-03-03T11:54:56Z</time>
</trkpt>
<trkpt lat="40.63299166666666" lon="-3.171513333333333">
<ele>671</ele>
<time>2017-03-03T11:55:00Z</time>
</trkpt>
<trkpt lat="40.633075" lon="-3.171496666666667">
<ele>671</ele>
<time>2017-03-03T11:55:04Z</time>
</trkpt>
<trkpt lat="40.63321666666666" lon="-3.1715066666666663">
<ele>672</ele>
<time>2017-03-03T11:55:08Z</time>
</trkpt>
<trkpt lat="40.63325333333333" lon="-3.1714283333333335">
<ele>672</ele>
<time>2017-03-03T11:55:12Z</time>
</trkpt>
<trkpt lat="40.63332666666667" lon="-3.1714949999999997">
<ele>671</ele>
<time>2017-03-03T11:55:16Z</time>
</trkpt>
<trkpt lat="40.63333166666666" lon="-3.171525">
<ele>673</ele>
<time>2017-03-03T11:55:20Z</time>
</trkpt>
<trkpt lat="40.63330166666666" lon="-3.171521666666666">
<ele>678</ele>
<time>2017-03-03T11:55:24Z</time>
</trkpt>
<trkpt lat="40.633275000000005" lon="-3.1715533333333337">
<ele>684</ele>
<time>2017-03-03T11:55:28Z</time>
</trkpt>
<trkpt lat="40.63328333333333" lon="-3.1715766666666667">
<ele>690</ele>
<time>2017-03-03T11:55:32Z</time>
</trkpt>
<trkpt lat="40.633271666666666" lon="-3.1716400000000005">
<ele>692</ele>
<time>2017-03-03T11:55:36Z</time>
</trkpt>
<trkpt lat="40.63326833333333" lon="-3.1717066666666662">
<ele>694</ele>
<time>2017-03-03T11:55:40Z</time>
</trkpt>
<trkpt lat="40.633271666666666" lon="-3.171815">
<ele>697</ele>
<time>2017-03-03T11:55:44Z</time>
</trkpt>
<trkpt lat="40.63328833333333" lon="-3.1718716666666666">
<ele>700</ele>
<time>2017-03-03T11:55:48Z</time>
</trkpt>
<trkpt lat="40.633293333333334" lon="-3.17188">
<ele>700</ele>
<time>2017-03-03T11:55:52Z</time>
</trkpt>
<trkpt lat="40.633293333333334" lon="-3.17188">
<ele>700</ele>
<time>2017-03-03T11:55:56Z</time>
</trkpt>
<trkpt lat="40.63330666666666" lon="-3.171883333333333">
<ele>708</ele>
<time>2017-03-03T11:56:00Z</time>
</trkpt>
<trkpt lat="40.63332166666667" lon="-3.171851666666667">
<ele>708</ele>
<time>2017-03-03T11:56:04Z</time>
</trkpt>
<trkpt lat="40.63332166666667" lon="-3.171851666666667">
<ele>708</ele>
<time>2017-03-03T11:56:08Z</time>
</trkpt>
<trkpt lat="40.63324166666666" lon="-3.171756666666667">
<ele>713</ele>
<time>2017-03-03T11:56:12Z</time>
</trkpt>
<trkpt lat="40.633185000000005" lon="-3.171771666666667">
<ele>714</ele>
<time>2017-03-03T11:56:16Z</time>
</trkpt>
<trkpt lat="40.633228333333335" lon="-3.172303333333333">
<ele>709</ele>
<time>2017-03-03T11:59:22Z</time>
</trkpt>
<trkpt lat="40.633316666666666" lon="-3.1721983333333337">
<ele>700</ele>
<time>2017-03-03T11:59:26Z</time>
</trkpt>
<trkpt lat="40.633345" lon="-3.172201666666667">
<ele>698</ele>
<time>2017-03-03T11:59:30Z</time>
</trkpt>
<trkpt lat="40.63345833333334" lon="-3.172328333333333">
<ele>693</ele>
<time>2017-03-03T11:59:34Z</time>
</trkpt>
<trkpt lat="40.63348666666666" lon="-3.172346666666667">
<ele>691</ele>
<time>2017-03-03T11:59:38Z</time>
</trkpt>
<trkpt lat="40.63348666666666" lon="-3.172346666666667">
<ele>691</ele>
<time>2017-03-03T11:59:42Z</time>
</trkpt>
<trkpt lat="40.63348666666666" lon="-3.172346666666667">
<ele>691</ele>
<time>2017-03-03T11:59:46Z</time>
</trkpt>
<trkpt lat="40.63348666666666" lon="-3.172346666666667">
<ele>691</ele>
<time>2017-03-03T11:59:50Z</time>
</trkpt>
<trkpt lat="40.63357333333333" lon="-3.172428333333334">
<ele>691</ele>
<time>2017-03-03T11:59:54Z</time>
</trkpt>
<trkpt lat="40.633583333333334" lon="-3.172423333333333">
<ele>691</ele>
<time>2017-03-03T11:59:58Z</time>
</trkpt>
<trkpt lat="40.633583333333334" lon="-3.172423333333333">
<ele>691</ele>
<time>2017-03-03T12:00:02Z</time>
</trkpt>
<trkpt lat="40.6334" lon="-3.172408333333333">
<ele>691</ele>
<time>2017-03-03T12:01:34Z</time>
</trkpt>
<trkpt lat="40.633453333333335" lon="-3.172238333333333">
<ele>682</ele>
<time>2017-03-03T12:01:38Z</time>
</trkpt>
<trkpt lat="40.633473333333335" lon="-3.172185">
<ele>680</ele>
<time>2017-03-03T12:01:42Z</time>
</trkpt>
<trkpt lat="40.63355166666667" lon="-3.1720683333333333">
<ele>677</ele>
<time>2017-03-03T12:01:46Z</time>
</trkpt>
<trkpt lat="40.63358166666667" lon="-3.1720333333333333">
<ele>671</ele>
<time>2017-03-03T12:01:50Z</time>
</trkpt>
<trkpt lat="40.63364833333333" lon="-3.171963333333333">
<ele>666</ele>
<time>2017-03-03T12:01:54Z</time>
</trkpt>
<trkpt lat="40.633635" lon="-3.171883333333333">
<ele>665</ele>
<time>2017-03-03T12:01:58Z</time>
</trkpt>
<trkpt lat="40.6337" lon="-3.171845">
<ele>664</ele>
<time>2017-03-03T12:02:02Z</time>
</trkpt>
<trkpt lat="40.63395833333333" lon="-3.171468333333333">
<ele>667</ele>
<time>2017-03-03T12:02:06Z</time>
</trkpt>
<trkpt lat="40.633878333333335" lon="-3.171365">
<ele>669</ele>
<time>2017-03-03T12:02:10Z</time>
</trkpt>
<trkpt lat="40.63370333333333" lon="-3.171266666666667">
<ele>671</ele>
<time>2017-03-03T12:02:14Z</time>
</trkpt>
<trkpt lat="40.633635" lon="-3.1712949999999998">
<ele>672</ele>
<time>2017-03-03T12:02:18Z</time>
</trkpt>
<trkpt lat="40.63363833333334" lon="-3.1712599999999997">
<ele>674</ele>
<time>2017-03-03T12:02:22Z</time>
</trkpt>
<trkpt lat="40.633646666666664" lon="-3.1712333333333333">
<ele>675</ele>
<time>2017-03-03T12:02:26Z</time>
</trkpt>
<trkpt lat="40.633646666666664" lon="-3.1712333333333333">
<ele>675</ele>
<time>2017-03-03T12:02:30Z</time>
</trkpt>
<trkpt lat="40.633646666666664" lon="-3.1712333333333333">
<ele>675</ele>
<time>2017-03-03T12:02:34Z</time>
</trkpt>
<trkpt lat="40.63364" lon="-3.171075">
<ele>681</ele>
<time>2017-03-03T12:02:38Z</time>
</trkpt>
<trkpt lat="40.633630000000004" lon="-3.171038333333333">
<ele>683</ele>
<time>2017-03-03T12:02:42Z</time>
</trkpt>
<trkpt lat="40.63357" lon="-3.1709816666666666">
<ele>684</ele>
<time>2017-03-03T12:02:46Z</time>
</trkpt>
<trkpt lat="40.633495" lon="-3.171003333333333">
<ele>686</ele>
<time>2017-03-03T12:02:50Z</time>
</trkpt>
<trkpt lat="40.63356" lon="-3.1711383333333334">
<ele>687</ele>
<time>2017-03-03T12:02:54Z</time>
</trkpt>
<trkpt lat="40.63356" lon="-3.1711383333333334">
<ele>687</ele>
<time>2017-03-03T12:02:58Z</time>
</trkpt>
<trkpt lat="40.63356" lon="-3.1711383333333334">
<ele>687</ele>
<time>2017-03-03T12:03:02Z</time>
</trkpt>
<trkpt lat="40.63363833333334" lon="-3.171245">
<ele>688</ele>
<time>2017-03-03T12:03:06Z</time>
</trkpt>
<trkpt lat="40.633635" lon="-3.171253333333333">
<ele>688</ele>
<time>2017-03-03T12:03:10Z</time>
</trkpt>
<trkpt lat="40.633635" lon="-3.171253333333333">
<ele>688</ele>
<time>2017-03-03T12:03:14Z</time>
</trkpt>
<trkpt lat="40.633635" lon="-3.171253333333333">
<ele>688</ele>
<time>2017-03-03T12:03:18Z</time>
</trkpt>
<trkpt lat="40.633635" lon="-3.171253333333333">
<ele>688</ele>
<time>2017-03-03T12:03:22Z</time>
</trkpt>
<trkpt lat="40.63355" lon="-3.171198333333334">
<ele>690</ele>
<time>2017-03-03T12:03:26Z</time>
</trkpt>
<trkpt lat="40.633541666666666" lon="-3.1711900000000006">
<ele>690</ele>
<time>2017-03-03T12:03:30Z</time>
</trkpt>
<trkpt lat="40.63368333333334" lon="-3.1712">
<ele>691</ele>
<time>2017-03-03T12:03:34Z</time>
</trkpt>
<trkpt lat="40.63368833333333" lon="-3.1712133333333337">
<ele>691</ele>
<time>2017-03-03T12:03:38Z</time>
</trkpt>
<trkpt lat="40.633781666666664" lon="-3.1712133333333337">
<ele>691</ele>
<time>2017-03-03T12:03:42Z</time>
</trkpt>
<trkpt lat="40.63379833333333" lon="-3.171223333333333">
<ele>691</ele>
<time>2017-03-03T12:03:46Z</time>
</trkpt>
<trkpt lat="40.63379833333333" lon="-3.171223333333333">
<ele>691</ele>
<time>2017-03-03T12:03:50Z</time>
</trkpt>
<trkpt lat="40.63373166666667" lon="-3.1713316666666667">
<ele>690</ele>
<time>2017-03-03T12:03:54Z</time>
</trkpt>
<trkpt lat="40.63282" lon="-3.1714100000000003">
<ele>688</ele>
<time>2017-03-03T12:04:20Z</time>
</trkpt>
<trkpt lat="40.63339666666666" lon="-3.171543333333333">
<ele>688</ele>
<time>2017-03-03T12:04:24Z</time>
</trkpt>
<trkpt lat="40.633768333333336" lon="-3.1716550000000003">
<ele>688</ele>
<time>2017-03-03T12:04:28Z</time>
</trkpt>
<trkpt lat="40.63384333333333" lon="-3.1717283333333333">
<ele>688</ele>
<time>2017-03-03T12:04:32Z</time>
</trkpt>
<trkpt lat="40.63384" lon="-3.171741666666667">
<ele>688</ele>
<time>2017-03-03T12:04:36Z</time>
</trkpt>
<trkpt lat="40.63384" lon="-3.171741666666667">
<ele>688</ele>
<time>2017-03-03T12:04:40Z</time>
</trkpt>
<trkpt lat="40.63384" lon="-3.171741666666667">
<ele>688</ele>
<time>2017-03-03T12:04:44Z</time>
</trkpt>
<trkpt lat="40.63384166666666" lon="-3.1718649999999995">
<ele>689</ele>
<time>2017-03-03T12:04:48Z</time>
</trkpt>
<trkpt lat="40.633829999999996" lon="-3.1719150000000003">
<ele>689</ele>
<time>2017-03-03T12:04:52Z</time>
</trkpt>
<trkpt lat="40.633829999999996" lon="-3.1719150000000003">
<ele>689</ele>
<time>2017-03-03T12:04:56Z</time>
</trkpt>
<trkpt lat="40.633829999999996" lon="-3.1719150000000003">
<ele>689</ele>
<time>2017-03-03T12:05:00Z</time>
</trkpt>
<trkpt lat="40.633829999999996" lon="-3.1719150000000003">
<ele>689</ele>
<time>2017-03-03T12:05:04Z</time>
</trkpt>
<trkpt lat="40.633783333333334" lon="-3.1720033333333335">
<ele>690</ele>
<time>2017-03-03T12:05:08Z</time>
</trkpt>
<trkpt lat="40.63382166666667" lon="-3.171993333333333">
<ele>690</ele>
<time>2017-03-03T12:05:12Z</time>
</trkpt>
<trkpt lat="40.63389166666666" lon="-3.171898333333333">
<ele>690</ele>
<time>2017-03-03T12:05:16Z</time>
</trkpt>
<trkpt lat="40.63391333333333" lon="-3.171861666666666">
<ele>690</ele>
<time>2017-03-03T12:05:20Z</time>
</trkpt>
<trkpt lat="40.63391333333333" lon="-3.171861666666666">
<ele>690</ele>
<time>2017-03-03T12:05:24Z</time>
</trkpt>
<trkpt lat="40.634011666666666" lon="-3.171815">
<ele>689</ele>
<time>2017-03-03T12:05:28Z</time>
</trkpt>
<trkpt lat="40.634033333333335" lon="-3.1717983333333337">
<ele>689</ele>
<time>2017-03-03T12:05:32Z</time>
</trkpt>
<trkpt lat="40.63400166666667" lon="-3.1717233333333334">
<ele>689</ele>
<time>2017-03-03T12:05:36Z</time>
</trkpt>
<trkpt lat="40.634005" lon="-3.1716716666666667">
<ele>689</ele>
<time>2017-03-03T12:05:40Z</time>
</trkpt>
<trkpt lat="40.634006666666664" lon="-3.1716116666666663">
<ele>688</ele>
<time>2017-03-03T12:05:44Z</time>
</trkpt>
<trkpt lat="40.633915" lon="-3.171571666666667">
<ele>688</ele>
<time>2017-03-03T12:05:48Z</time>
</trkpt>
<trkpt lat="40.633876666666666" lon="-3.1715066666666663">
<ele>686</ele>
<time>2017-03-03T12:05:52Z</time>
</trkpt>
<trkpt lat="40.633878333333335" lon="-3.17149">
<ele>685</ele>
<time>2017-03-03T12:05:56Z</time>
</trkpt>
<trkpt lat="40.63384666666666" lon="-3.1714333333333333">
<ele>684</ele>
<time>2017-03-03T12:06:00Z</time>
</trkpt>
<trkpt lat="40.63381666666667" lon="-3.1712866666666666">
<ele>680</ele>
<time>2017-03-03T12:06:04Z</time>
</trkpt>
<trkpt lat="40.633718333333334" lon="-3.171285">
<ele>685</ele>
<time>2017-03-03T12:06:08Z</time>
</trkpt>
<trkpt lat="40.63364" lon="-3.1713983333333338">
<ele>690</ele>
<time>2017-03-03T12:06:12Z</time>
</trkpt>
<trkpt lat="40.63366499999999" lon="-3.1712816666666668">
<ele>691</ele>
<time>2017-03-03T12:06:16Z</time>
</trkpt>
<trkpt lat="40.633685" lon="-3.1712550000000004">
<ele>692</ele>
<time>2017-03-03T12:06:20Z</time>
</trkpt>
<trkpt lat="40.633705" lon="-3.171221666666667">
<ele>693</ele>
<time>2017-03-03T12:06:24Z</time>
</trkpt>
<trkpt lat="40.63384333333333" lon="-3.1710499999999997">
<ele>692</ele>
<time>2017-03-03T12:06:28Z</time>
</trkpt>
<trkpt lat="40.633898333333335" lon="-3.170956666666667">
<ele>692</ele>
<time>2017-03-03T12:06:32Z</time>
</trkpt>
<trkpt lat="40.63394166666667" lon="-3.1708733333333337">
<ele>692</ele>
<time>2017-03-03T12:06:36Z</time>
</trkpt>
<trkpt lat="40.63395666666667" lon="-3.1708349999999994">
<ele>692</ele>
<time>2017-03-03T12:06:40Z</time>
</trkpt>
<trkpt lat="40.63399833333334" lon="-3.170801666666667">
<ele>694</ele>
<time>2017-03-03T12:06:44Z</time>
</trkpt>
<trkpt lat="40.63402333333333" lon="-3.1708">
<ele>694</ele>
<time>2017-03-03T12:06:48Z</time>
</trkpt>
<trkpt lat="40.63402333333333" lon="-3.1708">
<ele>694</ele>
<time>2017-03-03T12:06:52Z</time>
</trkpt>
<trkpt lat="40.63404666666667" lon="-3.170703333333334">
<ele>696</ele>
<time>2017-03-03T12:06:56Z</time>
</trkpt>
<trkpt lat="40.63404166666667" lon="-3.1706883333333336">
<ele>697</ele>
<time>2017-03-03T12:07:00Z</time>
</trkpt>
<trkpt lat="40.63404166666667" lon="-3.1706883333333336">
<ele>697</ele>
<time>2017-03-03T12:07:04Z</time>
</trkpt>
<trkpt lat="40.6341" lon="-3.1705516666666664">
<ele>699</ele>
<time>2017-03-03T12:07:08Z</time>
</trkpt>
<trkpt lat="40.634101666666666" lon="-3.1704566666666665">
<ele>699</ele>
<time>2017-03-03T12:07:12Z</time>
</trkpt>
<trkpt lat="40.63409333333333" lon="-3.170345">
<ele>700</ele>
<time>2017-03-03T12:07:16Z</time>
</trkpt>
<trkpt lat="40.634058333333336" lon="-3.170291666666666">
<ele>700</ele>
<time>2017-03-03T12:07:20Z</time>
</trkpt>
<trkpt lat="40.63405" lon="-3.1702349999999995">
<ele>702</ele>
<time>2017-03-03T12:07:28Z</time>
</trkpt>
<trkpt lat="40.63405" lon="-3.1702349999999995">
<ele>702</ele>
<time>2017-03-03T12:07:32Z</time>
</trkpt>
<trkpt lat="40.63405" lon="-3.1702349999999995">
<ele>702</ele>
<time>2017-03-03T12:07:36Z</time>
</trkpt>
<trkpt lat="40.63405" lon="-3.1702349999999995">
<ele>702</ele>
<time>2017-03-03T12:07:40Z</time>
</trkpt>
<trkpt lat="40.63406666666666" lon="-3.1702516666666667">
<ele>703</ele>
<time>2017-03-03T12:07:44Z</time>
</trkpt>
<trkpt lat="40.63410666666667" lon="-3.1702883333333336">
<ele>703</ele>
<time>2017-03-03T12:07:48Z</time>
</trkpt>
<trkpt lat="40.634095" lon="-3.17026">
<ele>702</ele>
<time>2017-03-03T12:07:52Z</time>
</trkpt>
<trkpt lat="40.634085" lon="-3.17024">
<ele>702</ele>
<time>2017-03-03T12:07:56Z</time>
</trkpt>
<trkpt lat="40.63413" lon="-3.170808333333333">
<ele>674</ele>
<time>2017-03-03T12:08:34Z</time>
</trkpt>
<trkpt lat="40.63413333333333" lon="-3.1709000000000005">
<ele>670</ele>
<time>2017-03-03T12:08:38Z</time>
</trkpt>
<trkpt lat="40.634168333333335" lon="-3.1709450000000006">
<ele>668</ele>
<time>2017-03-03T12:08:42Z</time>
</trkpt>
<trkpt lat="40.63416666666667" lon="-3.1709433333333332">
<ele>666</ele>
<time>2017-03-03T12:08:46Z</time>
</trkpt>
<trkpt lat="40.63416666666667" lon="-3.1709433333333332">
<ele>666</ele>
<time>2017-03-03T12:08:50Z</time>
</trkpt>
<trkpt lat="40.63416666666667" lon="-3.1709433333333332">
<ele>666</ele>
<time>2017-03-03T12:08:54Z</time>
</trkpt>
<trkpt lat="40.63416666666667" lon="-3.1709433333333332">
<ele>666</ele>
<time>2017-03-03T12:08:58Z</time>
</trkpt>
<trkpt lat="40.63416666666667" lon="-3.1709433333333332">
<ele>666</ele>
<time>2017-03-03T12:09:02Z</time>
</trkpt>
<trkpt lat="40.634281666666666" lon="-3.1709549999999997">
<ele>668</ele>
<time>2017-03-03T12:09:06Z</time>
</trkpt>
<trkpt lat="40.634281666666666" lon="-3.1709549999999997">
<ele>668</ele>
<time>2017-03-03T12:09:10Z</time>
</trkpt>
<trkpt lat="40.634281666666666" lon="-3.1709549999999997">
<ele>668</ele>
<time>2017-03-03T12:09:14Z</time>
</trkpt>
<trkpt lat="40.634281666666666" lon="-3.1709549999999997">
<ele>668</ele>
<time>2017-03-03T12:09:18Z</time>
</trkpt>
<trkpt lat="40.634281666666666" lon="-3.1709549999999997">
<ele>668</ele>
<time>2017-03-03T12:09:22Z</time>
</trkpt>
<trkpt lat="40.63421666666667" lon="-3.1708416666666666">
<ele>669</ele>
<time>2017-03-03T12:09:26Z</time>
</trkpt>
<trkpt lat="40.63410666666667" lon="-3.171066666666667">
<ele>652</ele>
<time>2017-03-03T12:09:40Z</time>
</trkpt>
<trkpt lat="40.63416666666667" lon="-3.1710933333333333">
<ele>653</ele>
<time>2017-03-03T12:09:44Z</time>
</trkpt>
<trkpt lat="40.634185" lon="-3.171111666666667">
<ele>657</ele>
<time>2017-03-03T12:09:48Z</time>
</trkpt>
<trkpt lat="40.63419" lon="-3.1711600000000004">
<ele>661</ele>
<time>2017-03-03T12:09:52Z</time>
</trkpt>
<trkpt lat="40.63417166666667" lon="-3.171216666666667">
<ele>664</ele>
<time>2017-03-03T12:09:56Z</time>
</trkpt>
<trkpt lat="40.63412166666667" lon="-3.1712550000000004">
<ele>664</ele>
<time>2017-03-03T12:10:00Z</time>
</trkpt>
<trkpt lat="40.63408833333334" lon="-3.171326666666667">
<ele>665</ele>
<time>2017-03-03T12:10:04Z</time>
</trkpt>
<trkpt lat="40.63409333333333" lon="-3.1714199999999995">
<ele>664</ele>
<time>2017-03-03T12:10:08Z</time>
</trkpt>
<trkpt lat="40.634096666666665" lon="-3.1715000000000004">
<ele>665</ele>
<time>2017-03-03T12:10:12Z</time>
</trkpt>
<trkpt lat="40.63408166666667" lon="-3.1715916666666666">
<ele>665</ele>
<time>2017-03-03T12:10:16Z</time>
</trkpt>
<trkpt lat="40.63406666666666" lon="-3.1716550000000003">
<ele>666</ele>
<time>2017-03-03T12:10:20Z</time>
</trkpt>
<trkpt lat="40.634069999999994" lon="-3.171676666666666">
<ele>666</ele>
<time>2017-03-03T12:10:24Z</time>
</trkpt>
<trkpt lat="40.634069999999994" lon="-3.171676666666666">
<ele>666</ele>
<time>2017-03-03T12:10:28Z</time>
</trkpt>
<trkpt lat="40.634069999999994" lon="-3.171676666666666">
<ele>666</ele>
<time>2017-03-03T12:10:32Z</time>
</trkpt>
<trkpt lat="40.634069999999994" lon="-3.171676666666666">
<ele>666</ele>
<time>2017-03-03T12:10:36Z</time>
</trkpt>
<trkpt lat="40.634069999999994" lon="-3.171676666666666">
<ele>666</ele>
<time>2017-03-03T12:10:40Z</time>
</trkpt>
<trkpt lat="40.634069999999994" lon="-3.171676666666666">
<ele>666</ele>
<time>2017-03-03T12:10:44Z</time>
</trkpt>
<trkpt lat="40.634069999999994" lon="-3.171676666666666">
<ele>666</ele>
<time>2017-03-03T12:10:48Z</time>
</trkpt>
<trkpt lat="40.634069999999994" lon="-3.171676666666666">
<ele>666</ele>
<time>2017-03-03T12:10:52Z</time>
</trkpt>
<trkpt lat="40.634069999999994" lon="-3.171676666666666">
<ele>666</ele>
<time>2017-03-03T12:10:56Z</time>
</trkpt>
<trkpt lat="40.634069999999994" lon="-3.171676666666666">
<ele>666</ele>
<time>2017-03-03T12:11:00Z</time>
</trkpt>
<trkpt lat="40.634161666666664" lon="-3.1717016666666664">
<ele>671</ele>
<time>2017-03-03T12:11:04Z</time>
</trkpt>
<trkpt lat="40.634185" lon="-3.171698333333333">
<ele>671</ele>
<time>2017-03-03T12:11:08Z</time>
</trkpt>
<trkpt lat="40.634185" lon="-3.171698333333333">
<ele>671</ele>
<time>2017-03-03T12:11:12Z</time>
</trkpt>
<trkpt lat="40.634185" lon="-3.171698333333333">
<ele>671</ele>
<time>2017-03-03T12:11:16Z</time>
</trkpt>
<trkpt lat="40.634185" lon="-3.171698333333333">
<ele>671</ele>
<time>2017-03-03T12:11:20Z</time>
</trkpt>
<trkpt lat="40.634185" lon="-3.171698333333333">
<ele>671</ele>
<time>2017-03-03T12:11:24Z</time>
</trkpt>
<trkpt lat="40.63428833333333" lon="-3.171675">
<ele>672</ele>
<time>2017-03-03T12:11:28Z</time>
</trkpt>
<trkpt lat="40.63429333333333" lon="-3.171676666666666">
<ele>672</ele>
<time>2017-03-03T12:11:32Z</time>
</trkpt>
<trkpt lat="40.63429333333333" lon="-3.171676666666666">
<ele>672</ele>
<time>2017-03-03T12:11:36Z</time>
</trkpt>
<trkpt lat="40.63429333333333" lon="-3.171676666666666">
<ele>672</ele>
<time>2017-03-03T12:11:40Z</time>
</trkpt>
<trkpt lat="40.63429333333333" lon="-3.171676666666666">
<ele>672</ele>
<time>2017-03-03T12:11:44Z</time>
</trkpt>
<trkpt lat="40.63429333333333" lon="-3.171676666666666">
<ele>672</ele>
<time>2017-03-03T12:11:48Z</time>
</trkpt>
<trkpt lat="40.63429333333333" lon="-3.171676666666666">
<ele>672</ele>
<time>2017-03-03T12:11:52Z</time>
</trkpt>
<trkpt lat="40.63429333333333" lon="-3.171676666666666">
<ele>672</ele>
<time>2017-03-03T12:11:56Z</time>
</trkpt>
<trkpt lat="40.634163333333326" lon="-3.1717950000000004">
<ele>672</ele>
<time>2017-03-03T12:12:00Z</time>
</trkpt>
<trkpt lat="40.63415166666667" lon="-3.171851666666667">
<ele>673</ele>
<time>2017-03-03T12:12:04Z</time>
</trkpt>
<trkpt lat="40.63415166666667" lon="-3.171851666666667">
<ele>673</ele>
<time>2017-03-03T12:12:08Z</time>
</trkpt>
<trkpt lat="40.63415166666667" lon="-3.171851666666667">
<ele>673</ele>
<time>2017-03-03T12:12:12Z</time>
</trkpt>
<trkpt lat="40.63415166666667" lon="-3.171851666666667">
<ele>673</ele>
<time>2017-03-03T12:12:16Z</time>
</trkpt>
<trkpt lat="40.63423" lon="-3.1719450000000005">
<ele>673</ele>
<time>2017-03-03T12:12:20Z</time>
</trkpt>
<trkpt lat="40.63412" lon="-3.1719133333333334">
<ele>673</ele>
<time>2017-03-03T12:12:24Z</time>
</trkpt>
<trkpt lat="40.63409333333333" lon="-3.1718033333333335">
<ele>672</ele>
<time>2017-03-03T12:12:28Z</time>
</trkpt>
<trkpt lat="40.63385666666667" lon="-3.1718949999999997">
<ele>671</ele>
<time>2017-03-03T12:12:32Z</time>
</trkpt>
<trkpt lat="40.63404333333334" lon="-3.1719549999999996">
<ele>665</ele>
<time>2017-03-03T12:13:04Z</time>
</trkpt>
<trkpt lat="40.63412833333334" lon="-3.1720183333333334">
<ele>664</ele>
<time>2017-03-03T12:13:08Z</time>
</trkpt>
<trkpt lat="40.634143333333334" lon="-3.172143333333333">
<ele>663</ele>
<time>2017-03-03T12:13:12Z</time>
</trkpt>
<trkpt lat="40.634123333333335" lon="-3.1722866666666665">
<ele>664</ele>
<time>2017-03-03T12:13:16Z</time>
</trkpt>
<trkpt lat="40.63411333333333" lon="-3.1723683333333335">
<ele>665</ele>
<time>2017-03-03T12:13:20Z</time>
</trkpt>
<trkpt lat="40.634186666666665" lon="-3.172438333333333">
<ele>667</ele>
<time>2017-03-03T12:13:24Z</time>
</trkpt>
<trkpt lat="40.63424833333333" lon="-3.17252">
<ele>668</ele>
<time>2017-03-03T12:13:28Z</time>
</trkpt>
<trkpt lat="40.63432" lon="-3.172578333333333">
<ele>669</ele>
<time>2017-03-03T12:13:32Z</time>
</trkpt>
<trkpt lat="40.63435333333334" lon="-3.1726166666666673">
<ele>671</ele>
<time>2017-03-03T12:13:36Z</time>
</trkpt>
<trkpt lat="40.634365" lon="-3.1726083333333333">
<ele>672</ele>
<time>2017-03-03T12:13:40Z</time>
</trkpt>
<trkpt lat="40.634429999999995" lon="-3.17261">
<ele>673</ele>
<time>2017-03-03T12:13:44Z</time>
</trkpt>
<trkpt lat="40.63447333333333" lon="-3.172633333333333">
<ele>675</ele>
<time>2017-03-03T12:13:48Z</time>
</trkpt>
<trkpt lat="40.634429999999995" lon="-3.1726416666666664">
<ele>676</ele>
<time>2017-03-03T12:13:52Z</time>
</trkpt>
<trkpt lat="40.634341666666664" lon="-3.172563333333333">
<ele>678</ele>
<time>2017-03-03T12:13:56Z</time>
</trkpt>
<trkpt lat="40.63407333333334" lon="-3.172578333333333">
<ele>679</ele>
<time>2017-03-03T12:14:00Z</time>
</trkpt>
<trkpt lat="40.63407333333334" lon="-3.172578333333333">
<ele>679</ele>
<time>2017-03-03T12:14:04Z</time>
</trkpt>
<trkpt lat="40.63407333333334" lon="-3.172578333333333">
<ele>679</ele>
<time>2017-03-03T12:14:08Z</time>
</trkpt>
<trkpt lat="40.633993333333336" lon="-3.1726633333333334">
<ele>682</ele>
<time>2017-03-03T12:14:12Z</time>
</trkpt>
<trkpt lat="40.633993333333336" lon="-3.1726633333333334">
<ele>682</ele>
<time>2017-03-03T12:14:16Z</time>
</trkpt>
<trkpt lat="40.63385666666667" lon="-3.172661666666666">
<ele>683</ele>
<time>2017-03-03T12:14:20Z</time>
</trkpt>
<trkpt lat="40.63376166666667" lon="-3.172675">
<ele>683</ele>
<time>2017-03-03T12:14:24Z</time>
</trkpt>
<trkpt lat="40.63368166666667" lon="-3.1726916666666662">
<ele>683</ele>
<time>2017-03-03T12:14:28Z</time>
</trkpt>
<trkpt lat="40.63361833333333" lon="-3.172683333333333">
<ele>683</ele>
<time>2017-03-03T12:14:32Z</time>
</trkpt>
<trkpt lat="40.63358166666667" lon="-3.1726799999999997">
<ele>684</ele>
<time>2017-03-03T12:14:36Z</time>
</trkpt>
<trkpt lat="40.63359333333334" lon="-3.1726499999999995">
<ele>684</ele>
<time>2017-03-03T12:14:40Z</time>
</trkpt>
<trkpt lat="40.63359333333334" lon="-3.1726499999999995">
<ele>684</ele>
<time>2017-03-03T12:14:44Z</time>
</trkpt>
<trkpt lat="40.633754999999994" lon="-3.1726883333333338">
<ele>684</ele>
<time>2017-03-03T12:14:48Z</time>
</trkpt>
<trkpt lat="40.6337" lon="-3.172705">
<ele>685</ele>
<time>2017-03-03T12:14:52Z</time>
</trkpt>
<trkpt lat="40.63370833333333" lon="-3.172718333333333">
<ele>685</ele>
<time>2017-03-03T12:14:56Z</time>
</trkpt>
<trkpt lat="40.63370833333333" lon="-3.172718333333333">
<ele>685</ele>
<time>2017-03-03T12:15:00Z</time>
</trkpt>
<trkpt lat="40.63370833333333" lon="-3.172718333333333">
<ele>685</ele>
<time>2017-03-03T12:15:04Z</time>
</trkpt>
<trkpt lat="40.633795" lon="-3.1726133333333335">
<ele>686</ele>
<time>2017-03-03T12:15:08Z</time>
</trkpt>
<trkpt lat="40.633795" lon="-3.1726133333333335">
<ele>686</ele>
<time>2017-03-03T12:15:12Z</time>
</trkpt>
<trkpt lat="40.63377833333333" lon="-3.1724666666666668">
<ele>686</ele>
<time>2017-03-03T12:15:16Z</time>
</trkpt>
<trkpt lat="40.63377" lon="-3.1724799999999997">
<ele>686</ele>
<time>2017-03-03T12:15:20Z</time>
</trkpt>
<trkpt lat="40.63377" lon="-3.172503333333333">
<ele>686</ele>
<time>2017-03-03T12:15:24Z</time>
</trkpt>
<trkpt lat="40.63377" lon="-3.172503333333333">
<ele>686</ele>
<time>2017-03-03T12:15:28Z</time>
</trkpt>
<trkpt lat="40.63388833333333" lon="-3.1725300000000005">
<ele>686</ele>
<time>2017-03-03T12:15:32Z</time>
</trkpt>
<trkpt lat="40.633925" lon="-3.1725316666666665">
<ele>686</ele>
<time>2017-03-03T12:15:36Z</time>
</trkpt>
<trkpt lat="40.633925" lon="-3.1725316666666665">
<ele>686</ele>
<time>2017-03-03T12:15:40Z</time>
</trkpt>
<trkpt lat="40.633925" lon="-3.1725316666666665">
<ele>686</ele>
<time>2017-03-03T12:15:44Z</time>
</trkpt>
<trkpt lat="40.633925" lon="-3.1725316666666665">
<ele>686</ele>
<time>2017-03-03T12:15:48Z</time>
</trkpt>
<trkpt lat="40.63402166666666" lon="-3.172518333333333">
<ele>686</ele>
<time>2017-03-03T12:15:52Z</time>
</trkpt>
<trkpt lat="40.63403166666667" lon="-3.1725350000000003">
<ele>686</ele>
<time>2017-03-03T12:15:56Z</time>
</trkpt>
<trkpt lat="40.63403166666667" lon="-3.1725350000000003">
<ele>686</ele>
<time>2017-03-03T12:16:00Z</time>
</trkpt>
<trkpt lat="40.63411" lon="-3.172473333333334">
<ele>686</ele>
<time>2017-03-03T12:16:04Z</time>
</trkpt>
<trkpt lat="40.63411166666666" lon="-3.1724933333333336">
<ele>686</ele>
<time>2017-03-03T12:16:08Z</time>
</trkpt>
<trkpt lat="40.63411166666666" lon="-3.1724933333333336">
<ele>686</ele>
<time>2017-03-03T12:16:12Z</time>
</trkpt>
<trkpt lat="40.634053333333334" lon="-3.1725983333333336">
<ele>686</ele>
<time>2017-03-03T12:16:16Z</time>
</trkpt>
<trkpt lat="40.634078333333335" lon="-3.172606666666667">
<ele>686</ele>
<time>2017-03-03T12:16:20Z</time>
</trkpt>
<trkpt lat="40.634078333333335" lon="-3.172606666666667">
<ele>686</ele>
<time>2017-03-03T12:16:24Z</time>
</trkpt>
<trkpt lat="40.634078333333335" lon="-3.172606666666667">
<ele>686</ele>
<time>2017-03-03T12:16:28Z</time>
</trkpt>
<trkpt lat="40.63417833333333" lon="-3.1726183333333333">
<ele>686</ele>
<time>2017-03-03T12:16:32Z</time>
</trkpt>
<trkpt lat="40.634215000000005" lon="-3.1725950000000003">
<ele>685</ele>
<time>2017-03-03T12:16:36Z</time>
</trkpt>
<trkpt lat="40.634215000000005" lon="-3.1725950000000003">
<ele>685</ele>
<time>2017-03-03T12:16:40Z</time>
</trkpt>
<trkpt lat="40.634135" lon="-3.172588333333333">
<ele>685</ele>
<time>2017-03-03T12:16:44Z</time>
</trkpt>
<trkpt lat="40.634096666666665" lon="-3.1728166666666673">
<ele>684</ele>
<time>2017-03-03T12:16:48Z</time>
</trkpt>
<trkpt lat="40.634033333333335" lon="-3.1729833333333337">
<ele>685</ele>
<time>2017-03-03T12:16:52Z</time>
</trkpt>
<trkpt lat="40.63406166666667" lon="-3.1728183333333333">
<ele>686</ele>
<time>2017-03-03T12:16:56Z</time>
</trkpt>
<trkpt lat="40.634168333333335" lon="-3.172763333333333">
<ele>687</ele>
<time>2017-03-03T12:17:00Z</time>
</trkpt>
<trkpt lat="40.63423" lon="-3.1725716666666672">
<ele>688</ele>
<time>2017-03-03T12:17:04Z</time>
</trkpt>
<trkpt lat="40.63433333333333" lon="-3.172341666666667">
<ele>688</ele>
<time>2017-03-03T12:17:08Z</time>
</trkpt>
<trkpt lat="40.63437" lon="-3.1721166666666667">
<ele>689</ele>
<time>2017-03-03T12:17:12Z</time>
</trkpt>
<trkpt lat="40.63442333333333" lon="-3.172246666666666">
<ele>691</ele>
<time>2017-03-03T12:17:16Z</time>
</trkpt>
<trkpt lat="40.63447" lon="-3.172208333333333">
<ele>692</ele>
<time>2017-03-03T12:17:20Z</time>
</trkpt>
<trkpt lat="40.63456333333333" lon="-3.1723083333333335">
<ele>693</ele>
<time>2017-03-03T12:17:24Z</time>
</trkpt>
<trkpt lat="40.63447833333333" lon="-3.172356666666667">
<ele>694</ele>
<time>2017-03-03T12:17:28Z</time>
</trkpt>
<trkpt lat="40.63438" lon="-3.1724316666666663">
<ele>695</ele>
<time>2017-03-03T12:17:32Z</time>
</trkpt>
<trkpt lat="40.63437333333333" lon="-3.1724666666666668">
<ele>695</ele>
<time>2017-03-03T12:17:36Z</time>
</trkpt>
<trkpt lat="40.63431833333333" lon="-3.172503333333333">
<ele>696</ele>
<time>2017-03-03T12:17:40Z</time>
</trkpt>
<trkpt lat="40.634303333333335" lon="-3.172515">
<ele>696</ele>
<time>2017-03-03T12:17:44Z</time>
</trkpt>
<trkpt lat="40.634303333333335" lon="-3.172515">
<ele>696</ele>
<time>2017-03-03T12:17:48Z</time>
</trkpt>
<trkpt lat="40.634296666666664" lon="-3.172765">
<ele>698</ele>
<time>2017-03-03T12:17:52Z</time>
</trkpt>
<trkpt lat="40.634296666666664" lon="-3.172765">
<ele>698</ele>
<time>2017-03-03T12:17:56Z</time>
</trkpt>
<trkpt lat="40.634296666666664" lon="-3.172765">
<ele>698</ele>
<time>2017-03-03T12:18:00Z</time>
</trkpt>
<trkpt lat="40.634296666666664" lon="-3.172765">
<ele>698</ele>
<time>2017-03-03T12:18:04Z</time>
</trkpt>
<trkpt lat="40.63421166666667" lon="-3.1726666666666667">
<ele>700</ele>
<time>2017-03-03T12:18:08Z</time>
</trkpt>
<trkpt lat="40.634208333333326" lon="-3.172633333333333">
<ele>700</ele>
<time>2017-03-03T12:18:12Z</time>
</trkpt>
<trkpt lat="40.634208333333326" lon="-3.172633333333333">
<ele>700</ele>
<time>2017-03-03T12:18:16Z</time>
</trkpt>
<trkpt lat="40.63422833333333" lon="-3.172515">
<ele>701</ele>
<time>2017-03-03T12:18:20Z</time>
</trkpt>
<trkpt lat="40.634245" lon="-3.1724483333333335">
<ele>701</ele>
<time>2017-03-03T12:18:24Z</time>
</trkpt>
<trkpt lat="40.634315" lon="-3.1724583333333336">
<ele>701</ele>
<time>2017-03-03T12:18:28Z</time>
</trkpt>
<trkpt lat="40.634335" lon="-3.1725816666666664">
<ele>701</ele>
<time>2017-03-03T12:18:32Z</time>
</trkpt>
<trkpt lat="40.634393333333335" lon="-3.1725966666666663">
<ele>701</ele>
<time>2017-03-03T12:18:36Z</time>
</trkpt>
<trkpt lat="40.63444833333333" lon="-3.1726216666666667">
<ele>701</ele>
<time>2017-03-03T12:18:40Z</time>
</trkpt>
<trkpt lat="40.63449666666667" lon="-3.1726400000000003">
<ele>700</ele>
<time>2017-03-03T12:18:44Z</time>
</trkpt>
<trkpt lat="40.63442666666666" lon="-3.172563333333333">
<ele>700</ele>
<time>2017-03-03T12:18:48Z</time>
</trkpt>
<trkpt lat="40.63442666666666" lon="-3.172563333333333">
<ele>700</ele>
<time>2017-03-03T12:18:52Z</time>
</trkpt>
<trkpt lat="40.63435333333334" lon="-3.1727216666666664">
<ele>699</ele>
<time>2017-03-03T12:18:56Z</time>
</trkpt>
<trkpt lat="40.634341666666664" lon="-3.1727399999999997">
<ele>699</ele>
<time>2017-03-03T12:19:00Z</time>
</trkpt>
<trkpt lat="40.634341666666664" lon="-3.1727399999999997">
<ele>699</ele>
<time>2017-03-03T12:19:04Z</time>
</trkpt>
<trkpt lat="40.63444166666667" lon="-3.1727950000000003">
<ele>699</ele>
<time>2017-03-03T12:19:08Z</time>
</trkpt>
<trkpt lat="40.63449666666667" lon="-3.1728066666666668">
<ele>699</ele>
<time>2017-03-03T12:19:12Z</time>
</trkpt>
<trkpt lat="40.634519999999995" lon="-3.1728400000000003">
<ele>699</ele>
<time>2017-03-03T12:19:16Z</time>
</trkpt>
<trkpt lat="40.634315" lon="-3.1731366666666663">
<ele>698</ele>
<time>2017-03-03T12:19:20Z</time>
</trkpt>
<trkpt lat="40.63424" lon="-3.1729599999999993">
<ele>696</ele>
<time>2017-03-03T12:19:24Z</time>
</trkpt>
<trkpt lat="40.63422333333333" lon="-3.1729849999999997">
<ele>695</ele>
<time>2017-03-03T12:19:28Z</time>
</trkpt>
<trkpt lat="40.63422333333333" lon="-3.1729849999999997">
<ele>695</ele>
<time>2017-03-03T12:19:32Z</time>
</trkpt>
<trkpt lat="40.63428" lon="-3.1728199999999998">
<ele>694</ele>
<time>2017-03-03T12:19:36Z</time>
</trkpt>
<trkpt lat="40.634348333333335" lon="-3.172765">
<ele>693</ele>
<time>2017-03-03T12:19:40Z</time>
</trkpt>
<trkpt lat="40.63439166666667" lon="-3.1727316666666665">
<ele>694</ele>
<time>2017-03-03T12:19:44Z</time>
</trkpt>
<trkpt lat="40.63442" lon="-3.1727316666666665">
<ele>694</ele>
<time>2017-03-03T12:19:48Z</time>
</trkpt>
<trkpt lat="40.63447" lon="-3.1727316666666665">
<ele>694</ele>
<time>2017-03-03T12:19:52Z</time>
</trkpt>
<trkpt lat="40.634521666666664" lon="-3.1727399999999997">
<ele>694</ele>
<time>2017-03-03T12:19:56Z</time>
</trkpt>
<trkpt lat="40.634521666666664" lon="-3.1727399999999997">
<ele>694</ele>
<time>2017-03-03T12:20:00Z</time>
</trkpt>
<trkpt lat="40.63449166666667" lon="-3.172851666666667">
<ele>695</ele>
<time>2017-03-03T12:20:04Z</time>
</trkpt>
<trkpt lat="40.63449166666667" lon="-3.17286">
<ele>695</ele>
<time>2017-03-03T12:20:08Z</time>
</trkpt>
<trkpt lat="40.63444333333334" lon="-3.1728983333333334">
<ele>695</ele>
<time>2017-03-03T12:20:12Z</time>
</trkpt>
<trkpt lat="40.63442166666667" lon="-3.1729000000000003">
<ele>696</ele>
<time>2017-03-03T12:20:16Z</time>
</trkpt>
<trkpt lat="40.634435" lon="-3.1729066666666665">
<ele>696</ele>
<time>2017-03-03T12:20:20Z</time>
</trkpt>
<trkpt lat="40.634435" lon="-3.1729066666666665">
<ele>696</ele>
<time>2017-03-03T12:20:24Z</time>
</trkpt>
<trkpt lat="40.634435" lon="-3.1729066666666665">
<ele>696</ele>
<time>2017-03-03T12:20:28Z</time>
</trkpt>
<trkpt lat="40.634435" lon="-3.1729066666666665">
<ele>696</ele>
<time>2017-03-03T12:20:32Z</time>
</trkpt>
<trkpt lat="40.63449666666667" lon="-3.1730416666666668">
<ele>697</ele>
<time>2017-03-03T12:20:36Z</time>
</trkpt>
<trkpt lat="40.63439666666667" lon="-3.1729233333333338">
<ele>696</ele>
<time>2017-03-03T12:20:40Z</time>
</trkpt>
<trkpt lat="40.634546666666665" lon="-3.1729533333333335">
<ele>695</ele>
<time>2017-03-03T12:20:44Z</time>
</trkpt>
<trkpt lat="40.634665000000005" lon="-3.1729216666666664">
<ele>695</ele>
<time>2017-03-03T12:20:48Z</time>
</trkpt>
<trkpt lat="40.634753333333336" lon="-3.1729216666666664">
<ele>694</ele>
<time>2017-03-03T12:20:52Z</time>
</trkpt>
<trkpt lat="40.634813333333334" lon="-3.172956666666667">
<ele>694</ele>
<time>2017-03-03T12:20:56Z</time>
</trkpt>
<trkpt lat="40.63488333333333" lon="-3.172965">
<ele>694</ele>
<time>2017-03-03T12:21:00Z</time>
</trkpt>
<trkpt lat="40.634945" lon="-3.172971666666667">
<ele>695</ele>
<time>2017-03-03T12:21:04Z</time>
</trkpt>
<trkpt lat="40.63480666666667" lon="-3.1729800000000004">
<ele>695</ele>
<time>2017-03-03T12:21:08Z</time>
</trkpt>
<trkpt lat="40.63458" lon="-3.173028333333334">
<ele>695</ele>
<time>2017-03-03T12:21:12Z</time>
</trkpt>
<trkpt lat="40.63475666666667" lon="-3.17281">
<ele>695</ele>
<time>2017-03-03T12:21:16Z</time>
</trkpt>
<trkpt lat="40.634775" lon="-3.172751666666666">
<ele>695</ele>
<time>2017-03-03T12:21:20Z</time>
</trkpt>
<trkpt lat="40.634775" lon="-3.172751666666666">
<ele>695</ele>
<time>2017-03-03T12:21:24Z</time>
</trkpt>
<trkpt lat="40.634800000000006" lon="-3.172636666666667">
<ele>695</ele>
<time>2017-03-03T12:21:28Z</time>
</trkpt>
<trkpt lat="40.63481" lon="-3.1726416666666664">
<ele>695</ele>
<time>2017-03-03T12:21:32Z</time>
</trkpt>
<trkpt lat="40.63481" lon="-3.1726416666666664">
<ele>695</ele>
<time>2017-03-03T12:21:36Z</time>
</trkpt>
<trkpt lat="40.63481" lon="-3.1726416666666664">
<ele>695</ele>
<time>2017-03-03T12:21:40Z</time>
</trkpt>
<trkpt lat="40.63481" lon="-3.1726416666666664">
<ele>695</ele>
<time>2017-03-03T12:21:44Z</time>
</trkpt>
<trkpt lat="40.634933333333336" lon="-3.1725749999999997">
<ele>694</ele>
<time>2017-03-03T12:21:48Z</time>
</trkpt>
<trkpt lat="40.635011666666664" lon="-3.1725666666666665">
<ele>694</ele>
<time>2017-03-03T12:21:52Z</time>
</trkpt>
<trkpt lat="40.63515833333334" lon="-3.172601666666667">
<ele>693</ele>
<time>2017-03-03T12:21:56Z</time>
</trkpt>
<trkpt lat="40.63503166666667" lon="-3.1725733333333332">
<ele>692</ele>
<time>2017-03-03T12:22:00Z</time>
</trkpt>
<trkpt lat="40.634625" lon="-3.1725383333333337">
<ele>693</ele>
<time>2017-03-03T12:22:04Z</time>
</trkpt>
<trkpt lat="40.634206666666664" lon="-3.1723133333333333">
<ele>696</ele>
<time>2017-03-03T12:22:18Z</time>
</trkpt>
<trkpt lat="40.634429999999995" lon="-3.1722116666666667">
<ele>697</ele>
<time>2017-03-03T12:22:22Z</time>
</trkpt>
<trkpt lat="40.63452666666667" lon="-3.172128333333333">
<ele>697</ele>
<time>2017-03-03T12:22:26Z</time>
</trkpt>
<trkpt lat="40.634618333333336" lon="-3.1720766666666664">
<ele>697</ele>
<time>2017-03-03T12:22:30Z</time>
</trkpt>
<trkpt lat="40.63467833333333" lon="-3.1720633333333335">
<ele>698</ele>
<time>2017-03-03T12:22:34Z</time>
</trkpt>
<trkpt lat="40.63469" lon="-3.1720349999999997">
<ele>698</ele>
<time>2017-03-03T12:22:38Z</time>
</trkpt>
<trkpt lat="40.634708333333336" lon="-3.1720199999999994">
<ele>698</ele>
<time>2017-03-03T12:22:42Z</time>
</trkpt>
<trkpt lat="40.634708333333336" lon="-3.1720199999999994">
<ele>698</ele>
<time>2017-03-03T12:22:46Z</time>
</trkpt>
<trkpt lat="40.634708333333336" lon="-3.1720199999999994">
<ele>698</ele>
<time>2017-03-03T12:22:50Z</time>
</trkpt>
<trkpt lat="40.634708333333336" lon="-3.1720199999999994">
<ele>698</ele>
<time>2017-03-03T12:22:54Z</time>
</trkpt>
<trkpt lat="40.634805" lon="-3.17197">
<ele>699</ele>
<time>2017-03-03T12:22:58Z</time>
</trkpt>
<trkpt lat="40.634805" lon="-3.17197">
<ele>699</ele>
<time>2017-03-03T12:23:02Z</time>
</trkpt>
<trkpt lat="40.634805" lon="-3.17197">
<ele>699</ele>
<time>2017-03-03T12:23:06Z</time>
</trkpt>
<trkpt lat="40.634805" lon="-3.17197">
<ele>699</ele>
<time>2017-03-03T12:23:10Z</time>
</trkpt>
<trkpt lat="40.634805" lon="-3.17197">
<ele>699</ele>
<time>2017-03-03T12:23:14Z</time>
</trkpt>
<trkpt lat="40.634805" lon="-3.17197">
<ele>699</ele>
<time>2017-03-03T12:23:18Z</time>
</trkpt>
<trkpt lat="40.634715" lon="-3.172028333333334">
<ele>700</ele>
<time>2017-03-03T12:23:22Z</time>
</trkpt>
<trkpt lat="40.63469833333333" lon="-3.1720466666666662">
<ele>700</ele>
<time>2017-03-03T12:23:26Z</time>
</trkpt>
<trkpt lat="40.63469833333333" lon="-3.1720366666666666">
<ele>700</ele>
<time>2017-03-03T12:23:30Z</time>
</trkpt>
<trkpt lat="40.63447333333333" lon="-3.17231">
<ele>701</ele>
<time>2017-03-03T12:23:52Z</time>
</trkpt>
<trkpt lat="40.63442333333333" lon="-3.172266666666667">
<ele>701</ele>
<time>2017-03-03T12:23:56Z</time>
</trkpt>
<trkpt lat="40.63442333333333" lon="-3.172266666666667">
<ele>701</ele>
<time>2017-03-03T12:24:00Z</time>
</trkpt>
<trkpt lat="40.63437166666667" lon="-3.172103333333333">
<ele>701</ele>
<time>2017-03-03T12:24:04Z</time>
</trkpt>
<trkpt lat="40.634429999999995" lon="-3.1720483333333336">
<ele>701</ele>
<time>2017-03-03T12:24:08Z</time>
</trkpt>
<trkpt lat="40.63438166666666" lon="-3.1720183333333334">
<ele>701</ele>
<time>2017-03-03T12:24:12Z</time>
</trkpt>
<trkpt lat="40.63438166666666" lon="-3.1720183333333334">
<ele>701</ele>
<time>2017-03-03T12:24:16Z</time>
</trkpt>
<trkpt lat="40.63438166666666" lon="-3.1720183333333334">
<ele>701</ele>
<time>2017-03-03T12:24:20Z</time>
</trkpt>
<trkpt lat="40.63424833333333" lon="-3.1720649999999995">
<ele>701</ele>
<time>2017-03-03T12:24:24Z</time>
</trkpt>
<trkpt lat="40.63418" lon="-3.1720649999999995">
<ele>701</ele>
<time>2017-03-03T12:24:28Z</time>
</trkpt>
<trkpt lat="40.63464333333333" lon="-3.172325">
<ele>699</ele>
<time>2017-03-03T12:25:06Z</time>
</trkpt>
<trkpt lat="40.634654999999995" lon="-3.172438333333333">
<ele>699</ele>
<time>2017-03-03T12:25:10Z</time>
</trkpt>
<trkpt lat="40.63463166666667" lon="-3.1725383333333337">
<ele>702</ele>
<time>2017-03-03T12:25:14Z</time>
</trkpt>
<trkpt lat="40.63479666666667" lon="-3.172326666666667">
<ele>691</ele>
<time>2017-03-03T12:25:18Z</time>
</trkpt>
<trkpt lat="40.63478333333333" lon="-3.172191666666667">
<ele>674</ele>
<time>2017-03-03T12:25:22Z</time>
</trkpt>
<trkpt lat="40.63483166666666" lon="-3.172045">
<ele>671</ele>
<time>2017-03-03T12:25:26Z</time>
</trkpt>
<trkpt lat="40.63485166666667" lon="-3.1719899999999996">
<ele>671</ele>
<time>2017-03-03T12:25:30Z</time>
</trkpt>
<trkpt lat="40.634840000000004" lon="-3.1719683333333335">
<ele>670</ele>
<time>2017-03-03T12:25:34Z</time>
</trkpt>
<trkpt lat="40.634840000000004" lon="-3.1719683333333335">
<ele>670</ele>
<time>2017-03-03T12:25:38Z</time>
</trkpt>
<trkpt lat="40.634840000000004" lon="-3.1719683333333335">
<ele>670</ele>
<time>2017-03-03T12:25:42Z</time>
</trkpt>
<trkpt lat="40.634840000000004" lon="-3.1719683333333335">
<ele>670</ele>
<time>2017-03-03T12:25:46Z</time>
</trkpt>
<trkpt lat="40.63489166666667" lon="-3.1718499999999996">
<ele>671</ele>
<time>2017-03-03T12:25:50Z</time>
</trkpt>
<trkpt lat="40.634908333333335" lon="-3.1717549999999997">
<ele>671</ele>
<time>2017-03-03T12:25:54Z</time>
</trkpt>
<trkpt lat="40.634966666666664" lon="-3.17168">
<ele>672</ele>
<time>2017-03-03T12:25:58Z</time>
</trkpt>
<trkpt lat="40.634965" lon="-3.1716866666666665">
<ele>672</ele>
<time>2017-03-03T12:26:02Z</time>
</trkpt>
<trkpt lat="40.634966666666664" lon="-3.1716916666666664">
<ele>672</ele>
<time>2017-03-03T12:26:06Z</time>
</trkpt>
<trkpt lat="40.634855" lon="-3.1716499999999996">
<ele>672</ele>
<time>2017-03-03T12:26:10Z</time>
</trkpt>
<trkpt lat="40.63480833333333" lon="-3.1715966666666664">
<ele>672</ele>
<time>2017-03-03T12:26:14Z</time>
</trkpt>
<trkpt lat="40.634789999999995" lon="-3.171585">
<ele>672</ele>
<time>2017-03-03T12:26:18Z</time>
</trkpt>
<trkpt lat="40.63478833333333" lon="-3.1715816666666665">
<ele>672</ele>
<time>2017-03-03T12:26:22Z</time>
</trkpt>
<trkpt lat="40.63478833333333" lon="-3.1715816666666665">
<ele>672</ele>
<time>2017-03-03T12:26:26Z</time>
</trkpt>
<trkpt lat="40.63478833333333" lon="-3.1715816666666665">
<ele>672</ele>
<time>2017-03-03T12:26:30Z</time>
</trkpt>
<trkpt lat="40.63480833333333" lon="-3.171608333333333">
<ele>672</ele>
<time>2017-03-03T12:26:34Z</time>
</trkpt>
<trkpt lat="40.634816666666666" lon="-3.171586666666667">
<ele>672</ele>
<time>2017-03-03T12:26:38Z</time>
</trkpt>
<trkpt lat="40.634816666666666" lon="-3.171586666666667">
<ele>672</ele>
<time>2017-03-03T12:26:42Z</time>
</trkpt>
<trkpt lat="40.634816666666666" lon="-3.171586666666667">
<ele>672</ele>
<time>2017-03-03T12:26:46Z</time>
</trkpt>
<trkpt lat="40.634816666666666" lon="-3.171586666666667">
<ele>672</ele>
<time>2017-03-03T12:26:50Z</time>
</trkpt>
<trkpt lat="40.634726666666666" lon="-3.171543333333333">
<ele>672</ele>
<time>2017-03-03T12:26:54Z</time>
</trkpt>
<trkpt lat="40.63471666666667" lon="-3.1715500000000003">
<ele>672</ele>
<time>2017-03-03T12:26:58Z</time>
</trkpt>
<trkpt lat="40.63471666666667" lon="-3.1715500000000003">
<ele>672</ele>
<time>2017-03-03T12:27:02Z</time>
</trkpt>
<trkpt lat="40.63471666666667" lon="-3.1715500000000003">
<ele>672</ele>
<time>2017-03-03T12:27:06Z</time>
</trkpt>
<trkpt lat="40.63471666666667" lon="-3.1715500000000003">
<ele>672</ele>
<time>2017-03-03T12:27:10Z</time>
</trkpt>
<trkpt lat="40.63475833333334" lon="-3.17163">
<ele>671</ele>
<time>2017-03-03T12:27:14Z</time>
</trkpt>
<trkpt lat="40.63475833333334" lon="-3.17163">
<ele>671</ele>
<time>2017-03-03T12:27:18Z</time>
</trkpt>
<trkpt lat="40.63475833333334" lon="-3.17163">
<ele>671</ele>
<time>2017-03-03T12:27:22Z</time>
</trkpt>
<trkpt lat="40.63475833333334" lon="-3.17163">
<ele>671</ele>
<time>2017-03-03T12:27:26Z</time>
</trkpt>
<trkpt lat="40.63536" lon="-3.1722316666666672">
<ele>670</ele>
<time>2017-03-03T12:28:48Z</time>
</trkpt>
<trkpt lat="40.63525166666667" lon="-3.172288333333334">
<ele>670</ele>
<time>2017-03-03T12:28:52Z</time>
</trkpt>
<trkpt lat="40.634715" lon="-3.1716366666666667">
<ele>673</ele>
<time>2017-03-03T12:30:30Z</time>
</trkpt>
<trkpt lat="40.634654999999995" lon="-3.17157">
<ele>674</ele>
<time>2017-03-03T12:30:34Z</time>
</trkpt>
<trkpt lat="40.63464333333333" lon="-3.1715099999999996">
<ele>673</ele>
<time>2017-03-03T12:30:38Z</time>
</trkpt>
<trkpt lat="40.63465" lon="-3.1715166666666668">
<ele>673</ele>
<time>2017-03-03T12:30:42Z</time>
</trkpt>
<trkpt lat="40.63457166666667" lon="-3.1714866666666666">
<ele>672</ele>
<time>2017-03-03T12:30:46Z</time>
</trkpt>
<trkpt lat="40.63453166666667" lon="-3.1715099999999996">
<ele>672</ele>
<time>2017-03-03T12:30:50Z</time>
</trkpt>
<trkpt lat="40.63448666666667" lon="-3.171526666666667">
<ele>672</ele>
<time>2017-03-03T12:30:54Z</time>
</trkpt>
<trkpt lat="40.634456666666665" lon="-3.171103333333334">
<ele>681</ele>
<time>2017-03-03T12:31:55Z</time>
</trkpt>
<trkpt lat="40.63448833333334" lon="-3.171193333333333">
<ele>676</ele>
<time>2017-03-03T12:32:00Z</time>
</trkpt>
<trkpt lat="40.634495" lon="-3.1711883333333333">
<ele>676</ele>
<time>2017-03-03T12:32:04Z</time>
</trkpt>
<trkpt lat="40.634495" lon="-3.1711883333333333">
<ele>676</ele>
<time>2017-03-03T12:32:08Z</time>
</trkpt>
<trkpt lat="40.63451" lon="-3.1712916666666664">
<ele>674</ele>
<time>2017-03-03T12:32:12Z</time>
</trkpt>
<trkpt lat="40.63450833333333" lon="-3.17132">
<ele>674</ele>
<time>2017-03-03T12:32:16Z</time>
</trkpt>
<trkpt lat="40.63457833333334" lon="-3.1712833333333332">
<ele>675</ele>
<time>2017-03-03T12:32:20Z</time>
</trkpt>
<trkpt lat="40.63457833333334" lon="-3.1712833333333332">
<ele>675</ele>
<time>2017-03-03T12:32:24Z</time>
</trkpt>
<trkpt lat="40.63457833333334" lon="-3.1712833333333332">
<ele>675</ele>
<time>2017-03-03T12:32:28Z</time>
</trkpt>
<trkpt lat="40.63457833333334" lon="-3.1712833333333332">
<ele>675</ele>
<time>2017-03-03T12:32:32Z</time>
</trkpt>
<trkpt lat="40.63457833333334" lon="-3.1712833333333332">
<ele>675</ele>
<time>2017-03-03T12:32:36Z</time>
</trkpt>
<trkpt lat="40.634661666666666" lon="-3.1711833333333335">
<ele>674</ele>
<time>2017-03-03T12:32:40Z</time>
</trkpt>
<trkpt lat="40.634661666666666" lon="-3.1711833333333335">
<ele>674</ele>
<time>2017-03-03T12:32:44Z</time>
</trkpt>
<trkpt lat="40.634661666666666" lon="-3.1711833333333335">
<ele>674</ele>
<time>2017-03-03T12:32:48Z</time>
</trkpt>
<trkpt lat="40.63453166666667" lon="-3.1712283333333335">
<ele>674</ele>
<time>2017-03-03T12:32:52Z</time>
</trkpt>
<trkpt lat="40.634425" lon="-3.171423333333333">
<ele>674</ele>
<time>2017-03-03T12:32:56Z</time>
</trkpt>
<trkpt lat="40.634528333333336" lon="-3.1712583333333337">
<ele>678</ele>
<time>2017-03-03T12:33:32Z</time>
</trkpt>
<trkpt lat="40.634425" lon="-3.171121666666666">
<ele>665</ele>
<time>2017-03-03T12:33:36Z</time>
</trkpt>
<trkpt lat="40.63442" lon="-3.171116666666667">
<ele>664</ele>
<time>2017-03-03T12:33:40Z</time>
</trkpt>
<trkpt lat="40.63442" lon="-3.171116666666667">
<ele>664</ele>
<time>2017-03-03T12:33:44Z</time>
</trkpt>
<trkpt lat="40.63442" lon="-3.171116666666667">
<ele>664</ele>
<time>2017-03-03T12:33:48Z</time>
</trkpt>
<trkpt lat="40.63442" lon="-3.171116666666667">
<ele>664</ele>
<time>2017-03-03T12:33:52Z</time>
</trkpt>
<trkpt lat="40.63442" lon="-3.171116666666667">
<ele>664</ele>
<time>2017-03-03T12:33:56Z</time>
</trkpt>
<trkpt lat="40.63437" lon="-3.171085">
<ele>664</ele>
<time>2017-03-03T12:34:00Z</time>
</trkpt>
<trkpt lat="" lon="">
<ele></ele>
<time>2017-03-03TZ</time>
</trkpt>
</trkseg>
</trk>
<wpt lat="" lon="">
	<name></name>
	<desc></desc>
	<cmt></cmt>
	<photoid></photoid>
	<type></type>
</wpt>
</gpx>
